Wetterdaten: Dienstag, 01.11.2016
Datum Zeit Temp. A. Feuchte A. Luftdruck Regen Wind Richtung Richtung Sonnenschein ET UV Solar Taupunkt Windchill Windben Empfang
01.11.2016 00:00 2,7 C 97 % 1027,1 hPa 0,0 l/m 0,7 km/h (0 Bft) O-SO 119 0 min 0,000 mm 0,0 UV-I 0 W/m 2,3 C 2,7 C 1,6 km/h (1 Bft) 100,00 %
01.11.2016 00:02 2,7 C 97 % 1027,1 hPa 0,0 l/m 1,6 km/h (1 Bft) O-SO 119 0 min 0,000 mm 0,0 UV-I 0 W/m 2,3 C 2,7 C 1,6 km/h (1 Bft) 12,50 %
01.11.2016 00:04 2,8 C 97 % 1027,1 hPa 0,0 l/m 0,6 km/h (0 Bft) O-SO 119 0 min 0,000 mm 0,0 UV-I 0 W/m 2,4 C 2,8 C 1,6 km/h (1 Bft) 83,72 %
01.11.2016 00:06 2,9 C 97 % 1027,1 hPa 0,0 l/m 0,1 km/h (0 Bft) O-SO 119 0 min 0,000 mm 0,0 UV-I 0 W/m 2,5 C 2,9 C 1,6 km/h (1 Bft) 100,00 %
01.11.2016 00:08 2,9 C 97 % 1027,0 hPa 0,0 l/m 0,6 km/h (0 Bft) O-SO 119 0 min 0,000 mm 0,0 UV-I 0 W/m 2,5 C 2,9 C 1,6 km/h (1 Bft) 97,87 %
01.11.2016 00:10 3,0 C 97 % 1027,0 hPa 0,0 l/m 0,9 km/h (0 Bft) O-SO 119 0 min 0,000 mm 0,0 UV-I 0 W/m 2,6 C 3,0 C 1,6 km/h (1 Bft) 100,00 %
01.11.2016 00:12 2,9 C 97 % 1026,9 hPa 0,0 l/m 0,9 km/h (0 Bft) O-SO 119 0 min 0,000 mm 0,0 UV-I 0 W/m 2,5 C 2,9 C 1,6 km/h (1 Bft) 100,00 %
01.11.2016 00:14 2,8 C 97 % 1026,9 hPa 0,0 l/m 0,5 km/h (0 Bft) O-SO 119 0 min 0,000 mm 0,0 UV-I 0 W/m 2,4 C 2,8 C 1,6 km/h (1 Bft) 100,00 %
01.11.2016 00:16 2,7 C 97 % 1026,9 hPa 0,0 l/m 0,7 km/h (0 Bft) O-SO 119 0 min 0,000 mm 0,0 UV-I 0 W/m 2,3 C 2,7 C 1,6 km/h (1 Bft) 100,00 %
01.11.2016 00:18 2,8 C 97 % 1026,9 hPa 0,0 l/m 1,2 km/h (1 Bft) O-SO 119 0 min 0,000 mm 0,0 UV-I 0 W/m 2,4 C 2,8 C 3,2 km/h (1 Bft) 100,00 %
01.11.2016 00:20 2,9 C 97 % 1026,8 hPa 0,0 l/m 0,9 km/h (0 Bft) O-SO 119 0 min 0,000 mm 0,0 UV-I 0 W/m 2,5 C 2,9 C 3,2 km/h (1 Bft) 100,00 %
01.11.2016 00:22 3,1 C 97 % 1026,8 hPa 0,0 l/m 1,8 km/h (1 Bft) O-SO 119 0 min 0,000 mm 0,0 UV-I 0 W/m 2,7 C 3,1 C 3,2 km/h (1 Bft) 100,00 %
01.11.2016 00:24 3,2 C 97 % 1026,8 hPa 0,0 l/m 1,4 km/h (1 Bft) O-SO 119 0 min 0,000 mm 0,0 UV-I 0 W/m 2,8 C 3,2 C 3,2 km/h (1 Bft) 100,00 %
01.11.2016 00:26 3,2 C 97 % 1026,8 hPa 0,0 l/m 1,8 km/h (1 Bft) O-SO 119 0 min 0,000 mm 0,0 UV-I 0 W/m 2,8 C 3,2 C 3,2 km/h (1 Bft) 100,00 %
01.11.2016 00:28 3,3 C 97 % 1026,7 hPa 0,0 l/m 1,8 km/h (1 Bft) O-SO 119 0 min 0,000 mm 0,0 UV-I 0 W/m 2,9 C 3,3 C 3,2 km/h (1 Bft) 100,00 %
01.11.2016 00:30 3,2 C 97 % 1026,7 hPa 0,0 l/m 1,8 km/h (1 Bft) O-SO 119 0 min 0,000 mm 0,0 UV-I 0 W/m 2,8 C 3,2 C 3,2 km/h (1 Bft) 100,00 %
01.11.2016 00:32 3,2 C 97 % 1026,7 hPa 0,0 l/m 1,9 km/h (1 Bft) O-SO 119 0 min 0,000 mm 0,0 UV-I 0 W/m 2,8 C 3,2 C 3,2 km/h (1 Bft) 100,00 %
01.11.2016 00:34 3,2 C 97 % 1026,7 hPa 0,0 l/m 2,5 km/h (1 Bft) O-SO 119 0 min 0,000 mm 0,0 UV-I 0 W/m 2,8 C 3,2 C 4,8 km/h (1 Bft) 98,00 %
01.11.2016 00:36 3,2 C 97 % 1026,7 hPa 0,0 l/m 2,0 km/h (1 Bft) O-SO 119 0 min 0,000 mm 0,0 UV-I 0 W/m 2,8 C 3,2 C 3,2 km/h (1 Bft) 100,00 %
01.11.2016 00:38 3,3 C 97 % 1026,7 hPa 0,0 l/m 2,5 km/h (1 Bft) O-SO 119 0 min 0,000 mm 0,0 UV-I 0 W/m 2,9 C 3,3 C 4,8 km/h (1 Bft) 97,87 %
01.11.2016 00:40 3,2 C 97 % 1026,7 hPa 0,0 l/m 1,9 km/h (1 Bft) O-SO 119 0 min 0,000 mm 0,0 UV-I 0 W/m 2,8 C 3,2 C 4,8 km/h (1 Bft) 100,00 %
01.11.2016 00:42 3,1 C 97 % 1026,7 hPa 0,0 l/m 0,9 km/h (0 Bft) O-SO 119 0 min 0,000 mm 0,0 UV-I 0 W/m 2,7 C 3,1 C 1,6 km/h (1 Bft) 96,23 %
01.11.2016 00:44 2,8 C 97 % 1026,6 hPa 0,0 l/m 0,8 km/h (0 Bft) O-SO 119 0 min 0,000 mm 0,0 UV-I 0 W/m 2,4 C 2,8 C 3,2 km/h (1 Bft) 97,56 %
01.11.2016 00:46 2,8 C 97 % 1026,6 hPa 0,0 l/m 0,7 km/h (0 Bft) O-SO 119 0 min 0,000 mm 0,0 UV-I 0 W/m 2,4 C 2,8 C 3,2 km/h (1 Bft) 98,00 %
01.11.2016 00:48 2,7 C 97 % 1026,6 hPa 0,0 l/m 1,9 km/h (1 Bft) O-SO 119 0 min 0,000 mm 0,0 UV-I 0 W/m 2,3 C 2,7 C 3,2 km/h (1 Bft) 98,11 %
01.11.2016 00:50 2,6 C 97 % 1026,6 hPa 0,0 l/m 1,6 km/h (1 Bft) O-SO 119 0 min 0,000 mm 0,0 UV-I 0 W/m 2,2 C 2,6 C 3,2 km/h (1 Bft) 97,37 %
01.11.2016 00:52 2,7 C 97 % 1026,6 hPa 0,0 l/m 2,3 km/h (1 Bft) O-SO 120 0 min 0,000 mm 0,0 UV-I 0 W/m 2,3 C 2,7 C 4,8 km/h (1 Bft) 98,00 %
01.11.2016 00:54 2,7 C 97 % 1026,6 hPa 0,0 l/m 2,1 km/h (1 Bft) O-SO 120 0 min 0,000 mm 0,0 UV-I 0 W/m 2,3 C 2,7 C 3,2 km/h (1 Bft) 98,11 %
01.11.2016 00:56 2,7 C 97 % 1026,6 hPa 0,0 l/m 2,7 km/h (1 Bft) O-SO 121 0 min 0,000 mm 0,0 UV-I 0 W/m 2,3 C 2,7 C 4,8 km/h (1 Bft) 97,56 %
01.11.2016 00:58 2,7 C 97 % 1026,6 hPa 0,0 l/m 2,3 km/h (1 Bft) O-SO 121 0 min 0,000 mm 0,0 UV-I 0 W/m 2,3 C 2,7 C 3,2 km/h (1 Bft) 97,56 %
01.11.2016 01:00 2,7 C 97 % 1026,6 hPa 0,0 l/m 2,1 km/h (1 Bft) O-SO 121 0 min 0,000 mm 0,0 UV-I 0 W/m 2,3 C 2,7 C 3,2 km/h (1 Bft) 94,00 %
01.11.2016 01:02 2,7 C 97 % 1026,6 hPa 0,0 l/m 2,0 km/h (1 Bft) O-SO 121 0 min 0,000 mm 0,0 UV-I 0 W/m 2,3 C 2,7 C 3,2 km/h (1 Bft) 98,00 %
01.11.2016 01:04 2,7 C 97 % 1026,6 hPa 0,0 l/m 2,1 km/h (1 Bft) O-SO 121 0 min 0,000 mm 0,0 UV-I 0 W/m 2,3 C 2,7 C 3,2 km/h (1 Bft) 97,56 %
01.11.2016 01:06 2,7 C 97 % 1026,6 hPa 0,0 l/m 1,8 km/h (1 Bft) O-SO 121 0 min 0,000 mm 0,0 UV-I 0 W/m 2,3 C 2,7 C 3,2 km/h (1 Bft) 95,83 %
01.11.2016 01:08 2,7 C 97 % 1026,5 hPa 0,0 l/m 1,8 km/h (1 Bft) O-SO 121 0 min 0,000 mm 0,0 UV-I 0 W/m 2,3 C 2,7 C 3,2 km/h (1 Bft) 98,08 %
01.11.2016 01:10 2,8 C 97 % 1026,5 hPa 0,0 l/m 1,4 km/h (1 Bft) O-SO 121 0 min 0,000 mm 0,0 UV-I 0 W/m 2,4 C 2,8 C 1,6 km/h (1 Bft) 97,87 %
01.11.2016 01:12 2,8 C 97 % 1026,5 hPa 0,0 l/m 0,9 km/h (0 Bft) O-SO 121 0 min 0,000 mm 0,0 UV-I 0 W/m 2,4 C 2,8 C 1,6 km/h (1 Bft) 98,00 %
01.11.2016 01:14 2,8 C 97 % 1026,5 hPa 0,0 l/m 0,9 km/h (0 Bft) O-SO 121 0 min 0,000 mm 0,0 UV-I 0 W/m 2,4 C 2,8 C 1,6 km/h (1 Bft) 94,87 %
01.11.2016 01:16 2,8 C 97 % 1026,5 hPa 0,0 l/m 0,0 km/h (0 Bft) O-SO 121 0 min 0,000 mm 0,0 UV-I 0 W/m 2,4 C 2,8 C 1,6 km/h (1 Bft) 98,00 %
01.11.2016 01:18 2,7 C 97 % 1026,5 hPa 0,0 l/m 0,9 km/h (0 Bft) O-SO 121 0 min 0,000 mm 0,0 UV-I 0 W/m 2,3 C 2,7 C 1,6 km/h (1 Bft) 100,00 %
01.11.2016 01:20 2,6 C 97 % 1026,5 hPa 0,0 l/m 0,4 km/h (0 Bft) O-SO 121 0 min 0,000 mm 0,0 UV-I 0 W/m 2,2 C 2,6 C 1,6 km/h (1 Bft) 97,37 %
01.11.2016 01:22 2,4 C 96 % 1026,5 hPa 0,0 l/m 0,0 km/h (0 Bft) O-SO 121 0 min 0,000 mm 0,0 UV-I 0 W/m 1,8 C 2,4 C 0,0 km/h (0 Bft) 98,00 %
01.11.2016 01:24 2,3 C 96 % 1026,4 hPa 0,0 l/m 0,0 km/h (0 Bft) O-SO 121 0 min 0,000 mm 0,0 UV-I 0 W/m 1,7 C 2,3 C 0,0 km/h (0 Bft) 100,00 %
01.11.2016 01:26 2,3 C 97 % 1026,4 hPa 0,0 l/m 0,8 km/h (0 Bft) O-SO 121 0 min 0,000 mm 0,0 UV-I 0 W/m 1,9 C 2,3 C 1,6 km/h (1 Bft) 98,00 %
01.11.2016 01:28 2,2 C 97 % 1026,4 hPa 0,0 l/m 1,0 km/h (0 Bft) O-SO 121 0 min 0,000 mm 0,0 UV-I 0 W/m 1,8 C 2,2 C 1,6 km/h (1 Bft) 100,00 %
01.11.2016 01:30 2,2 C 97 % 1026,4 hPa 0,0 l/m 0,4 km/h (0 Bft) O-SO 121 0 min 0,000 mm 0,0 UV-I 0 W/m 1,8 C 2,2 C 1,6 km/h (1 Bft) 95,12 %
01.11.2016 01:32 2,2 C 97 % 1026,4 hPa 0,0 l/m 0,0 km/h (0 Bft) O-SO 121 0 min 0,000 mm 0,0 UV-I 0 W/m 1,8 C 2,2 C 1,6 km/h (1 Bft) 97,87 %
01.11.2016 01:34 2,3 C 97 % 1026,4 hPa 0,0 l/m 0,0 km/h (0 Bft) O-SO 121 0 min 0,000 mm 0,0 UV-I 0 W/m 1,9 C 2,3 C 0,0 km/h (0 Bft) 100,00 %
01.11.2016 01:36 2,3 C 97 % 1026,4 hPa 0,0 l/m 0,0 km/h (0 Bft) O-SO 121 0 min 0,000 mm 0,0 UV-I 0 W/m 1,9 C 2,3 C 0,0 km/h (0 Bft) 100,00 %
01.11.2016 01:38 2,2 C 97 % 1026,4 hPa 0,0 l/m 0,0 km/h (0 Bft) O-SO 121 0 min 0,000 mm 0,0 UV-I 0 W/m 1,8 C 2,2 C 0,0 km/h (0 Bft) 100,00 %
01.11.2016 01:40 2,1 C 97 % 1026,4 hPa 0,0 l/m 0,0 km/h (0 Bft) O-SO 120 0 min 0,000 mm 0,0 UV-I 0 W/m 1,7 C 2,1 C 0,0 km/h (0 Bft) 97,87 %
01.11.2016 01:42 2,0 C 97 % 1026,4 hPa 0,0 l/m 0,0 km/h (0 Bft) O-SO 121 0 min 0,000 mm 0,0 UV-I 0 W/m 1,6 C 2,0 C 0,0 km/h (0 Bft) 100,00 %
01.11.2016 01:44 1,9 C 97 % 1026,3 hPa 0,0 l/m 0,0 km/h (0 Bft) O-SO 121 0 min 0,000 mm 0,0 UV-I 0 W/m 1,5 C 1,9 C 0,0 km/h (0 Bft) 100,00 %
01.11.2016 01:46 1,9 C 97 % 1026,3 hPa 0,0 l/m 0,7 km/h (0 Bft) O-SO 121 0 min 0,000 mm 0,0 UV-I 0 W/m 1,5 C 1,9 C 1,6 km/h (1 Bft) 100,00 %
01.11.2016 01:48 1,9 C 97 % 1026,3 hPa 0,0 l/m 1,5 km/h (1 Bft) O-SO 121 0 min 0,000 mm 0,0 UV-I 0 W/m 1,5 C 1,9 C 3,2 km/h (1 Bft) 100,00 %
01.11.2016 01:50 2,0 C 97 % 1026,3 hPa 0,0 l/m 0,4 km/h (0 Bft) O-SO 121 0 min 0,000 mm 0,0 UV-I 0 W/m 1,6 C 2,0 C 1,6 km/h (1 Bft) 98,00 %
01.11.2016 01:52 2,1 C 97 % 1026,2 hPa 0,0 l/m 0,0 km/h (0 Bft) O-SO 121 0 min 0,000 mm 0,0 UV-I 0 W/m 1,7 C 2,1 C 0,0 km/h (0 Bft) 100,00 %
01.11.2016 01:54 2,1 C 97 % 1026,2 hPa 0,0 l/m 1,0 km/h (0 Bft) O-SO 121 0 min 0,000 mm 0,0 UV-I 0 W/m 1,7 C 2,1 C 3,2 km/h (1 Bft) 96,23 %
01.11.2016 01:56 2,0 C 97 % 1026,3 hPa 0,0 l/m 0,6 km/h (0 Bft) O-SO 121 0 min 0,000 mm 0,0 UV-I 0 W/m 1,6 C 2,0 C 1,6 km/h (1 Bft) 100,00 %
01.11.2016 01:58 1,9 C 97 % 1026,2 hPa 0,0 l/m 0,0 km/h (0 Bft) O-SO 121 0 min 0,000 mm 0,0 UV-I 0 W/m 1,5 C 1,9 C 0,0 km/h (0 Bft) 97,87 %
01.11.2016 02:00 1,9 C 97 % 1026,2 hPa 0,0 l/m 0,0 km/h (0 Bft) O-SO 121 0 min 0,000 mm 0,0 UV-I 0 W/m 1,5 C 1,9 C 0,0 km/h (0 Bft) 97,87 %
01.11.2016 02:02 1,9 C 97 % 1026,2 hPa 0,0 l/m 0,0 km/h (0 Bft) O-SO 121 0 min 0,000 mm 0,0 UV-I 0 W/m 1,5 C 1,9 C 0,0 km/h (0 Bft) 100,00 %
01.11.2016 02:04 1,9 C 97 % 1026,1 hPa 0,0 l/m 0,0 km/h (0 Bft) O-SO 121 0 min 0,000 mm 0,0 UV-I 0 W/m 1,5 C 1,9 C 0,0 km/h (0 Bft) 98,11 %
01.11.2016 02:06 1,8 C 97 % 1026,1 hPa 0,0 l/m 0,0 km/h (0 Bft) O-SO 121 0 min 0,000 mm 0,0 UV-I 0 W/m 1,4 C 1,8 C 0,0 km/h (0 Bft) 100,00 %
01.11.2016 02:08 1,7 C 97 % 1026,1 hPa 0,0 l/m 0,0 km/h (0 Bft) O-SO 121 0 min 0,000 mm 0,0 UV-I 0 W/m 1,3 C 1,7 C 0,0 km/h (0 Bft) 100,00 %
01.11.2016 02:10 1,6 C 97 % 1026,1 hPa 0,0 l/m 0,0 km/h (0 Bft) O-SO 121 0 min 0,000 mm 0,0 UV-I 0 W/m 1,2 C 1,6 C 0,0 km/h (0 Bft) 100,00 %
01.11.2016 02:12 1,6 C 97 % 1026,1 hPa 0,0 l/m 0,0 km/h (0 Bft) O-SO 121 0 min 0,000 mm 0,0 UV-I 0 W/m 1,2 C 1,6 C 0,0 km/h (0 Bft) 98,00 %
01.11.2016 02:14 1,5 C 97 % 1026,1 hPa 0,0 l/m 0,0 km/h (0 Bft) O-SO 121 0 min 0,000 mm 0,0 UV-I 0 W/m 1,1 C 1,5 C 0,0 km/h (0 Bft) 100,00 %
01.11.2016 02:16 1,6 C 97 % 1026,0 hPa 0,0 l/m 1,1 km/h (1 Bft) O-SO 121 0 min 0,000 mm 0,0 UV-I 0 W/m 1,2 C 1,6 C 1,6 km/h (1 Bft) 100,00 %
01.11.2016 02:18 1,7 C 97 % 1026,0 hPa 0,0 l/m 1,6 km/h (1 Bft) O-SO 121 0 min 0,000 mm 0,0 UV-I 0 W/m 1,3 C 1,7 C 3,2 km/h (1 Bft) 100,00 %
01.11.2016 02:20 1,6 C 97 % 1026,0 hPa 0,0 l/m 1,7 km/h (1 Bft) O-SO 121 0 min 0,000 mm 0,0 UV-I 0 W/m 1,2 C 1,6 C 3,2 km/h (1 Bft) 100,00 %
01.11.2016 02:22 1,6 C 97 % 1026,0 hPa 0,0 l/m 1,5 km/h (1 Bft) O-SO 121 0 min 0,000 mm 0,0 UV-I 0 W/m 1,2 C 1,6 C 3,2 km/h (1 Bft) 100,00 %
01.11.2016 02:24 1,6 C 97 % 1026,0 hPa 0,0 l/m 0,5 km/h (0 Bft) O-SO 121 0 min 0,000 mm 0,0 UV-I 0 W/m 1,2 C 1,6 C 1,6 km/h (1 Bft) 100,00 %
01.11.2016 02:26 1,7 C 97 % 1026,0 hPa 0,0 l/m 0,9 km/h (0 Bft) O-SO 121 0 min 0,000 mm 0,0 UV-I 0 W/m 1,3 C 1,7 C 1,6 km/h (1 Bft) 100,00 %
01.11.2016 02:28 1,6 C 97 % 1026,0 hPa 0,0 l/m 1,8 km/h (1 Bft) O-SO 121 0 min 0,000 mm 0,0 UV-I 0 W/m 1,2 C 1,6 C 3,2 km/h (1 Bft) 100,00 %
01.11.2016 02:30 1,6 C 97 % 1025,9 hPa 0,0 l/m 2,4 km/h (1 Bft) O-SO 121 0 min 0,000 mm 0,0 UV-I 0 W/m 1,2 C 1,6 C 3,2 km/h (1 Bft) 100,00 %
01.11.2016 02:32 1,7 C 97 % 1025,9 hPa 0,0 l/m 2,8 km/h (1 Bft) O-SO 121 0 min 0,000 mm 0,0 UV-I 0 W/m 1,3 C 1,7 C 3,2 km/h (1 Bft) 97,56 %
01.11.2016 02:34 1,7 C 97 % 1025,8 hPa 0,0 l/m 1,9 km/h (1 Bft) O-SO 121 0 min 0,000 mm 0,0 UV-I 0 W/m 1,3 C 1,7 C 3,2 km/h (1 Bft) 100,00 %
01.11.2016 02:36 1,7 C 97 % 1025,8 hPa 0,0 l/m 0,2 km/h (0 Bft) O-SO 121 0 min 0,000 mm 0,0 UV-I 0 W/m 1,3 C 1,7 C 1,6 km/h (1 Bft) 100,00 %
01.11.2016 02:38 1,7 C 97 % 1025,8 hPa 0,0 l/m 0,0 km/h (0 Bft) O-SO 121 0 min 0,000 mm 0,0 UV-I 0 W/m 1,3 C 1,7 C 0,0 km/h (0 Bft) 97,87 %
01.11.2016 02:40 1,7 C 97 % 1025,8 hPa 0,0 l/m 0,5 km/h (0 Bft) O-SO 121 0 min 0,000 mm 0,0 UV-I 0 W/m 1,3 C 1,7 C 1,6 km/h (1 Bft) 100,00 %
01.11.2016 02:42 1,8 C 97 % 1025,8 hPa 0,0 l/m 1,1 km/h (1 Bft) O-SO 121 0 min 0,000 mm 0,0 UV-I 0 W/m 1,4 C 1,8 C 1,6 km/h (1 Bft) 100,00 %
01.11.2016 02:44 1,8 C 97 % 1025,8 hPa 0,0 l/m 0,4 km/h (0 Bft) O-SO 121 0 min 0,000 mm 0,0 UV-I 0 W/m 1,4 C 1,8 C 1,6 km/h (1 Bft) 97,87 %
01.11.2016 02:46 1,7 C 97 % 1025,7 hPa 0,0 l/m 0,0 km/h (0 Bft) O-SO 121 0 min 0,000 mm 0,0 UV-I 0 W/m 1,3 C 1,7 C 0,0 km/h (0 Bft) 100,00 %
01.11.2016 02:48 1,6 C 97 % 1025,6 hPa 0,0 l/m 0,0 km/h (0 Bft) O-SO 121 0 min 0,000 mm 0,0 UV-I 0 W/m 1,2 C 1,6 C 0,0 km/h (0 Bft) 100,00 %
01.11.2016 02:50 1,7 C 97 % 1025,7 hPa 0,0 l/m 0,4 km/h (0 Bft) O-SO 120 0 min 0,000 mm 0,0 UV-I 0 W/m 1,3 C 1,7 C 1,6 km/h (1 Bft) 100,00 %
01.11.2016 02:52 1,7 C 97 % 1025,7 hPa 0,0 l/m 1,8 km/h (1 Bft) O-SO 121 0 min 0,000 mm 0,0 UV-I 0 W/m 1,3 C 1,7 C 3,2 km/h (1 Bft) 97,87 %
01.11.2016 02:54 1,7 C 97 % 1025,7 hPa 0,0 l/m 2,2 km/h (1 Bft) O-SO 121 0 min 0,000 mm 0,0 UV-I 0 W/m 1,3 C 1,7 C 3,2 km/h (1 Bft) 98,11 %
01.11.2016 02:56 1,6 C 97 % 1025,7 hPa 0,0 l/m 1,9 km/h (1 Bft) O-SO 121 0 min 0,000 mm 0,0 UV-I 0 W/m 1,2 C 1,6 C 3,2 km/h (1 Bft) 98,00 %
01.11.2016 02:58 1,6 C 97 % 1025,7 hPa 0,0 l/m 1,4 km/h (1 Bft) O-SO 121 0 min 0,000 mm 0,0 UV-I 0 W/m 1,2 C 1,6 C 3,2 km/h (1 Bft) 95,83 %
01.11.2016 03:00 1,6 C 97 % 1025,7 hPa 0,0 l/m 0,2 km/h (0 Bft) O-SO 121 0 min 0,000 mm 0,0 UV-I 0 W/m 1,2 C 1,6 C 1,6 km/h (1 Bft) 95,52 %
01.11.2016 03:02 1,6 C 97 % 1025,7 hPa 0,0 l/m 0,8 km/h (0 Bft) O-SO 121 0 min 0,000 mm 0,0 UV-I 0 W/m 1,2 C 1,6 C 3,2 km/h (1 Bft) 97,87 %
01.11.2016 03:04 1,6 C 97 % 1025,8 hPa 0,0 l/m 0,9 km/h (0 Bft) O-SO 121 0 min 0,000 mm 0,0 UV-I 0 W/m 1,2 C 1,6 C 3,2 km/h (1 Bft) 97,87 %
01.11.2016 03:06 1,4 C 97 % 1025,7 hPa 0,0 l/m 0,0 km/h (0 Bft) O-SO 121 0 min 0,000 mm 0,0 UV-I 0 W/m 1,0 C 1,4 C 0,0 km/h (0 Bft) 98,00 %
01.11.2016 03:08 1,4 C 97 % 1025,7 hPa 0,0 l/m 0,0 km/h (0 Bft) O-SO 120 0 min 0,000 mm 0,0 UV-I 0 W/m 1,0 C 1,4 C 0,0 km/h (0 Bft) 92,31 %
01.11.2016 03:10 1,3 C 97 % 1025,7 hPa 0,0 l/m 0,0 km/h (0 Bft) O-SO 121 0 min 0,000 mm 0,0 UV-I 0 W/m 0,9 C 1,3 C 0,0 km/h (0 Bft) 95,74 %
01.11.2016 03:12 1,4 C 97 % 1025,7 hPa 0,0 l/m 0,0 km/h (0 Bft) O-SO 121 0 min 0,000 mm 0,0 UV-I 0 W/m 1,0 C 1,4 C 0,0 km/h (0 Bft) 97,87 %
01.11.2016 03:14 1,5 C 97 % 1025,6 hPa 0,0 l/m 0,0 km/h (0 Bft) O-SO 121 0 min 0,000 mm 0,0 UV-I 0 W/m 1,1 C 1,5 C 0,0 km/h (0 Bft) 96,23 %
01.11.2016 03:16 1,4 C 97 % 1025,5 hPa 0,0 l/m 0,2 km/h (0 Bft) O-SO 121 0 min 0,000 mm 0,0 UV-I 0 W/m 1,0 C 1,4 C 1,6 km/h (1 Bft) 100,00 %
01.11.2016 03:18 1,3 C 97 % 1025,5 hPa 0,0 l/m 0,6 km/h (0 Bft) O-SO 121 0 min 0,000 mm 0,0 UV-I 0 W/m 0,9 C 1,3 C 3,2 km/h (1 Bft) 96,00 %
01.11.2016 03:20 1,3 C 97 % 1025,5 hPa 0,0 l/m 1,0 km/h (0 Bft) O-SO 121 0 min 0,000 mm 0,0 UV-I 0 W/m 0,9 C 1,3 C 1,6 km/h (1 Bft) 98,00 %
01.11.2016 03:22 1,3 C 97 % 1025,4 hPa 0,0 l/m 1,1 km/h (1 Bft) O-SO 121 0 min 0,000 mm 0,0 UV-I 0 W/m 0,9 C 1,3 C 1,6 km/h (1 Bft) 98,00 %
01.11.2016 03:24 1,3 C 97 % 1025,4 hPa 0,0 l/m 0,9 km/h (0 Bft) O-SO 121 0 min 0,000 mm 0,0 UV-I 0 W/m 0,9 C 1,3 C 1,6 km/h (1 Bft) 97,87 %
01.11.2016 03:26 1,3 C 97 % 1025,4 hPa 0,0 l/m 0,7 km/h (0 Bft) O-SO 121 0 min 0,000 mm 0,0 UV-I 0 W/m 0,9 C 1,3 C 1,6 km/h (1 Bft) 97,87 %
01.11.2016 03:28 1,3 C 97 % 1025,3 hPa 0,0 l/m 0,6 km/h (0 Bft) O-SO 121 0 min 0,000 mm 0,0 UV-I 0 W/m 0,9 C 1,3 C 1,6 km/h (1 Bft) 97,73 %
01.11.2016 03:30 1,4 C 97 % 1025,3 hPa 0,0 l/m 1,7 km/h (1 Bft) O-SO 121 0 min 0,000 mm 0,0 UV-I 0 W/m 1,0 C 1,4 C 3,2 km/h (1 Bft) 97,56 %
01.11.2016 03:32 1,4 C 98 % 1025,3 hPa 0,0 l/m 1,1 km/h (1 Bft) O-SO 121 0 min 0,000 mm 0,0 UV-I 0 W/m 1,1 C 1,4 C 1,6 km/h (1 Bft) 100,00 %
01.11.2016 03:34 1,4 C 98 % 1025,3 hPa 0,0 l/m 0,5 km/h (0 Bft) O-SO 121 0 min 0,000 mm 0,0 UV-I 0 W/m 1,1 C 1,4 C 1,6 km/h (1 Bft) 98,00 %
01.11.2016 03:36 1,4 C 98 % 1025,3 hPa 0,0 l/m 0,4 km/h (0 Bft) O-SO 121 0 min 0,000 mm 0,0 UV-I 0 W/m 1,1 C 1,4 C 1,6 km/h (1 Bft) 100,00 %
01.11.2016 03:38 1,5 C 98 % 1025,4 hPa 0,0 l/m 0,7 km/h (0 Bft) O-SO 121 0 min 0,000 mm 0,0 UV-I 0 W/m 1,2 C 1,5 C 1,6 km/h (1 Bft) 100,00 %
01.11.2016 03:40 1,6 C 98 % 1025,4 hPa 0,0 l/m 1,2 km/h (1 Bft) O-SO 121 0 min 0,000 mm 0,0 UV-I 0 W/m 1,3 C 1,6 C 1,6 km/h (1 Bft) 100,00 %
01.11.2016 03:42 1,5 C 98 % 1025,3 hPa 0,0 l/m 0,7 km/h (0 Bft) O-SO 121 0 min 0,000 mm 0,0 UV-I 0 W/m 1,2 C 1,5 C 1,6 km/h (1 Bft) 100,00 %
01.11.2016 03:44 1,5 C 98 % 1025,3 hPa 0,0 l/m 0,6 km/h (0 Bft) O-SO 121 0 min 0,000 mm 0,0 UV-I 0 W/m 1,2 C 1,5 C 1,6 km/h (1 Bft) 100,00 %
01.11.2016 03:46 1,4 C 97 % 1025,3 hPa 0,0 l/m 1,0 km/h (0 Bft) O-SO 121 0 min 0,000 mm 0,0 UV-I 0 W/m 1,0 C 1,4 C 1,6 km/h (1 Bft) 100,00 %
01.11.2016 03:48 1,4 C 97 % 1025,3 hPa 0,0 l/m 1,1 km/h (1 Bft) O-SO 121 0 min 0,000 mm 0,0 UV-I 0 W/m 1,0 C 1,4 C 1,6 km/h (1 Bft) 100,00 %
01.11.2016 03:50 1,3 C 97 % 1025,3 hPa 0,0 l/m 1,1 km/h (1 Bft) O-SO 121 0 min 0,000 mm 0,0 UV-I 0 W/m 0,9 C 1,3 C 1,6 km/h (1 Bft) 100,00 %
01.11.2016 03:52 1,3 C 97 % 1025,3 hPa 0,0 l/m 1,6 km/h (1 Bft) O-SO 121 0 min 0,000 mm 0,0 UV-I 0 W/m 0,9 C 1,3 C 3,2 km/h (1 Bft) 100,00 %
01.11.2016 03:54 1,4 C 97 % 1025,3 hPa 0,0 l/m 1,3 km/h (1 Bft) O-SO 121 0 min 0,000 mm 0,0 UV-I 0 W/m 1,0 C 1,4 C 3,2 km/h (1 Bft) 100,00 %
01.11.2016 03:56 1,5 C 97 % 1025,2 hPa 0,0 l/m 1,5 km/h (1 Bft) O-SO 121 0 min 0,000 mm 0,0 UV-I 0 W/m 1,1 C 1,5 C 3,2 km/h (1 Bft) 100,00 %
01.11.2016 03:58 1,6 C 98 % 1025,1 hPa 0,0 l/m 1,9 km/h (1 Bft) O-SO 121 0 min 0,000 mm 0,0 UV-I 0 W/m 1,3 C 1,6 C 3,2 km/h (1 Bft) 97,73 %
01.11.2016 04:00 1,7 C 98 % 1025,2 hPa 0,0 l/m 2,1 km/h (1 Bft) O-SO 121 0 min 0,000 mm 0,0 UV-I 0 W/m 1,4 C 1,7 C 3,2 km/h (1 Bft) 100,00 %
01.11.2016 04:02 1,7 C 98 % 1025,1 hPa 0,0 l/m 2,6 km/h (1 Bft) O-SO 121 0 min 0,000 mm 0,0 UV-I 0 W/m 1,4 C 1,7 C 3,2 km/h (1 Bft) 100,00 %
01.11.2016 04:04 1,6 C 98 % 1025,2 hPa 0,0 l/m 1,7 km/h (1 Bft) O-SO 121 0 min 0,000 mm 0,0 UV-I 0 W/m 1,3 C 1,6 C 3,2 km/h (1 Bft) 97,87 %
01.11.2016 04:06 1,6 C 98 % 1025,2 hPa 0,0 l/m 1,4 km/h (1 Bft) O-SO 121 0 min 0,000 mm 0,0 UV-I 0 W/m 1,3 C 1,6 C 3,2 km/h (1 Bft) 97,37 %
01.11.2016 04:08 1,7 C 98 % 1025,2 hPa 0,0 l/m 1,1 km/h (1 Bft) O-SO 121 0 min 0,000 mm 0,0 UV-I 0 W/m 1,4 C 1,7 C 1,6 km/h (1 Bft) 100,00 %
01.11.2016 04:10 1,8 C 98 % 1025,1 hPa 0,0 l/m 0,6 km/h (0 Bft) O-SO 121 0 min 0,000 mm 0,0 UV-I 0 W/m 1,5 C 1,8 C 1,6 km/h (1 Bft) 100,00 %
01.11.2016 04:12 1,8 C 98 % 1025,1 hPa 0,0 l/m 0,5 km/h (0 Bft) O-SO 121 0 min 0,000 mm 0,0 UV-I 0 W/m 1,5 C 1,8 C 1,6 km/h (1 Bft) 100,00 %
01.11.2016 04:14 1,8 C 98 % 1025,1 hPa 0,0 l/m 1,1 km/h (1 Bft) O-SO 121 0 min 0,000 mm 0,0 UV-I 0 W/m 1,5 C 1,8 C 1,6 km/h (1 Bft) 98,11 %
01.11.2016 04:16 1,7 C 97 % 1025,1 hPa 0,0 l/m 0,2 km/h (0 Bft) O-SO 121 0 min 0,000 mm 0,0 UV-I 0 W/m 1,3 C 1,7 C 1,6 km/h (1 Bft) 100,00 %
01.11.2016 04:18 1,6 C 97 % 1025,1 hPa 0,0 l/m 1,1 km/h (1 Bft) O-SO 121 0 min 0,000 mm 0,0 UV-I 0 W/m 1,2 C 1,6 C 1,6 km/h (1 Bft) 100,00 %
01.11.2016 04:20 1,4 C 97 % 1025,0 hPa 0,0 l/m 1,4 km/h (1 Bft) O-SO 121 0 min 0,000 mm 0,0 UV-I 0 W/m 1,0 C 1,4 C 1,6 km/h (1 Bft) 100,00 %
01.11.2016 04:22 1,3 C 97 % 1025,0 hPa 0,0 l/m 1,4 km/h (1 Bft) O-SO 121 0 min 0,000 mm 0,0 UV-I 0 W/m 0,9 C 1,3 C 1,6 km/h (1 Bft) 97,14 %
01.11.2016 04:24 1,3 C 97 % 1025,0 hPa 0,0 l/m 0,9 km/h (0 Bft) O-SO 121 0 min 0,000 mm 0,0 UV-I 0 W/m 0,9 C 1,3 C 1,6 km/h (1 Bft) 100,00 %
01.11.2016 04:26 1,2 C 97 % 1025,0 hPa 0,0 l/m 0,8 km/h (0 Bft) O-SO 121 0 min 0,000 mm 0,0 UV-I 0 W/m 0,8 C 1,2 C 1,6 km/h (1 Bft) 100,00 %
01.11.2016 04:28 1,2 C 97 % 1025,0 hPa 0,0 l/m 0,8 km/h (0 Bft) O-SO 121 0 min 0,000 mm 0,0 UV-I 0 W/m 0,8 C 1,2 C 1,6 km/h (1 Bft) 100,00 %
01.11.2016 04:30 1,2 C 97 % 1024,9 hPa 0,0 l/m 1,3 km/h (1 Bft) O-SO 121 0 min 0,000 mm 0,0 UV-I 0 W/m 0,8 C 1,2 C 3,2 km/h (1 Bft) 95,24 %
01.11.2016 04:32 1,2 C 97 % 1025,0 hPa 0,0 l/m 1,8 km/h (1 Bft) O-SO 121 0 min 0,000 mm 0,0 UV-I 0 W/m 0,8 C 1,2 C 3,2 km/h (1 Bft) 100,00 %
01.11.2016 04:34 1,2 C 97 % 1024,9 hPa 0,0 l/m 1,8 km/h (1 Bft) O-SO 121 0 min 0,000 mm 0,0 UV-I 0 W/m 0,8 C 1,2 C 3,2 km/h (1 Bft) 100,00 %
01.11.2016 04:36 1,2 C 97 % 1024,9 hPa 0,0 l/m 1,3 km/h (1 Bft) O-SO 121 0 min 0,000 mm 0,0 UV-I 0 W/m 0,8 C 1,2 C 3,2 km/h (1 Bft) 100,00 %
01.11.2016 04:38 1,2 C 97 % 1024,9 hPa 0,0 l/m 1,3 km/h (1 Bft) O-SO 121 0 min 0,000 mm 0,0 UV-I 0 W/m 0,8 C 1,2 C 1,6 km/h (1 Bft) 97,87 %
01.11.2016 04:40 1,1 C 97 % 1024,9 hPa 0,0 l/m 1,2 km/h (1 Bft) O-SO 121 0 min 0,000 mm 0,0 UV-I 0 W/m 0,7 C 1,1 C 1,6 km/h (1 Bft) 100,00 %
01.11.2016 04:42 1,1 C 97 % 1024,9 hPa 0,0 l/m 0,8 km/h (0 Bft) O-SO 121 0 min 0,000 mm 0,0 UV-I 0 W/m 0,7 C 1,1 C 1,6 km/h (1 Bft) 100,00 %
01.11.2016 04:44 1,1 C 97 % 1024,8 hPa 0,0 l/m 1,3 km/h (1 Bft) O-SO 121 0 min 0,000 mm 0,0 UV-I 0 W/m 0,7 C 1,1 C 1,6 km/h (1 Bft) 100,00 %
01.11.2016 04:46 1,1 C 97 % 1024,8 hPa 0,0 l/m 1,5 km/h (1 Bft) O-SO 121 0 min 0,000 mm 0,0 UV-I 0 W/m 0,7 C 1,1 C 1,6 km/h (1 Bft) 100,00 %
01.11.2016 04:48 1,0 C 97 % 1024,8 hPa 0,0 l/m 0,0 km/h (0 Bft) O-SO 121 0 min 0,000 mm 0,0 UV-I 0 W/m 0,6 C 1,0 C 1,6 km/h (1 Bft) 100,00 %
01.11.2016 04:50 0,9 C 97 % 1024,8 hPa 0,0 l/m 0,0 km/h (0 Bft) O-SO 121 0 min 0,000 mm 0,0 UV-I 0 W/m 0,5 C 0,9 C 0,0 km/h (0 Bft) 100,00 %
01.11.2016 04:52 0,9 C 97 % 1024,7 hPa 0,0 l/m 0,0 km/h (0 Bft) O-SO 121 0 min 0,000 mm 0,0 UV-I 0 W/m 0,5 C 0,9 C 0,0 km/h (0 Bft) 100,00 %
01.11.2016 04:54 1,0 C 97 % 1024,8 hPa 0,0 l/m 0,0 km/h (0 Bft) O-SO 121 0 min 0,000 mm 0,0 UV-I 0 W/m 0,6 C 1,0 C 0,0 km/h (0 Bft) 98,11 %
01.11.2016 04:56 1,0 C 97 % 1024,8 hPa 0,0 l/m 0,0 km/h (0 Bft) O-SO 121 0 min 0,000 mm 0,0 UV-I 0 W/m 0,6 C 1,0 C 0,0 km/h (0 Bft) 96,00 %
01.11.2016 04:58 1,1 C 97 % 1024,7 hPa 0,0 l/m 0,0 km/h (0 Bft) O-SO 121 0 min 0,000 mm 0,0 UV-I 0 W/m 0,7 C 1,1 C 0,0 km/h (0 Bft) 97,87 %
01.11.2016 05:00 1,2 C 97 % 1024,7 hPa 0,0 l/m 0,0 km/h (0 Bft) O-SO 121 0 min 0,000 mm 0,0 UV-I 0 W/m 0,8 C 1,2 C 0,0 km/h (0 Bft) 97,87 %
01.11.2016 05:02 1,2 C 98 % 1024,7 hPa 0,0 l/m 0,0 km/h (0 Bft) O-SO 121 0 min 0,000 mm 0,0 UV-I 0 W/m 0,9 C 1,2 C 0,0 km/h (0 Bft) 94,74 %
01.11.2016 05:04 1,2 C 98 % 1024,6 hPa 0,0 l/m 0,0 km/h (0 Bft) O-SO 121 0 min 0,000 mm 0,0 UV-I 0 W/m 0,9 C 1,2 C 0,0 km/h (0 Bft) 97,87 %
01.11.2016 05:06 1,1 C 97 % 1024,6 hPa 0,0 l/m 0,0 km/h (0 Bft) O-SO 121 0 min 0,000 mm 0,0 UV-I 0 W/m 0,7 C 1,1 C 0,0 km/h (0 Bft) 98,00 %
01.11.2016 05:08 1,1 C 97 % 1024,6 hPa 0,0 l/m 0,1 km/h (0 Bft) O-SO 121 0 min 0,000 mm 0,0 UV-I 0 W/m 0,7 C 1,1 C 1,6 km/h (1 Bft) 96,00 %
01.11.2016 05:10 1,1 C 97 % 1024,6 hPa 0,0 l/m 1,0 km/h (0 Bft) O-SO 121 0 min 0,000 mm 0,0 UV-I 0 W/m 0,7 C 1,1 C 1,6 km/h (1 Bft) 97,73 %
01.11.2016 05:12 1,1 C 97 % 1024,6 hPa 0,0 l/m 0,9 km/h (0 Bft) O-SO 121 0 min 0,000 mm 0,0 UV-I 0 W/m 0,7 C 1,1 C 1,6 km/h (1 Bft) 97,37 %
01.11.2016 05:14 0,9 C 97 % 1024,6 hPa 0,0 l/m 0,5 km/h (0 Bft) O-SO 121 0 min 0,000 mm 0,0 UV-I 0 W/m 0,5 C 0,9 C 1,6 km/h (1 Bft) 98,00 %
01.11.2016 05:16 0,9 C 97 % 1024,6 hPa 0,0 l/m 0,4 km/h (0 Bft) O-SO 121 0 min 0,000 mm 0,0 UV-I 0 W/m 0,5 C 0,9 C 1,6 km/h (1 Bft) 97,87 %
01.11.2016 05:18 0,9 C 97 % 1024,6 hPa 0,0 l/m 0,0 km/h (0 Bft) O-SO 121 0 min 0,000 mm 0,0 UV-I 0 W/m 0,5 C 0,9 C 0,0 km/h (0 Bft) 97,87 %
01.11.2016 05:20 0,8 C 97 % 1024,6 hPa 0,0 l/m 0,0 km/h (0 Bft) O-SO 121 0 min 0,000 mm 0,0 UV-I 0 W/m 0,4 C 0,8 C 0,0 km/h (0 Bft) 96,00 %
01.11.2016 05:22 0,9 C 97 % 1024,5 hPa 0,0 l/m 0,0 km/h (0 Bft) O-SO 121 0 min 0,000 mm 0,0 UV-I 0 W/m 0,5 C 0,9 C 0,0 km/h (0 Bft) 95,74 %
01.11.2016 05:24 1,0 C 97 % 1024,5 hPa 0,0 l/m 0,0 km/h (0 Bft) O-SO 121 0 min 0,000 mm 0,0 UV-I 0 W/m 0,6 C 1,0 C 0,0 km/h (0 Bft) 98,00 %
01.11.2016 05:26 1,1 C 97 % 1024,4 hPa 0,0 l/m 0,0 km/h (0 Bft) O-SO 121 0 min 0,000 mm 0,0 UV-I 0 W/m 0,7 C 1,1 C 0,0 km/h (0 Bft) 98,00 %
01.11.2016 05:28 1,1 C 97 % 1024,4 hPa 0,0 l/m 0,0 km/h (0 Bft) O-SO 121 0 min 0,000 mm 0,0 UV-I 0 W/m 0,7 C 1,1 C 0,0 km/h (0 Bft) 97,37 %
01.11.2016 05:30 1,2 C 97 % 1024,5 hPa 0,0 l/m 0,0 km/h (0 Bft) O-SO 121 0 min 0,000 mm 0,0 UV-I 0 W/m 0,8 C 1,2 C 0,0 km/h (0 Bft) 98,00 %
01.11.2016 05:32 1,2 C 98 % 1024,4 hPa 0,0 l/m 0,0 km/h (0 Bft) O-SO 121 0 min 0,000 mm 0,0 UV-I 0 W/m 0,9 C 1,2 C 0,0 km/h (0 Bft) 98,00 %
01.11.2016 05:34 1,2 C 98 % 1024,4 hPa 0,0 l/m 0,0 km/h (0 Bft) O-SO 121 0 min 0,000 mm 0,0 UV-I 0 W/m 0,9 C 1,2 C 0,0 km/h (0 Bft) 96,00 %
01.11.2016 05:36 1,2 C 97 % 1024,4 hPa 0,0 l/m 0,0 km/h (0 Bft) O-SO 121 0 min 0,000 mm 0,0 UV-I 0 W/m 0,8 C 1,2 C 0,0 km/h (0 Bft) 97,37 %
01.11.2016 05:38 1,2 C 97 % 1024,4 hPa 0,0 l/m 0,0 km/h (0 Bft) O-SO 121 0 min 0,000 mm 0,0 UV-I 0 W/m 0,8 C 1,2 C 0,0 km/h (0 Bft) 98,11 %
01.11.2016 05:40 1,1 C 97 % 1024,5 hPa 0,0 l/m 0,0 km/h (0 Bft) O-SO 121 0 min 0,000 mm 0,0 UV-I 0 W/m 0,7 C 1,1 C 0,0 km/h (0 Bft) 95,74 %
01.11.2016 05:42 1,0 C 97 % 1024,5 hPa 0,0 l/m 0,0 km/h (0 Bft) O-SO 121 0 min 0,000 mm 0,0 UV-I 0 W/m 0,6 C 1,0 C 0,0 km/h (0 Bft) 97,87 %
01.11.2016 05:44 1,1 C 97 % 1024,5 hPa 0,0 l/m 0,0 km/h (0 Bft) O-SO 121 0 min 0,000 mm 0,0 UV-I 0 W/m 0,7 C 1,1 C 0,0 km/h (0 Bft) 100,00 %
01.11.2016 05:46 1,0 C 97 % 1024,5 hPa 0,0 l/m 0,0 km/h (0 Bft) O-SO 121 0 min 0,000 mm 0,0 UV-I 0 W/m 0,6 C 1,0 C 0,0 km/h (0 Bft) 100,00 %
01.11.2016 05:48 0,9 C 97 % 1024,5 hPa 0,0 l/m 0,1 km/h (0 Bft) O-SO 121 0 min 0,000 mm 0,0 UV-I 0 W/m 0,5 C 0,9 C 1,6 km/h (1 Bft) 100,00 %
01.11.2016 05:50 0,8 C 97 % 1024,5 hPa 0,0 l/m 1,0 km/h (0 Bft) O-SO 121 0 min 0,000 mm 0,0 UV-I 0 W/m 0,4 C 0,8 C 3,2 km/h (1 Bft) 97,44 %
01.11.2016 05:52 0,7 C 97 % 1024,5 hPa 0,0 l/m 1,9 km/h (1 Bft) O-SO 121 0 min 0,000 mm 0,0 UV-I 0 W/m 0,3 C 0,7 C 3,2 km/h (1 Bft) 100,00 %
01.11.2016 05:54 0,7 C 97 % 1024,5 hPa 0,0 l/m 1,6 km/h (1 Bft) O-SO 121 0 min 0,000 mm 0,0 UV-I 0 W/m 0,3 C 0,7 C 3,2 km/h (1 Bft) 100,00 %
01.11.2016 05:56 0,8 C 97 % 1024,5 hPa 0,0 l/m 0,7 km/h (0 Bft) O-SO 121 0 min 0,000 mm 0,0 UV-I 0 W/m 0,4 C 0,8 C 1,6 km/h (1 Bft) 100,00 %
01.11.2016 05:58 0,8 C 97 % 1024,5 hPa 0,0 l/m 1,4 km/h (1 Bft) O-SO 121 0 min 0,000 mm 0,0 UV-I 0 W/m 0,4 C 0,8 C 1,6 km/h (1 Bft) 100,00 %
01.11.2016 06:00 0,9 C 98 % 1024,5 hPa 0,0 l/m 1,6 km/h (1 Bft) O-SO 121 0 min 0,000 mm 0,0 UV-I 0 W/m 0,6 C 0,9 C 3,2 km/h (1 Bft) 100,00 %
01.11.2016 06:03 1,1 C 98 % 1024,5 hPa 0,0 l/m 1,6 km/h (1 Bft) O-SO 121 0 min 0,000 mm 0,0 UV-I 0 W/m 0,8 C 1,1 C 3,2 km/h (1 Bft) 98,57 %
01.11.2016 06:04 1,1 C 97 % 1024,5 hPa 0,0 l/m 1,1 km/h (1 Bft) O-SO 121 0 min 0,000 mm 0,0 UV-I 0 W/m 0,7 C 1,1 C 1,6 km/h (1 Bft) 100,00 %
01.11.2016 06:06 1,2 C 98 % 1024,5 hPa 0,0 l/m 0,5 km/h (0 Bft) O-SO 121 0 min 0,000 mm 0,0 UV-I 0 W/m 0,9 C 1,2 C 1,6 km/h (1 Bft) 100,00 %
01.11.2016 06:08 1,2 C 98 % 1024,5 hPa 0,0 l/m 0,0 km/h (0 Bft) O-SO 121 0 min 0,000 mm 0,0 UV-I 0 W/m 0,9 C 1,2 C 0,0 km/h (0 Bft) 100,00 %
01.11.2016 06:10 1,2 C 98 % 1024,5 hPa 0,0 l/m 0,0 km/h (0 Bft) O-SO 121 0 min 0,000 mm 0,0 UV-I 0 W/m 0,9 C 1,2 C 0,0 km/h (0 Bft) 98,00 %
01.11.2016 06:12 1,1 C 97 % 1024,6 hPa 0,0 l/m 0,0 km/h (0 Bft) O-SO 121 0 min 0,000 mm 0,0 UV-I 0 W/m 0,7 C 1,1 C 0,0 km/h (0 Bft) 100,00 %
01.11.2016 06:14 1,0 C 97 % 1024,5 hPa 0,0 l/m 0,0 km/h (0 Bft) O-SO 121 0 min 0,000 mm 0,0 UV-I 0 W/m 0,6 C 1,0 C 0,0 km/h (0 Bft) 100,00 %
01.11.2016 06:16 1,0 C 97 % 1024,5 hPa 0,0 l/m 0,0 km/h (0 Bft) O-SO 121 0 min 0,000 mm 0,0 UV-I 0 W/m 0,6 C 1,0 C 0,0 km/h (0 Bft) 100,00 %
01.11.2016 06:18 1,0 C 97 % 1024,5 hPa 0,0 l/m 0,0 km/h (0 Bft) O-SO 121 0 min 0,000 mm 0,0 UV-I 0 W/m 0,6 C 1,0 C 0,0 km/h (0 Bft) 100,00 %
01.11.2016 06:20 1,0 C 97 % 1024,6 hPa 0,0 l/m 0,0 km/h (0 Bft) O-SO 121 0 min 0,000 mm 0,0 UV-I 0 W/m 0,6 C 1,0 C 0,0 km/h (0 Bft) 100,00 %
01.11.2016 06:22 0,9 C 98 % 1024,6 hPa 0,0 l/m 1,0 km/h (0 Bft) O-SO 121 0 min 0,000 mm 0,0 UV-I 0 W/m 0,6 C 0,9 C 1,6 km/h (1 Bft) 100,00 %
01.11.2016 06:24 1,0 C 98 % 1024,6 hPa 0,0 l/m 0,8 km/h (0 Bft) O-SO 121 0 min 0,000 mm 0,0 UV-I 0 W/m 0,7 C 1,0 C 1,6 km/h (1 Bft) 100,00 %
01.11.2016 06:26 1,0 C 97 % 1024,6 hPa 0,0 l/m 0,0 km/h (0 Bft) O-SO 121 0 min 0,000 mm 0,0 UV-I 0 W/m 0,6 C 1,0 C 0,0 km/h (0 Bft) 100,00 %
01.11.2016 06:28 0,9 C 98 % 1024,6 hPa 0,0 l/m 0,0 km/h (0 Bft) O-SO 121 0 min 0,000 mm 0,0 UV-I 0 W/m 0,6 C 0,9 C 0,0 km/h (0 Bft) 100,00 %
01.11.2016 06:30 0,9 C 98 % 1024,6 hPa 0,0 l/m 0,0 km/h (0 Bft) O-SO 121 0 min 0,000 mm 0,0 UV-I 0 W/m 0,6 C 0,9 C 0,0 km/h (0 Bft) 100,00 %
01.11.2016 06:32 0,8 C 98 % 1024,6 hPa 0,0 l/m 0,4 km/h (0 Bft) O-SO 121 0 min 0,000 mm 0,0 UV-I 0 W/m 0,5 C 0,8 C 1,6 km/h (1 Bft) 100,00 %
01.11.2016 06:34 0,8 C 97 % 1024,5 hPa 0,0 l/m 1,3 km/h (1 Bft) O-SO 121 0 min 0,000 mm 0,0 UV-I 0 W/m 0,4 C 0,8 C 1,6 km/h (1 Bft) 100,00 %
01.11.2016 06:36 0,8 C 97 % 1024,5 hPa 0,0 l/m 0,0 km/h (0 Bft) O-SO 121 0 min 0,000 mm 0,0 UV-I 4 W/m 0,4 C 0,8 C 1,6 km/h (1 Bft) 100,00 %
01.11.2016 06:38 0,8 C 97 % 1024,6 hPa 0,0 l/m 0,2 km/h (0 Bft) O-SO 121 0 min 0,000 mm 0,0 UV-I 5 W/m 0,4 C 0,8 C 1,6 km/h (1 Bft) 100,00 %
01.11.2016 06:40 0,7 C 98 % 1024,5 hPa 0,0 l/m 0,2 km/h (0 Bft) O-SO 121 0 min 0,000 mm 0,0 UV-I 5 W/m 0,4 C 0,7 C 1,6 km/h (1 Bft) 98,11 %
01.11.2016 06:42 0,7 C 98 % 1024,5 hPa 0,0 l/m 0,2 km/h (0 Bft) O-SO 121 0 min 0,000 mm 0,0 UV-I 5 W/m 0,4 C 0,7 C 1,6 km/h (1 Bft) 100,00 %
01.11.2016 06:44 0,7 C 98 % 1024,5 hPa 0,0 l/m 0,0 km/h (0 Bft) O-SO 121 0 min 0,000 mm 0,0 UV-I 5 W/m 0,4 C 0,7 C 0,0 km/h (0 Bft) 100,00 %
01.11.2016 06:46 0,7 C 98 % 1024,5 hPa 0,0 l/m 0,4 km/h (0 Bft) O-SO 121 0 min 0,000 mm 0,0 UV-I 6 W/m 0,4 C 0,7 C 1,6 km/h (1 Bft) 94,74 %
01.11.2016 06:48 0,7 C 98 % 1024,5 hPa 0,0 l/m 0,3 km/h (0 Bft) O-SO 121 0 min 0,000 mm 0,0 UV-I 7 W/m 0,4 C 0,7 C 1,6 km/h (1 Bft) 100,00 %
01.11.2016 06:50 0,7 C 98 % 1024,5 hPa 0,0 l/m 0,7 km/h (0 Bft) O-SO 121 0 min 0,000 mm 0,0 UV-I 7 W/m 0,4 C 0,7 C 1,6 km/h (1 Bft) 100,00 %
01.11.2016 06:52 0,6 C 98 % 1024,5 hPa 0,0 l/m 0,1 km/h (0 Bft) O-SO 121 0 min 0,000 mm 0,0 UV-I 7 W/m 0,3 C 0,6 C 1,6 km/h (1 Bft) 100,00 %
01.11.2016 06:54 0,6 C 97 % 1024,6 hPa 0,0 l/m 0,0 km/h (0 Bft) O-SO 121 0 min 0,000 mm 0,0 UV-I 8 W/m 0,2 C 0,6 C 0,0 km/h (0 Bft) 97,56 %
01.11.2016 06:56 0,5 C 97 % 1024,7 hPa 0,0 l/m 0,0 km/h (0 Bft) O-SO 121 0 min 0,000 mm 0,0 UV-I 9 W/m 0,1 C 0,5 C 0,0 km/h (0 Bft) 100,00 %
01.11.2016 06:58 0,4 C 97 % 1024,7 hPa 0,0 l/m 0,0 km/h (0 Bft) O-SO 121 0 min 0,000 mm 0,0 UV-I 11 W/m -0,0 C 0,4 C 0,0 km/h (0 Bft) 100,00 %
01.11.2016 07:00 0,4 C 98 % 1024,7 hPa 0,0 l/m 0,0 km/h (0 Bft) O-SO 121 0 min 0,000 mm 0,0 UV-I 12 W/m 0,1 C 0,4 C 0,0 km/h (0 Bft) 100,00 %
01.11.2016 07:02 0,4 C 98 % 1024,7 hPa 0,0 l/m 0,0 km/h (0 Bft) O-SO 121 2 min 0,000 mm 0,0 UV-I 13 W/m 0,1 C 0,4 C 0,0 km/h (0 Bft) 100,00 %
01.11.2016 07:04 0,4 C 98 % 1024,6 hPa 0,0 l/m 0,3 km/h (0 Bft) O-SO 121 2 min 0,000 mm 0,0 UV-I 14 W/m 0,1 C 0,4 C 1,6 km/h (1 Bft) 100,00 %
01.11.2016 07:06 0,3 C 98 % 1024,6 hPa 0,0 l/m 1,2 km/h (1 Bft) O-SO 121 0 min 0,000 mm 0,0 UV-I 14 W/m 0,0 C 0,3 C 1,6 km/h (1 Bft) 100,00 %
01.11.2016 07:08 0,3 C 98 % 1024,6 hPa 0,0 l/m 2,2 km/h (1 Bft) O-SO 121 0 min 0,000 mm 0,0 UV-I 14 W/m 0,0 C 0,3 C 3,2 km/h (1 Bft) 100,00 %
01.11.2016 07:10 0,3 C 98 % 1024,7 hPa 0,0 l/m 3,2 km/h (1 Bft) O-SO 121 0 min 0,000 mm 0,0 UV-I 16 W/m 0,0 C 0,3 C 4,8 km/h (1 Bft) 100,00 %
01.11.2016 07:12 0,2 C 98 % 1024,7 hPa 0,0 l/m 2,9 km/h (1 Bft) O-SO 121 0 min 0,000 mm 0,0 UV-I 17 W/m -0,1 C 0,2 C 4,8 km/h (1 Bft) 100,00 %
01.11.2016 07:14 0,2 C 98 % 1024,8 hPa 0,0 l/m 2,4 km/h (1 Bft) O-SO 121 0 min 0,000 mm 0,0 UV-I 18 W/m -0,1 C 0,2 C 3,2 km/h (1 Bft) 100,00 %
01.11.2016 07:16 0,2 C 98 % 1024,8 hPa 0,0 l/m 1,6 km/h (1 Bft) O-SO 121 0 min 0,000 mm 0,0 UV-I 20 W/m -0,1 C 0,2 C 3,2 km/h (1 Bft) 100,00 %
01.11.2016 07:18 0,2 C 98 % 1024,8 hPa 0,0 l/m 1,2 km/h (1 Bft) O-SO 121 0 min 0,000 mm 0,0 UV-I 26 W/m -0,1 C 0,2 C 1,6 km/h (1 Bft) 100,00 %
01.11.2016 07:20 0,2 C 98 % 1024,8 hPa 0,0 l/m 0,0 km/h (0 Bft) O-SO 121 0 min 0,000 mm 0,0 UV-I 27 W/m -0,1 C 0,2 C 1,6 km/h (1 Bft) 93,62 %
01.11.2016 07:22 0,2 C 98 % 1024,8 hPa 0,0 l/m 0,0 km/h (0 Bft) O-SO 121 0 min 0,000 mm 0,0 UV-I 28 W/m -0,1 C 0,2 C 0,0 km/h (0 Bft) 97,62 %
01.11.2016 07:24 0,2 C 98 % 1024,8 hPa 0,0 l/m 0,0 km/h (0 Bft) O-SO 121 0 min 0,000 mm 0,0 UV-I 38 W/m -0,1 C 0,2 C 0,0 km/h (0 Bft) 98,21 %
01.11.2016 07:26 0,2 C 98 % 1024,7 hPa 0,0 l/m 0,0 km/h (0 Bft) O-SO 121 0 min 0,000 mm 0,0 UV-I 42 W/m -0,1 C 0,2 C 0,0 km/h (0 Bft) 95,83 %
01.11.2016 07:28 0,2 C 98 % 1024,8 hPa 0,0 l/m 0,0 km/h (0 Bft) O-SO 121 0 min 0,000 mm 0,0 UV-I 37 W/m -0,1 C 0,2 C 0,0 km/h (0 Bft) 93,62 %
01.11.2016 07:30 0,3 C 98 % 1024,8 hPa 0,0 l/m 0,0 km/h (0 Bft) O-SO 121 0 min 0,000 mm 0,0 UV-I 29 W/m 0,0 C 0,3 C 0,0 km/h (0 Bft) 97,87 %
01.11.2016 07:32 0,3 C 98 % 1024,7 hPa 0,0 l/m 0,0 km/h (0 Bft) O-SO 121 0 min 0,000 mm 0,0 UV-I 32 W/m 0,0 C 0,3 C 1,6 km/h (1 Bft) 97,56 %
01.11.2016 07:34 0,4 C 98 % 1024,7 hPa 0,0 l/m 0,4 km/h (0 Bft) O-SO 121 0 min 0,000 mm 0,0 UV-I 39 W/m 0,1 C 0,4 C 1,6 km/h (1 Bft) 98,11 %
01.11.2016 07:36 0,4 C 98 % 1024,7 hPa 0,0 l/m 0,4 km/h (0 Bft) O-SO 121 0 min 0,000 mm 0,0 UV-I 45 W/m 0,1 C 0,4 C 1,6 km/h (1 Bft) 96,00 %
01.11.2016 07:38 0,5 C 98 % 1024,7 hPa 0,0 l/m 1,1 km/h (1 Bft) O-SO 121 0 min 0,000 mm 0,0 UV-I 46 W/m 0,2 C 0,5 C 1,6 km/h (1 Bft) 97,73 %
01.11.2016 07:40 0,5 C 98 % 1024,7 hPa 0,0 l/m 0,4 km/h (0 Bft) O-SO 121 0 min 0,000 mm 0,0 UV-I 55 W/m 0,2 C 0,5 C 1,6 km/h (1 Bft) 97,37 %
01.11.2016 07:42 0,6 C 98 % 1024,7 hPa 0,0 l/m 0,0 km/h (0 Bft) O-SO 121 0 min 0,000 mm 0,0 UV-I 58 W/m 0,3 C 0,6 C 1,6 km/h (1 Bft) 94,00 %
01.11.2016 07:44 0,6 C 98 % 1024,7 hPa 0,0 l/m 0,0 km/h (0 Bft) O-SO 121 2 min 0,000 mm 0,0 UV-I 77 W/m 0,3 C 0,6 C 0,0 km/h (0 Bft) 95,74 %
01.11.2016 07:46 0,6 C 98 % 1024,7 hPa 0,0 l/m 0,0 km/h (0 Bft) O-SO 121 2 min 0,000 mm 0,0 UV-I 86 W/m 0,3 C 0,6 C 0,0 km/h (0 Bft) 98,00 %
01.11.2016 07:48 0,7 C 98 % 1024,7 hPa 0,0 l/m 0,0 km/h (0 Bft) O-SO 121 2 min 0,000 mm 0,0 UV-I 83 W/m 0,4 C 0,7 C 0,0 km/h (0 Bft) 97,87 %
01.11.2016 07:50 0,7 C 98 % 1024,7 hPa 0,0 l/m 0,0 km/h (0 Bft) O-SO 121 2 min 0,000 mm 0,0 UV-I 81 W/m 0,4 C 0,7 C 0,0 km/h (0 Bft) 97,44 %
01.11.2016 07:52 0,8 C 98 % 1024,7 hPa 0,0 l/m 0,0 km/h (0 Bft) O-SO 121 0 min 0,000 mm 0,0 UV-I 74 W/m 0,5 C 0,8 C 0,0 km/h (0 Bft) 98,11 %
01.11.2016 07:54 0,8 C 98 % 1024,8 hPa 0,0 l/m 0,0 km/h (0 Bft) O-SO 121 0 min 0,000 mm 0,0 UV-I 64 W/m 0,5 C 0,8 C 0,0 km/h (0 Bft) 96,00 %
01.11.2016 07:56 0,8 C 98 % 1024,8 hPa 0,0 l/m 0,0 km/h (0 Bft) O-SO 121 0 min 0,000 mm 0,0 UV-I 45 W/m 0,5 C 0,8 C 0,0 km/h (0 Bft) 100,00 %
01.11.2016 07:58 0,8 C 98 % 1024,7 hPa 0,0 l/m 0,0 km/h (0 Bft) O-SO 121 0 min 0,000 mm 0,0 UV-I 44 W/m 0,5 C 0,8 C 1,6 km/h (1 Bft) 100,00 %
01.11.2016 08:00 0,8 C 98 % 1024,7 hPa 0,0 l/m 0,8 km/h (0 Bft) O-SO 121 0 min 0,000 mm 0,0 UV-I 54 W/m 0,5 C 0,8 C 1,6 km/h (1 Bft) 100,00 %
01.11.2016 08:02 0,9 C 98 % 1024,8 hPa 0,0 l/m 0,0 km/h (0 Bft) O-SO 121 0 min 0,025 mm 0,0 UV-I 55 W/m 0,6 C 0,9 C 1,6 km/h (1 Bft) 100,00 %
01.11.2016 08:04 0,9 C 98 % 1024,8 hPa 0,0 l/m 0,4 km/h (0 Bft) O-SO 121 0 min 0,000 mm 0,0 UV-I 62 W/m 0,6 C 0,9 C 1,6 km/h (1 Bft) 97,56 %
01.11.2016 08:06 1,0 C 98 % 1024,7 hPa 0,0 l/m 0,6 km/h (0 Bft) O-SO 121 0 min 0,000 mm 0,0 UV-I 64 W/m 0,7 C 1,0 C 1,6 km/h (1 Bft) 100,00 %
01.11.2016 08:08 1,1 C 98 % 1024,7 hPa 0,0 l/m 0,9 km/h (0 Bft) O-SO 121 0 min 0,000 mm 0,0 UV-I 84 W/m 0,8 C 1,1 C 1,6 km/h (1 Bft) 100,00 %
01.11.2016 08:10 1,1 C 98 % 1024,7 hPa 0,0 l/m 0,1 km/h (0 Bft) O-SO 121 0 min 0,000 mm 0,0 UV-I 80 W/m 0,8 C 1,1 C 1,6 km/h (1 Bft) 100,00 %
01.11.2016 08:12 1,2 C 98 % 1024,7 hPa 0,0 l/m 0,0 km/h (0 Bft) O-SO 121 0 min 0,000 mm 0,0 UV-I 58 W/m 0,9 C 1,2 C 0,0 km/h (0 Bft) 98,00 %
01.11.2016 08:14 1,2 C 98 % 1024,7 hPa 0,0 l/m 0,0 km/h (0 Bft) O-SO 121 0 min 0,000 mm 0,0 UV-I 94 W/m 0,9 C 1,2 C 0,0 km/h (0 Bft) 100,00 %
01.11.2016 08:16 1,3 C 98 % 1024,6 hPa 0,0 l/m 0,0 km/h (0 Bft) O-SO 121 2 min 0,000 mm 0,0 UV-I 118 W/m 1,0 C 1,3 C 0,0 km/h (0 Bft) 100,00 %
01.11.2016 08:18 1,4 C 98 % 1024,6 hPa 0,0 l/m 0,0 km/h (0 Bft) O-SO 121 2 min 0,000 mm 0,0 UV-I 128 W/m 1,1 C 1,4 C 0,0 km/h (0 Bft) 100,00 %
01.11.2016 08:20 1,4 C 98 % 1024,6 hPa 0,0 l/m 0,0 km/h (0 Bft) O-SO 121 2 min 0,000 mm 0,0 UV-I 124 W/m 1,1 C 1,4 C 0,0 km/h (0 Bft) 100,00 %
01.11.2016 08:22 1,6 C 98 % 1024,6 hPa 0,0 l/m 0,0 km/h (0 Bft) O-SO 121 0 min 0,000 mm 0,0 UV-I 109 W/m 1,3 C 1,6 C 0,0 km/h (0 Bft) 100,00 %
01.11.2016 08:24 1,6 C 98 % 1024,6 hPa 0,0 l/m 0,0 km/h (0 Bft) O-SO 121 2 min 0,000 mm 0,0 UV-I 133 W/m 1,3 C 1,6 C 0,0 km/h (0 Bft) 97,22 %
01.11.2016 08:26 1,6 C 98 % 1024,5 hPa 0,0 l/m 0,0 km/h (0 Bft) O-SO 121 2 min 0,000 mm 0,0 UV-I 179 W/m 1,3 C 1,6 C 0,0 km/h (0 Bft) 100,00 %
01.11.2016 08:28 1,7 C 98 % 1024,6 hPa 0,0 l/m 0,1 km/h (0 Bft) O-SO 121 2 min 0,000 mm 0,0 UV-I 178 W/m 1,4 C 1,7 C 1,6 km/h (1 Bft) 100,00 %
01.11.2016 08:30 1,8 C 98 % 1024,6 hPa 0,0 l/m 0,4 km/h (0 Bft) O-SO 121 2 min 0,000 mm 0,0 UV-I 177 W/m 1,5 C 1,8 C 1,6 km/h (1 Bft) 100,00 %
01.11.2016 08:32 2,0 C 98 % 1024,6 hPa 0,0 l/m 0,0 km/h (0 Bft) O-SO 121 2 min 0,000 mm 0,0 UV-I 190 W/m 1,7 C 2,0 C 0,0 km/h (0 Bft) 100,00 %
01.11.2016 08:34 2,2 C 98 % 1024,6 hPa 0,0 l/m 0,0 km/h (0 Bft) O-SO 121 2 min 0,000 mm 0,0 UV-I 195 W/m 1,9 C 2,2 C 0,0 km/h (0 Bft) 97,62 %
01.11.2016 08:36 2,3 C 98 % 1024,5 hPa 0,0 l/m 0,0 km/h (0 Bft) O-SO 121 2 min 0,000 mm 0,0 UV-I 208 W/m 2,0 C 2,3 C 0,0 km/h (0 Bft) 100,00 %
01.11.2016 08:39 2,3 C 98 % 1024,5 hPa 0,0 l/m 0,8 km/h (0 Bft) O-SO 121 3 min 0,000 mm 0,0 UV-I 192 W/m 2,0 C 2,3 C 1,6 km/h (1 Bft) 100,00 %
01.11.2016 08:40 2,4 C 98 % 1024,5 hPa 0,0 l/m 0,1 km/h (0 Bft) O-SO 121 1 min 0,000 mm 0,0 UV-I 177 W/m 2,1 C 2,4 C 1,6 km/h (1 Bft) 91,67 %
01.11.2016 08:42 2,3 C 98 % 1024,5 hPa 0,0 l/m 0,0 km/h (0 Bft) O-SO 121 2 min 0,000 mm 0,0 UV-I 196 W/m 2,0 C 2,3 C 0,0 km/h (0 Bft) 100,00 %
01.11.2016 08:44 2,3 C 98 % 1024,5 hPa 0,0 l/m 0,1 km/h (0 Bft) O-SO 121 2 min 0,000 mm 0,0 UV-I 200 W/m 2,0 C 2,3 C 1,6 km/h (1 Bft) 100,00 %
01.11.2016 08:46 2,4 C 98 % 1024,5 hPa 0,0 l/m 0,1 km/h (0 Bft) O-SO 121 2 min 0,000 mm 0,0 UV-I 215 W/m 2,1 C 2,4 C 1,6 km/h (1 Bft) 97,37 %
01.11.2016 08:48 2,5 C 98 % 1024,5 hPa 0,0 l/m 0,0 km/h (0 Bft) O-SO 121 2 min 0,000 mm 0,0 UV-I 252 W/m 2,2 C 2,5 C 1,6 km/h (1 Bft) 98,00 %
01.11.2016 08:50 2,7 C 98 % 1024,4 hPa 0,0 l/m 0,3 km/h (0 Bft) O-SO 121 2 min 0,000 mm 0,0 UV-I 257 W/m 2,4 C 2,7 C 1,6 km/h (1 Bft) 98,00 %
01.11.2016 08:52 2,9 C 98 % 1024,3 hPa 0,0 l/m 0,7 km/h (0 Bft) O-SO 121 2 min 0,000 mm 0,0 UV-I 256 W/m 2,6 C 2,9 C 1,6 km/h (1 Bft) 100,00 %
01.11.2016 08:54 2,9 C 98 % 1024,4 hPa 0,0 l/m 0,3 km/h (0 Bft) O-SO 121 2 min 0,000 mm 0,5 UV-I 239 W/m 2,6 C 2,9 C 1,6 km/h (1 Bft) 97,87 %
01.11.2016 08:56 3,1 C 98 % 1024,3 hPa 0,0 l/m 0,3 km/h (0 Bft) O-SO 121 2 min 0,000 mm 0,5 UV-I 239 W/m 2,8 C 3,1 C 1,6 km/h (1 Bft) 100,00 %
01.11.2016 08:58 3,1 C 98 % 1024,4 hPa 0,0 l/m 0,0 km/h (0 Bft) O-SO 121 2 min 0,000 mm 0,5 UV-I 262 W/m 2,8 C 3,1 C 0,0 km/h (0 Bft) 100,00 %
01.11.2016 09:00 3,2 C 98 % 1024,4 hPa 0,0 l/m 0,3 km/h (0 Bft) O-SO 121 2 min 0,051 mm 0,5 UV-I 276 W/m 2,9 C 3,2 C 1,6 km/h (1 Bft) 95,74 %
01.11.2016 09:02 3,3 C 98 % 1024,4 hPa 0,0 l/m 0,1 km/h (0 Bft) O-SO 121 2 min 0,000 mm 0,5 UV-I 253 W/m 3,0 C 3,3 C 1,6 km/h (1 Bft) 100,00 %
01.11.2016 09:04 3,6 C 98 % 1024,3 hPa 0,0 l/m 0,1 km/h (0 Bft) O-SO 121 2 min 0,000 mm 0,5 UV-I 286 W/m 3,3 C 3,6 C 1,6 km/h (1 Bft) 100,00 %
01.11.2016 09:06 3,7 C 98 % 1024,3 hPa 0,0 l/m 0,0 km/h (0 Bft) O-SO 121 2 min 0,000 mm 0,5 UV-I 289 W/m 3,4 C 3,7 C 1,6 km/h (1 Bft) 100,00 %
01.11.2016 09:08 3,8 C 98 % 1024,3 hPa 0,0 l/m 0,1 km/h (0 Bft) O-SO 121 2 min 0,000 mm 0,6 UV-I 301 W/m 3,5 C 3,8 C 1,6 km/h (1 Bft) 94,44 %
01.11.2016 09:10 3,8 C 98 % 1024,3 hPa 0,0 l/m 0,4 km/h (0 Bft) O-SO 121 2 min 0,000 mm 0,6 UV-I 295 W/m 3,5 C 3,8 C 3,2 km/h (1 Bft) 96,00 %
01.11.2016 09:12 3,9 C 98 % 1024,3 hPa 0,0 l/m 1,0 km/h (0 Bft) O-SO 121 2 min 0,000 mm 0,6 UV-I 287 W/m 3,6 C 3,9 C 3,2 km/h (1 Bft) 97,87 %
01.11.2016 09:14 4,1 C 98 % 1024,3 hPa 0,0 l/m 0,8 km/h (0 Bft) O-SO 121 2 min 0,000 mm 0,6 UV-I 282 W/m 3,8 C 4,1 C 3,2 km/h (1 Bft) 97,92 %
01.11.2016 09:16 4,2 C 98 % 1024,2 hPa 0,0 l/m 1,2 km/h (1 Bft) O-SO 121 2 min 0,000 mm 0,6 UV-I 266 W/m 3,9 C 4,2 C 3,2 km/h (1 Bft) 98,11 %
01.11.2016 09:18 4,2 C 98 % 1024,3 hPa 0,0 l/m 1,0 km/h (0 Bft) O-SO 121 2 min 0,000 mm 0,6 UV-I 272 W/m 3,9 C 4,2 C 3,2 km/h (1 Bft) 96,00 %
01.11.2016 09:20 4,3 C 98 % 1024,2 hPa 0,0 l/m 0,1 km/h (0 Bft) O-SO 121 2 min 0,000 mm 0,6 UV-I 257 W/m 4,0 C 4,3 C 1,6 km/h (1 Bft) 97,37 %
01.11.2016 09:22 4,4 C 98 % 1024,2 hPa 0,0 l/m 0,1 km/h (0 Bft) O-SO 121 2 min 0,000 mm 0,6 UV-I 263 W/m 4,1 C 4,4 C 1,6 km/h (1 Bft) 94,00 %
01.11.2016 09:24 4,5 C 98 % 1024,2 hPa 0,0 l/m 0,0 km/h (0 Bft) O-SO 121 2 min 0,000 mm 0,6 UV-I 257 W/m 4,2 C 4,5 C 0,0 km/h (0 Bft) 98,00 %
01.11.2016 09:26 4,6 C 98 % 1024,2 hPa 0,0 l/m 0,0 km/h (0 Bft) O-SO 121 2 min 0,000 mm 0,7 UV-I 271 W/m 4,3 C 4,6 C 1,6 km/h (1 Bft) 97,37 %
01.11.2016 09:28 4,6 C 97 % 1024,1 hPa 0,0 l/m 1,3 km/h (1 Bft) O-SO 121 2 min 0,000 mm 0,7 UV-I 285 W/m 4,2 C 4,6 C 3,2 km/h (1 Bft) 95,74 %
01.11.2016 09:30 4,6 C 97 % 1024,1 hPa 0,0 l/m 0,9 km/h (0 Bft) O-SO 121 2 min 0,000 mm 0,7 UV-I 292 W/m 4,2 C 4,6 C 3,2 km/h (1 Bft) 98,00 %
01.11.2016 09:32 4,7 C 97 % 1024,1 hPa 0,0 l/m 0,6 km/h (0 Bft) O-SO 121 2 min 0,000 mm 0,7 UV-I 306 W/m 4,3 C 4,7 C 3,2 km/h (1 Bft) 98,00 %
01.11.2016 09:34 4,8 C 97 % 1024,1 hPa 0,0 l/m 0,3 km/h (0 Bft) O-SO 121 2 min 0,000 mm 0,7 UV-I 357 W/m 4,4 C 4,8 C 1,6 km/h (1 Bft) 100,00 %
01.11.2016 09:36 4,8 C 97 % 1024,1 hPa 0,0 l/m 0,3 km/h (0 Bft) O-SO 121 2 min 0,000 mm 0,8 UV-I 370 W/m 4,4 C 4,8 C 1,6 km/h (1 Bft) 100,00 %
01.11.2016 09:38 4,9 C 97 % 1024,0 hPa 0,0 l/m 0,3 km/h (0 Bft) O-SO 121 2 min 0,000 mm 0,8 UV-I 367 W/m 4,5 C 4,9 C 3,2 km/h (1 Bft) 100,00 %
01.11.2016 09:40 5,1 C 97 % 1024,0 hPa 0,0 l/m 0,3 km/h (0 Bft) O-SO 121 2 min 0,000 mm 0,8 UV-I 354 W/m 4,7 C 5,1 C 1,6 km/h (1 Bft) 100,00 %
01.11.2016 09:42 5,1 C 97 % 1024,0 hPa 0,0 l/m 0,5 km/h (0 Bft) O-SO 120 2 min 0,000 mm 0,8 UV-I 360 W/m 4,7 C 5,1 C 3,2 km/h (1 Bft) 100,00 %
01.11.2016 09:44 5,2 C 97 % 1024,0 hPa 0,0 l/m 0,0 km/h (0 Bft) O-SO 120 2 min 0,000 mm 0,9 UV-I 365 W/m 4,8 C 5,2 C 0,0 km/h (0 Bft) 100,00 %
01.11.2016 09:46 5,3 C 97 % 1024,0 hPa 0,0 l/m 0,9 km/h (0 Bft) O-SO 113 2 min 0,000 mm 0,9 UV-I 369 W/m 4,9 C 5,3 C 3,2 km/h (1 Bft) 97,87 %
01.11.2016 09:48 5,4 C 97 % 1024,0 hPa 0,0 l/m 2,4 km/h (1 Bft) O-NO 64 2 min 0,000 mm 0,9 UV-I 378 W/m 5,0 C 5,4 C 4,8 km/h (1 Bft) 100,00 %
01.11.2016 09:50 5,6 C 97 % 1024,0 hPa 0,0 l/m 2,3 km/h (1 Bft) O-NO 64 2 min 0,000 mm 0,9 UV-I 364 W/m 5,2 C 5,6 C 3,2 km/h (1 Bft) 100,00 %
01.11.2016 09:52 5,7 C 97 % 1024,0 hPa 0,0 l/m 0,6 km/h (0 Bft) O-NO 62 2 min 0,000 mm 0,9 UV-I 405 W/m 5,3 C 5,7 C 1,6 km/h (1 Bft) 100,00 %
01.11.2016 09:54 5,8 C 96 % 1024,0 hPa 0,0 l/m 0,5 km/h (0 Bft) NO 53 2 min 0,000 mm 0,9 UV-I 411 W/m 5,2 C 5,8 C 1,6 km/h (1 Bft) 100,00 %
01.11.2016 09:56 5,7 C 95 % 1024,1 hPa 0,0 l/m 0,5 km/h (0 Bft) NO 53 2 min 0,000 mm 0,9 UV-I 395 W/m 5,0 C 5,7 C 1,6 km/h (1 Bft) 100,00 %
01.11.2016 09:58 5,6 C 95 % 1024,0 hPa 0,0 l/m 0,2 km/h (0 Bft) NO 52 2 min 0,000 mm 0,9 UV-I 352 W/m 4,9 C 5,6 C 1,6 km/h (1 Bft) 100,00 %
01.11.2016 10:00 5,6 C 96 % 1024,1 hPa 0,0 l/m 0,2 km/h (0 Bft) NO 52 2 min 0,127 mm 0,9 UV-I 370 W/m 5,0 C 5,6 C 1,6 km/h (1 Bft) 100,00 %
01.11.2016 10:02 5,6 C 96 % 1024,0 hPa 0,0 l/m 1,5 km/h (1 Bft) NO 52 2 min 0,000 mm 1,0 UV-I 405 W/m 5,0 C 5,6 C 3,2 km/h (1 Bft) 100,00 %
01.11.2016 10:04 5,7 C 96 % 1024,0 hPa 0,0 l/m 1,6 km/h (1 Bft) NO 52 2 min 0,000 mm 1,0 UV-I 400 W/m 5,1 C 5,7 C 3,2 km/h (1 Bft) 97,87 %
01.11.2016 10:06 5,7 C 96 % 1024,0 hPa 0,0 l/m 0,6 km/h (0 Bft) NO 52 2 min 0,000 mm 1,0 UV-I 352 W/m 5,1 C 5,7 C 3,2 km/h (1 Bft) 96,43 %
01.11.2016 10:08 5,7 C 95 % 1024,0 hPa 0,0 l/m 2,1 km/h (1 Bft) NO 52 2 min 0,000 mm 1,0 UV-I 362 W/m 5,0 C 5,7 C 6,4 km/h (2 Bft) 100,00 %
01.11.2016 10:10 5,8 C 96 % 1024,0 hPa 0,2 l/m 1,6 km/h (1 Bft) NO 51 2 min 0,000 mm 1,0 UV-I 387 W/m 5,2 C 5,8 C 4,8 km/h (1 Bft) 100,00 %
01.11.2016 10:12 5,9 C 96 % 1024,0 hPa 0,0 l/m 2,1 km/h (1 Bft) NO 51 2 min 0,000 mm 1,0 UV-I 367 W/m 5,3 C 5,9 C 4,8 km/h (1 Bft) 100,00 %
01.11.2016 10:14 5,8 C 95 % 1024,0 hPa 0,0 l/m 0,3 km/h (0 Bft) NO 51 2 min 0,000 mm 1,0 UV-I 351 W/m 5,1 C 5,8 C 1,6 km/h (1 Bft) 100,00 %
01.11.2016 10:16 5,9 C 95 % 1024,0 hPa 0,0 l/m 0,3 km/h (0 Bft) NO 49 2 min 0,000 mm 1,1 UV-I 359 W/m 5,2 C 5,9 C 3,2 km/h (1 Bft) 97,87 %
01.11.2016 10:18 6,0 C 95 % 1024,0 hPa 0,0 l/m 0,7 km/h (0 Bft) NO 47 2 min 0,000 mm 1,1 UV-I 424 W/m 5,3 C 6,0 C 3,2 km/h (1 Bft) 100,00 %
01.11.2016 10:20 6,1 C 95 % 1024,0 hPa 0,0 l/m 2,2 km/h (1 Bft) NO 39 2 min 0,000 mm 1,1 UV-I 402 W/m 5,4 C 6,1 C 6,4 km/h (2 Bft) 100,00 %
01.11.2016 10:22 6,2 C 95 % 1024,0 hPa 0,0 l/m 5,2 km/h (1 Bft) NO 42 2 min 0,000 mm 1,2 UV-I 436 W/m 5,5 C 6,2 C 8,0 km/h (2 Bft) 100,00 %
01.11.2016 10:24 6,3 C 96 % 1023,9 hPa 0,0 l/m 3,9 km/h (1 Bft) NO 35 2 min 0,000 mm 1,2 UV-I 441 W/m 5,7 C 6,3 C 6,4 km/h (2 Bft) 100,00 %
01.11.2016 10:26 6,3 C 95 % 1023,9 hPa 0,0 l/m 1,7 km/h (1 Bft) N-NO 19 2 min 0,000 mm 1,2 UV-I 456 W/m 5,6 C 6,3 C 6,4 km/h (2 Bft) 100,00 %
01.11.2016 10:28 6,2 C 95 % 1023,9 hPa 0,0 l/m 2,6 km/h (1 Bft) N-NO 26 2 min 0,000 mm 1,1 UV-I 413 W/m 5,5 C 6,2 C 4,8 km/h (1 Bft) 100,00 %
01.11.2016 10:30 6,2 C 95 % 1023,9 hPa 0,0 l/m 3,6 km/h (1 Bft) N 5 2 min 0,000 mm 1,1 UV-I 407 W/m 5,5 C 6,2 C 9,7 km/h (2 Bft) 98,00 %
01.11.2016 10:32 6,1 C 95 % 1023,9 hPa 0,0 l/m 2,1 km/h (1 Bft) N-NW 339 2 min 0,000 mm 1,1 UV-I 341 W/m 5,4 C 6,1 C 3,2 km/h (1 Bft) 100,00 %
01.11.2016 10:34 5,9 C 95 % 1023,8 hPa 0,0 l/m 1,6 km/h (1 Bft) N 355 2 min 0,000 mm 1,0 UV-I 291 W/m 5,2 C 5,9 C 3,2 km/h (1 Bft) 98,11 %
01.11.2016 10:36 5,9 C 95 % 1023,9 hPa 0,0 l/m 1,8 km/h (1 Bft) N-NO 16 2 min 0,000 mm 1,0 UV-I 280 W/m 5,2 C 5,9 C 8,0 km/h (2 Bft) 97,37 %
01.11.2016 10:38 5,7 C 95 % 1023,8 hPa 0,0 l/m 5,7 km/h (1 Bft) N-NO 27 2 min 0,000 mm 0,9 UV-I 243 W/m 5,0 C 5,7 C 8,0 km/h (2 Bft) 98,21 %
01.11.2016 10:40 5,5 C 95 % 1023,8 hPa 0,0 l/m 7,1 km/h (2 Bft) N-NO 26 2 min 0,000 mm 0,9 UV-I 287 W/m 4,8 C 4,9 C 9,7 km/h (2 Bft) 97,87 %
01.11.2016 10:42 5,6 C 96 % 1023,8 hPa 0,0 l/m 4,5 km/h (1 Bft) NO 44 2 min 0,000 mm 0,9 UV-I 306 W/m 5,0 C 5,6 C 6,4 km/h (2 Bft) 97,37 %
01.11.2016 10:44 5,6 C 96 % 1023,8 hPa 0,0 l/m 3,2 km/h (1 Bft) N-NO 17 2 min 0,000 mm 0,9 UV-I 283 W/m 5,0 C 5,6 C 6,4 km/h (2 Bft) 97,87 %
01.11.2016 10:46 5,4 C 96 % 1023,8 hPa 0,0 l/m 5,2 km/h (1 Bft) N-NO 20 0 min 0,000 mm 1,0 UV-I 232 W/m 4,8 C 5,4 C 6,4 km/h (2 Bft) 93,62 %
01.11.2016 10:48 5,5 C 96 % 1023,7 hPa 0,0 l/m 3,3 km/h (1 Bft) N-NO 22 2 min 0,000 mm 1,0 UV-I 301 W/m 4,9 C 5,5 C 6,4 km/h (2 Bft) 94,00 %
01.11.2016 10:50 5,5 C 96 % 1023,6 hPa 0,0 l/m 5,9 km/h (2 Bft) N-NO 26 2 min 0,000 mm 0,9 UV-I 248 W/m 4,9 C 5,5 C 8,0 km/h (2 Bft) 97,56 %
01.11.2016 10:52 5,4 C 96 % 1023,6 hPa 0,0 l/m 4,4 km/h (1 Bft) NO 44 2 min 0,000 mm 1,0 UV-I 315 W/m 4,8 C 5,4 C 8,0 km/h (2 Bft) 98,11 %
01.11.2016 10:54 5,4 C 96 % 1023,6 hPa 0,0 l/m 3,4 km/h (1 Bft) NO 42 2 min 0,000 mm 1,1 UV-I 378 W/m 4,8 C 5,4 C 6,4 km/h (2 Bft) 94,00 %
01.11.2016 10:56 5,6 C 97 % 1023,5 hPa 0,0 l/m 0,7 km/h (0 Bft) NO 40 2 min 0,000 mm 1,1 UV-I 385 W/m 5,2 C 5,6 C 1,6 km/h (1 Bft) 98,00 %
01.11.2016 10:58 5,6 C 97 % 1023,5 hPa 0,0 l/m 2,8 km/h (1 Bft) NO 40 2 min 0,000 mm 1,1 UV-I 430 W/m 5,2 C 5,6 C 4,8 km/h (1 Bft) 100,00 %
01.11.2016 11:00 5,5 C 96 % 1023,5 hPa 0,0 l/m 3,5 km/h (1 Bft) NO 48 2 min 0,000 mm 1,2 UV-I 438 W/m 4,9 C 5,5 C 4,8 km/h (1 Bft) 100,00 %
01.11.2016 11:02 5,7 C 97 % 1023,5 hPa 0,0 l/m 3,1 km/h (1 Bft) NO 48 2 min 0,153 mm 1,1 UV-I 434 W/m 5,3 C 5,7 C 4,8 km/h (1 Bft) 100,00 %
01.11.2016 11:04 5,8 C 97 % 1023,4 hPa 0,0 l/m 4,1 km/h (1 Bft) NO 48 2 min 0,000 mm 1,2 UV-I 391 W/m 5,4 C 5,8 C 4,8 km/h (1 Bft) 97,87 %
01.11.2016 11:06 5,8 C 96 % 1023,4 hPa 0,0 l/m 4,3 km/h (1 Bft) O-NO 57 2 min 0,000 mm 1,2 UV-I 391 W/m 5,2 C 5,8 C 6,4 km/h (2 Bft) 98,11 %
01.11.2016 11:12 5,8 C 95 % 1023,3 hPa 0,0 l/m 4,1 km/h (1 Bft) NO 51 6 min 0,000 mm 1,3 UV-I 426 W/m 5,1 C 5,8 C 6,4 km/h (2 Bft) 98,68 %
01.11.2016 11:14 5,9 C 95 % 1023,2 hPa 0,0 l/m 2,1 km/h (1 Bft) NO 51 2 min 0,000 mm 1,3 UV-I 411 W/m 5,2 C 5,9 C 3,2 km/h (1 Bft) 97,87 %
01.11.2016 11:16 6,2 C 95 % 1023,2 hPa 0,0 l/m 1,7 km/h (1 Bft) NO 51 2 min 0,000 mm 1,3 UV-I 423 W/m 5,5 C 6,2 C 3,2 km/h (1 Bft) 98,11 %
01.11.2016 11:19 6,6 C 95 % 1023,1 hPa 0,0 l/m 1,4 km/h (1 Bft) NO 51 3 min 0,000 mm 1,3 UV-I 423 W/m 5,9 C 6,6 C 3,2 km/h (1 Bft) 100,00 %
01.11.2016 11:20 6,6 C 94 % 1023,1 hPa 0,0 l/m 1,7 km/h (1 Bft) NO 51 1 min 0,000 mm 1,3 UV-I 445 W/m 5,7 C 6,6 C 3,2 km/h (1 Bft) 100,00 %
01.11.2016 11:22 6,7 C 94 % 1023,0 hPa 0,0 l/m 3,0 km/h (1 Bft) NO 44 2 min 0,000 mm 1,3 UV-I 441 W/m 5,8 C 6,7 C 6,4 km/h (2 Bft) 100,00 %
01.11.2016 11:24 6,6 C 93 % 1023,0 hPa 0,0 l/m 2,9 km/h (1 Bft) NO 44 2 min 0,000 mm 1,3 UV-I 445 W/m 5,6 C 6,6 C 4,8 km/h (1 Bft) 100,00 %
01.11.2016 11:26 6,6 C 94 % 1023,0 hPa 0,0 l/m 2,4 km/h (1 Bft) NO 44 2 min 0,000 mm 1,3 UV-I 450 W/m 5,7 C 6,6 C 4,8 km/h (1 Bft) 100,00 %
01.11.2016 11:28 6,9 C 94 % 1022,9 hPa 0,0 l/m 3,0 km/h (1 Bft) NO 42 2 min 0,000 mm 1,4 UV-I 462 W/m 6,0 C 6,9 C 6,4 km/h (2 Bft) 98,00 %
01.11.2016 11:30 7,0 C 94 % 1022,9 hPa 0,0 l/m 1,0 km/h (0 Bft) NO 35 2 min 0,000 mm 1,3 UV-I 448 W/m 6,1 C 7,0 C 3,2 km/h (1 Bft) 100,00 %
01.11.2016 11:32 7,1 C 93 % 1022,9 hPa 0,0 l/m 0,9 km/h (0 Bft) N-NO 32 2 min 0,000 mm 1,4 UV-I 454 W/m 6,0 C 7,1 C 3,2 km/h (1 Bft) 100,00 %
01.11.2016 11:34 7,1 C 93 % 1022,9 hPa 0,0 l/m 0,8 km/h (0 Bft) N-NO 21 2 min 0,000 mm 1,4 UV-I 458 W/m 6,0 C 7,1 C 1,6 km/h (1 Bft) 100,00 %
01.11.2016 11:36 6,9 C 92 % 1022,9 hPa 0,0 l/m 0,5 km/h (0 Bft) N 11 2 min 0,000 mm 1,3 UV-I 447 W/m 5,7 C 6,9 C 1,6 km/h (1 Bft) 98,00 %
01.11.2016 11:38 7,1 C 93 % 1022,8 hPa 0,0 l/m 1,6 km/h (1 Bft) N 10 2 min 0,000 mm 1,3 UV-I 454 W/m 6,0 C 7,1 C 3,2 km/h (1 Bft) 100,00 %
01.11.2016 11:40 7,0 C 92 % 1022,8 hPa 0,0 l/m 1,2 km/h (1 Bft) N-NO 15 2 min 0,000 mm 1,3 UV-I 430 W/m 5,8 C 7,0 C 3,2 km/h (1 Bft) 100,00 %
01.11.2016 11:42 7,2 C 93 % 1022,8 hPa 0,0 l/m 3,0 km/h (1 Bft) N-NO 28 2 min 0,000 mm 1,3 UV-I 418 W/m 6,1 C 7,2 C 6,4 km/h (2 Bft) 100,00 %
01.11.2016 11:44 7,2 C 92 % 1022,7 hPa 0,0 l/m 5,1 km/h (1 Bft) NO 36 2 min 0,000 mm 1,3 UV-I 408 W/m 6,0 C 7,2 C 8,0 km/h (2 Bft) 100,00 %
01.11.2016 11:46 7,3 C 93 % 1022,7 hPa 0,0 l/m 5,4 km/h (1 Bft) N-NO 29 2 min 0,000 mm 1,3 UV-I 404 W/m 6,2 C 7,3 C 8,0 km/h (2 Bft) 100,00 %
01.11.2016 11:48 7,5 C 93 % 1022,7 hPa 0,0 l/m 4,9 km/h (1 Bft) N-NO 20 2 min 0,000 mm 1,3 UV-I 396 W/m 6,4 C 7,5 C 6,4 km/h (2 Bft) 100,00 %
01.11.2016 11:50 7,6 C 92 % 1022,6 hPa 0,0 l/m 4,9 km/h (1 Bft) NO 47 2 min 0,000 mm 1,3 UV-I 382 W/m 6,4 C 7,6 C 6,4 km/h (2 Bft) 100,00 %
01.11.2016 11:52 7,5 C 92 % 1022,6 hPa 0,0 l/m 4,5 km/h (1 Bft) N-NO 30 2 min 0,000 mm 1,3 UV-I 384 W/m 6,3 C 7,5 C 6,4 km/h (2 Bft) 100,00 %
01.11.2016 11:54 7,7 C 92 % 1022,6 hPa 0,0 l/m 4,6 km/h (1 Bft) N-NO 25 2 min 0,000 mm 1,3 UV-I 428 W/m 6,5 C 7,7 C 8,0 km/h (2 Bft) 100,00 %
01.11.2016 11:56 7,7 C 91 % 1022,6 hPa 0,0 l/m 3,7 km/h (1 Bft) N-NO 19 2 min 0,000 mm 1,3 UV-I 452 W/m 6,3 C 7,7 C 8,0 km/h (2 Bft) 100,00 %
01.11.2016 11:58 7,8 C 91 % 1022,5 hPa 0,0 l/m 2,7 km/h (1 Bft) N-NO 25 2 min 0,000 mm 1,3 UV-I 465 W/m 6,4 C 7,8 C 6,4 km/h (2 Bft) 100,00 %
01.11.2016 12:00 7,9 C 91 % 1022,5 hPa 0,0 l/m 4,1 km/h (1 Bft) N-NO 17 2 min 0,177 mm 1,3 UV-I 466 W/m 6,5 C 7,9 C 8,0 km/h (2 Bft) 100,00 %
01.11.2016 12:02 7,9 C 90 % 1022,5 hPa 0,0 l/m 1,7 km/h (1 Bft) N-NO 18 2 min 0,000 mm 1,3 UV-I 440 W/m 6,4 C 7,9 C 3,2 km/h (1 Bft) 98,18 %
01.11.2016 12:04 7,8 C 90 % 1022,5 hPa 0,0 l/m 1,5 km/h (1 Bft) NO 50 2 min 0,000 mm 1,3 UV-I 436 W/m 6,3 C 7,8 C 3,2 km/h (1 Bft) 98,00 %
01.11.2016 12:06 8,0 C 90 % 1022,5 hPa 0,0 l/m 1,6 km/h (1 Bft) N-NO 17 2 min 0,000 mm 1,3 UV-I 429 W/m 6,5 C 8,0 C 8,0 km/h (2 Bft) 97,44 %
01.11.2016 12:08 8,0 C 90 % 1022,5 hPa 0,0 l/m 3,3 km/h (1 Bft) N-NO 13 2 min 0,000 mm 1,3 UV-I 456 W/m 6,5 C 8,0 C 8,0 km/h (2 Bft) 98,00 %
01.11.2016 12:10 8,0 C 90 % 1022,4 hPa 0,0 l/m 2,6 km/h (1 Bft) N 9 2 min 0,000 mm 1,3 UV-I 472 W/m 6,5 C 8,0 C 8,0 km/h (2 Bft) 98,00 %
01.11.2016 12:12 8,2 C 91 % 1022,4 hPa 0,0 l/m 1,3 km/h (1 Bft) N-NO 25 2 min 0,000 mm 1,3 UV-I 469 W/m 6,8 C 8,2 C 3,2 km/h (1 Bft) 97,56 %
01.11.2016 12:14 8,2 C 88 % 1022,3 hPa 0,0 l/m 1,7 km/h (1 Bft) NO 38 2 min 0,000 mm 1,3 UV-I 436 W/m 6,3 C 8,2 C 4,8 km/h (1 Bft) 96,23 %
01.11.2016 12:16 8,1 C 89 % 1022,3 hPa 0,0 l/m 6,1 km/h (2 Bft) N-NO 28 2 min 0,000 mm 1,3 UV-I 431 W/m 6,4 C 8,1 C 9,7 km/h (2 Bft) 97,73 %
01.11.2016 12:19 8,3 C 90 % 1022,1 hPa 0,0 l/m 4,6 km/h (1 Bft) N-NO 33 3 min 0,000 mm 1,3 UV-I 417 W/m 6,8 C 8,3 C 9,7 km/h (2 Bft) 98,11 %
01.11.2016 12:20 8,3 C 90 % 1022,1 hPa 0,0 l/m 4,9 km/h (1 Bft) NO 53 1 min 0,000 mm 1,3 UV-I 471 W/m 6,8 C 8,3 C 6,4 km/h (2 Bft) 97,37 %
01.11.2016 12:22 8,3 C 88 % 1022,1 hPa 0,0 l/m 4,8 km/h (1 Bft) NO 39 2 min 0,000 mm 1,3 UV-I 478 W/m 6,4 C 8,3 C 6,4 km/h (2 Bft) 97,87 %
01.11.2016 12:24 8,4 C 88 % 1022,0 hPa 0,0 l/m 5,0 km/h (1 Bft) NO 48 2 min 0,000 mm 1,3 UV-I 456 W/m 6,5 C 8,4 C 8,0 km/h (2 Bft) 97,87 %
01.11.2016 12:26 8,4 C 87 % 1022,0 hPa 0,0 l/m 4,0 km/h (1 Bft) NO 38 2 min 0,000 mm 1,3 UV-I 460 W/m 6,4 C 8,4 C 6,4 km/h (2 Bft) 97,87 %
01.11.2016 12:29 8,6 C 87 % 1022,0 hPa 0,0 l/m 3,5 km/h (1 Bft) N-NO 32 3 min 0,000 mm 1,2 UV-I 423 W/m 6,6 C 8,6 C 6,4 km/h (2 Bft) 98,75 %
01.11.2016 12:30 8,6 C 88 % 1022,0 hPa 0,0 l/m 3,1 km/h (1 Bft) NO 40 1 min 0,000 mm 1,2 UV-I 398 W/m 6,7 C 8,6 C 4,8 km/h (1 Bft) 100,00 %
01.11.2016 12:32 8,6 C 85 % 1021,9 hPa 0,0 l/m 3,3 km/h (1 Bft) N-NO 33 2 min 0,000 mm 1,2 UV-I 368 W/m 6,2 C 8,6 C 6,4 km/h (2 Bft) 96,00 %
01.11.2016 12:34 8,4 C 85 % 1021,9 hPa 0,0 l/m 3,6 km/h (1 Bft) N-NO 33 2 min 0,000 mm 1,2 UV-I 365 W/m 6,0 C 8,4 C 6,4 km/h (2 Bft) 100,00 %
01.11.2016 12:35 8,4 C 88 % 1021,9 hPa 0,0 l/m 3,2 km/h (1 Bft) N-NO 22 1 min 0,000 mm 1,2 UV-I 366 W/m 6,5 C 8,4 C 6,4 km/h (2 Bft) 98,25 %
01.11.2016 12:40 8,3 C 85 % 1021,8 hPa 0,0 l/m 0,7 km/h (0 Bft) N-NO 33 5 min 0,000 mm 1,1 UV-I 363 W/m 5,9 C 8,3 C 1,6 km/h (1 Bft) 100,00 %
01.11.2016 12:42 8,4 C 88 % 1021,7 hPa 0,0 l/m 1,0 km/h (0 Bft) N-NO 32 2 min 0,000 mm 1,1 UV-I 352 W/m 6,5 C 8,4 C 4,8 km/h (1 Bft) 100,00 %
01.11.2016 12:44 8,5 C 86 % 1021,7 hPa 0,0 l/m 2,8 km/h (1 Bft) N-NO 32 2 min 0,000 mm 1,1 UV-I 375 W/m 6,3 C 8,5 C 4,8 km/h (1 Bft) 98,00 %
01.11.2016 12:46 8,6 C 87 % 1021,7 hPa 0,0 l/m 3,4 km/h (1 Bft) N-NO 32 2 min 0,000 mm 1,2 UV-I 399 W/m 6,6 C 8,6 C 4,8 km/h (1 Bft) 100,00 %
01.11.2016 12:48 8,6 C 86 % 1021,7 hPa 0,0 l/m 1,6 km/h (1 Bft) N-NO 32 2 min 0,000 mm 1,2 UV-I 428 W/m 6,4 C 8,6 C 3,2 km/h (1 Bft) 100,00 %
01.11.2016 12:50 8,6 C 86 % 1021,7 hPa 0,0 l/m 1,0 km/h (0 Bft) NO 36 2 min 0,000 mm 1,2 UV-I 438 W/m 6,4 C 8,6 C 4,8 km/h (1 Bft) 98,00 %
01.11.2016 12:52 8,6 C 85 % 1021,6 hPa 0,0 l/m 2,9 km/h (1 Bft) NO 44 2 min 0,000 mm 1,2 UV-I 438 W/m 6,2 C 8,6 C 4,8 km/h (1 Bft) 100,00 %
01.11.2016 12:54 8,8 C 86 % 1021,6 hPa 0,0 l/m 2,3 km/h (1 Bft) NO 43 2 min 0,000 mm 1,2 UV-I 429 W/m 6,6 C 8,8 C 3,2 km/h (1 Bft) 100,00 %
01.11.2016 12:56 9,1 C 87 % 1021,5 hPa 0,0 l/m 4,0 km/h (1 Bft) NO 49 2 min 0,000 mm 1,2 UV-I 423 W/m 7,1 C 9,1 C 6,4 km/h (2 Bft) 100,00 %
01.11.2016 12:58 9,2 C 87 % 1021,5 hPa 0,0 l/m 4,0 km/h (1 Bft) NO 41 2 min 0,000 mm 1,1 UV-I 401 W/m 7,2 C 9,2 C 6,4 km/h (2 Bft) 98,11 %
01.11.2016 13:00 9,2 C 86 % 1021,5 hPa 0,0 l/m 2,7 km/h (1 Bft) NO 41 2 min 0,178 mm 1,2 UV-I 428 W/m 7,0 C 9,2 C 4,8 km/h (1 Bft) 97,14 %
01.11.2016 13:02 9,3 C 87 % 1021,4 hPa 0,0 l/m 2,3 km/h (1 Bft) N-NO 15 2 min 0,000 mm 1,1 UV-I 432 W/m 7,2 C 9,3 C 4,8 km/h (1 Bft) 100,00 %
01.11.2016 13:04 9,3 C 87 % 1021,4 hPa 0,0 l/m 1,8 km/h (1 Bft) N-NO 15 2 min 0,000 mm 1,1 UV-I 415 W/m 7,2 C 9,3 C 4,8 km/h (1 Bft) 100,00 %
01.11.2016 13:06 9,3 C 86 % 1021,3 hPa 0,0 l/m 4,5 km/h (1 Bft) NO 46 2 min 0,000 mm 1,1 UV-I 409 W/m 7,1 C 9,3 C 8,0 km/h (2 Bft) 100,00 %
01.11.2016 13:08 9,4 C 86 % 1021,2 hPa 0,0 l/m 3,1 km/h (1 Bft) NO 44 2 min 0,000 mm 1,1 UV-I 392 W/m 7,2 C 9,4 C 6,4 km/h (2 Bft) 100,00 %
01.11.2016 13:10 9,4 C 85 % 1021,2 hPa 0,0 l/m 3,4 km/h (1 Bft) O-NO 69 2 min 0,000 mm 1,1 UV-I 402 W/m 7,0 C 9,4 C 6,4 km/h (2 Bft) 100,00 %
01.11.2016 13:12 9,3 C 84 % 1021,3 hPa 0,0 l/m 2,2 km/h (1 Bft) O-NO 67 2 min 0,000 mm 1,1 UV-I 420 W/m 6,7 C 9,3 C 4,8 km/h (1 Bft) 100,00 %
01.11.2016 13:14 9,3 C 86 % 1021,2 hPa 0,0 l/m 2,1 km/h (1 Bft) O-NO 65 2 min 0,000 mm 1,1 UV-I 417 W/m 7,1 C 9,3 C 4,8 km/h (1 Bft) 100,00 %
01.11.2016 13:16 9,4 C 85 % 1021,1 hPa 0,0 l/m 2,7 km/h (1 Bft) O-NO 57 2 min 0,000 mm 1,1 UV-I 419 W/m 7,0 C 9,4 C 4,8 km/h (1 Bft) 98,11 %
01.11.2016 13:19 9,4 C 86 % 1021,0 hPa 0,0 l/m 2,2 km/h (1 Bft) O-NO 57 3 min 0,000 mm 1,0 UV-I 405 W/m 7,2 C 9,4 C 4,8 km/h (1 Bft) 98,36 %
01.11.2016 13:20 9,5 C 85 % 1021,0 hPa 0,0 l/m 0,6 km/h (0 Bft) O-NO 57 1 min 0,000 mm 1,0 UV-I 385 W/m 7,1 C 9,5 C 1,6 km/h (1 Bft) 100,00 %
01.11.2016 13:22 9,7 C 86 % 1021,0 hPa 0,0 l/m 2,4 km/h (1 Bft) NO 55 2 min 0,000 mm 1,0 UV-I 371 W/m 7,5 C 9,7 C 6,4 km/h (2 Bft) 97,56 %
01.11.2016 13:24 9,7 C 85 % 1021,0 hPa 0,0 l/m 3,6 km/h (1 Bft) NO 55 2 min 0,000 mm 1,0 UV-I 402 W/m 7,3 C 9,7 C 4,8 km/h (1 Bft) 98,08 %
01.11.2016 13:26 9,9 C 86 % 1020,9 hPa 0,0 l/m 2,7 km/h (1 Bft) NO 55 2 min 0,000 mm 1,0 UV-I 398 W/m 7,7 C 9,9 C 4,8 km/h (1 Bft) 100,00 %
01.11.2016 13:28 10,0 C 84 % 1020,9 hPa 0,0 l/m 1,9 km/h (1 Bft) NO 55 2 min 0,000 mm 1,0 UV-I 403 W/m 7,4 C 10,0 C 4,8 km/h (1 Bft) 100,00 %
01.11.2016 13:30 10,2 C 85 % 1020,9 hPa 0,0 l/m 2,5 km/h (1 Bft) NO 55 2 min 0,000 mm 1,0 UV-I 400 W/m 7,8 C 10,2 C 4,8 km/h (1 Bft) 97,87 %
01.11.2016 13:32 10,3 C 83 % 1020,9 hPa 0,0 l/m 2,3 km/h (1 Bft) NO 55 2 min 0,000 mm 1,0 UV-I 390 W/m 7,5 C 10,3 C 4,8 km/h (1 Bft) 100,00 %
01.11.2016 13:34 10,3 C 83 % 1020,9 hPa 0,0 l/m 2,4 km/h (1 Bft) NO 55 2 min 0,000 mm 0,9 UV-I 392 W/m 7,5 C 10,3 C 4,8 km/h (1 Bft) 98,00 %
01.11.2016 13:36 10,3 C 85 % 1020,8 hPa 0,0 l/m 3,5 km/h (1 Bft) NO 55 2 min 0,000 mm 0,9 UV-I 385 W/m 7,9 C 10,3 C 4,8 km/h (1 Bft) 98,00 %
01.11.2016 13:38 10,3 C 82 % 1020,8 hPa 0,0 l/m 3,0 km/h (1 Bft) NO 55 2 min 0,000 mm 0,9 UV-I 377 W/m 7,4 C 10,3 C 4,8 km/h (1 Bft) 97,37 %
01.11.2016 13:40 10,4 C 84 % 1020,7 hPa 0,0 l/m 3,1 km/h (1 Bft) NO 49 2 min 0,000 mm 0,9 UV-I 385 W/m 7,8 C 10,4 C 6,4 km/h (2 Bft) 97,87 %
01.11.2016 13:42 10,4 C 83 % 1020,7 hPa 0,0 l/m 5,2 km/h (1 Bft) NO 51 2 min 0,000 mm 0,9 UV-I 381 W/m 7,6 C 10,4 C 8,0 km/h (2 Bft) 95,45 %
01.11.2016 13:44 10,3 C 78 % 1020,7 hPa 0,0 l/m 4,3 km/h (1 Bft) NO 48 2 min 0,000 mm 0,9 UV-I 371 W/m 6,6 C 10,3 C 8,0 km/h (2 Bft) 97,87 %
01.11.2016 13:46 10,3 C 79 % 1020,7 hPa 0,0 l/m 3,8 km/h (1 Bft) NO 48 2 min 0,000 mm 0,8 UV-I 345 W/m 6,8 C 10,3 C 4,8 km/h (1 Bft) 95,74 %
01.11.2016 13:48 10,4 C 79 % 1020,6 hPa 0,0 l/m 2,6 km/h (1 Bft) NO 49 2 min 0,000 mm 0,8 UV-I 329 W/m 6,9 C 10,4 C 4,8 km/h (1 Bft) 98,21 %
01.11.2016 13:50 10,4 C 79 % 1020,6 hPa 0,0 l/m 3,8 km/h (1 Bft) NO 49 2 min 0,000 mm 0,8 UV-I 294 W/m 6,9 C 10,4 C 4,8 km/h (1 Bft) 97,87 %
01.11.2016 13:52 10,5 C 80 % 1020,6 hPa 0,0 l/m 4,0 km/h (1 Bft) NO 48 2 min 0,000 mm 0,8 UV-I 320 W/m 7,2 C 10,5 C 4,8 km/h (1 Bft) 97,62 %
01.11.2016 13:54 10,5 C 78 % 1020,5 hPa 0,0 l/m 2,7 km/h (1 Bft) NO 48 2 min 0,000 mm 0,8 UV-I 332 W/m 6,8 C 10,5 C 4,8 km/h (1 Bft) 97,56 %
01.11.2016 13:56 10,5 C 78 % 1020,5 hPa 0,0 l/m 2,7 km/h (1 Bft) NO 48 2 min 0,000 mm 0,8 UV-I 350 W/m 6,8 C 10,5 C 4,8 km/h (1 Bft) 98,00 %
01.11.2016 13:58 10,5 C 77 % 1020,5 hPa 0,0 l/m 1,6 km/h (1 Bft) NO 48 2 min 0,000 mm 0,8 UV-I 354 W/m 6,6 C 10,5 C 3,2 km/h (1 Bft) 96,23 %
01.11.2016 14:00 10,5 C 77 % 1020,5 hPa 0,0 l/m 1,6 km/h (1 Bft) NO 41 2 min 0,178 mm 0,8 UV-I 362 W/m 6,6 C 10,5 C 4,8 km/h (1 Bft) 97,87 %
01.11.2016 14:02 10,5 C 76 % 1020,5 hPa 0,0 l/m 2,0 km/h (1 Bft) NO 41 2 min 0,000 mm 0,8 UV-I 354 W/m 6,5 C 10,5 C 3,2 km/h (1 Bft) 100,00 %
01.11.2016 14:04 10,5 C 75 % 1020,4 hPa 0,0 l/m 0,8 km/h (0 Bft) NO 41 2 min 0,000 mm 0,7 UV-I 339 W/m 6,3 C 10,5 C 3,2 km/h (1 Bft) 100,00 %
01.11.2016 14:06 10,6 C 78 % 1020,3 hPa 0,0 l/m 2,3 km/h (1 Bft) NO 40 2 min 0,000 mm 0,7 UV-I 339 W/m 6,9 C 10,6 C 4,8 km/h (1 Bft) 96,77 %
01.11.2016 14:08 10,8 C 77 % 1020,3 hPa 0,0 l/m 3,3 km/h (1 Bft) NO 43 2 min 0,000 mm 0,7 UV-I 325 W/m 6,9 C 10,8 C 4,8 km/h (1 Bft) 98,00 %
01.11.2016 14:10 10,8 C 78 % 1020,3 hPa 0,0 l/m 1,6 km/h (1 Bft) NO 43 2 min 0,000 mm 0,7 UV-I 316 W/m 7,1 C 10,8 C 3,2 km/h (1 Bft) 100,00 %
01.11.2016 14:12 10,7 C 75 % 1020,2 hPa 0,0 l/m 1,5 km/h (1 Bft) NO 43 2 min 0,000 mm 0,7 UV-I 323 W/m 6,5 C 10,7 C 3,2 km/h (1 Bft) 100,00 %
01.11.2016 14:14 10,7 C 77 % 1020,1 hPa 0,0 l/m 1,8 km/h (1 Bft) NO 43 2 min 0,000 mm 0,7 UV-I 315 W/m 6,8 C 10,7 C 3,2 km/h (1 Bft) 100,00 %
01.11.2016 14:16 10,8 C 76 % 1020,1 hPa 0,0 l/m 2,2 km/h (1 Bft) NO 43 2 min 0,000 mm 0,7 UV-I 314 W/m 6,7 C 10,8 C 3,2 km/h (1 Bft) 100,00 %
01.11.2016 14:19 10,7 C 75 % 1020,1 hPa 0,0 l/m 0,6 km/h (0 Bft) NO 43 3 min 0,000 mm 0,6 UV-I 313 W/m 6,5 C 10,7 C 3,2 km/h (1 Bft) 100,00 %
01.11.2016 14:20 10,7 C 75 % 1020,1 hPa 0,0 l/m 1,0 km/h (0 Bft) NO 43 1 min 0,000 mm 0,6 UV-I 313 W/m 6,5 C 10,7 C 1,6 km/h (1 Bft) 100,00 %
01.11.2016 14:22 10,6 C 76 % 1020,1 hPa 0,0 l/m 0,0 km/h (0 Bft) NO 43 2 min 0,000 mm 0,6 UV-I 306 W/m 6,5 C 10,6 C 1,6 km/h (1 Bft) 97,37 %
01.11.2016 14:24 10,6 C 78 % 1020,0 hPa 0,0 l/m 1,1 km/h (1 Bft) NO 43 2 min 0,000 mm 0,6 UV-I 303 W/m 6,9 C 10,6 C 3,2 km/h (1 Bft) 100,00 %
01.11.2016 14:26 10,7 C 77 % 1020,0 hPa 0,0 l/m 2,6 km/h (1 Bft) NO 43 2 min 0,000 mm 0,6 UV-I 302 W/m 6,8 C 10,7 C 4,8 km/h (1 Bft) 100,00 %
01.11.2016 14:28 10,7 C 77 % 1019,9 hPa 0,0 l/m 1,9 km/h (1 Bft) NO 43 2 min 0,000 mm 0,6 UV-I 298 W/m 6,8 C 10,7 C 3,2 km/h (1 Bft) 100,00 %
01.11.2016 14:30 10,7 C 77 % 1019,9 hPa 0,0 l/m 0,5 km/h (0 Bft) NO 43 2 min 0,000 mm 0,5 UV-I 294 W/m 6,8 C 10,7 C 1,6 km/h (1 Bft) 100,00 %
01.11.2016 14:32 10,7 C 77 % 1019,9 hPa 0,0 l/m 0,2 km/h (0 Bft) NO 43 2 min 0,000 mm 0,5 UV-I 288 W/m 6,8 C 10,7 C 1,6 km/h (1 Bft) 100,00 %
01.11.2016 14:34 10,7 C 77 % 1019,9 hPa 0,0 l/m 0,4 km/h (0 Bft) NO 43 2 min 0,000 mm 0,5 UV-I 283 W/m 6,8 C 10,7 C 1,6 km/h (1 Bft) 100,00 %
01.11.2016 14:36 10,7 C 78 % 1019,8 hPa 0,0 l/m 2,5 km/h (1 Bft) NO 43 2 min 0,000 mm 0,5 UV-I 281 W/m 7,0 C 10,7 C 3,2 km/h (1 Bft) 97,87 %
01.11.2016 14:38 10,7 C 77 % 1019,8 hPa 0,0 l/m 3,0 km/h (1 Bft) NO 43 2 min 0,000 mm 0,5 UV-I 277 W/m 6,8 C 10,7 C 4,8 km/h (1 Bft) 100,00 %
01.11.2016 14:40 10,7 C 78 % 1019,8 hPa 0,0 l/m 2,1 km/h (1 Bft) NO 43 2 min 0,000 mm 0,5 UV-I 270 W/m 7,0 C 10,7 C 3,2 km/h (1 Bft) 100,00 %
01.11.2016 14:42 10,7 C 77 % 1019,7 hPa 0,0 l/m 2,2 km/h (1 Bft) NO 43 2 min 0,000 mm 0,5 UV-I 265 W/m 6,8 C 10,7 C 3,2 km/h (1 Bft) 100,00 %
01.11.2016 14:44 10,7 C 75 % 1019,7 hPa 0,0 l/m 0,5 km/h (0 Bft) NO 43 2 min 0,000 mm 0,3 UV-I 260 W/m 6,5 C 10,7 C 1,6 km/h (1 Bft) 100,00 %
01.11.2016 14:46 10,7 C 76 % 1019,7 hPa 0,0 l/m 2,0 km/h (1 Bft) NO 43 2 min 0,000 mm 0,0 UV-I 252 W/m 6,6 C 10,7 C 3,2 km/h (1 Bft) 100,00 %
01.11.2016 14:48 10,7 C 76 % 1019,6 hPa 0,0 l/m 1,6 km/h (1 Bft) NO 43 2 min 0,000 mm 0,0 UV-I 250 W/m 6,6 C 10,7 C 3,2 km/h (1 Bft) 97,87 %
01.11.2016 14:50 10,7 C 76 % 1019,6 hPa 0,0 l/m 1,8 km/h (1 Bft) NO 43 2 min 0,000 mm 0,0 UV-I 237 W/m 6,6 C 10,7 C 3,2 km/h (1 Bft) 100,00 %
01.11.2016 14:52 10,7 C 76 % 1019,6 hPa 0,0 l/m 2,5 km/h (1 Bft) NO 43 2 min 0,000 mm 0,0 UV-I 233 W/m 6,6 C 10,7 C 4,8 km/h (1 Bft) 100,00 %
01.11.2016 14:54 10,7 C 76 % 1019,5 hPa 0,0 l/m 2,0 km/h (1 Bft) NO 43 2 min 0,000 mm 0,0 UV-I 230 W/m 6,6 C 10,7 C 3,2 km/h (1 Bft) 100,00 %
01.11.2016 14:56 10,7 C 75 % 1019,5 hPa 0,0 l/m 2,8 km/h (1 Bft) NO 46 2 min 0,000 mm 0,0 UV-I 226 W/m 6,5 C 10,7 C 4,8 km/h (1 Bft) 100,00 %
01.11.2016 14:58 10,8 C 74 % 1019,5 hPa 0,0 l/m 1,8 km/h (1 Bft) NO 46 2 min 0,000 mm 0,0 UV-I 217 W/m 6,4 C 10,8 C 3,2 km/h (1 Bft) 100,00 %
01.11.2016 15:00 10,7 C 74 % 1019,4 hPa 0,0 l/m 1,2 km/h (1 Bft) NO 46 2 min 0,127 mm 0,0 UV-I 207 W/m 6,3 C 10,7 C 3,2 km/h (1 Bft) 97,87 %
01.11.2016 15:02 10,7 C 75 % 1019,4 hPa 0,0 l/m 1,2 km/h (1 Bft) NO 46 2 min 0,000 mm 0,0 UV-I 213 W/m 6,5 C 10,7 C 3,2 km/h (1 Bft) 100,00 %
01.11.2016 15:04 10,7 C 75 % 1019,4 hPa 0,0 l/m 1,0 km/h (0 Bft) NO 46 2 min 0,000 mm 0,0 UV-I 206 W/m 6,5 C 10,7 C 3,2 km/h (1 Bft) 100,00 %
01.11.2016 15:06 10,7 C 75 % 1019,3 hPa 0,0 l/m 1,1 km/h (1 Bft) O-NO 61 2 min 0,000 mm 0,0 UV-I 206 W/m 6,5 C 10,7 C 3,2 km/h (1 Bft) 100,00 %
01.11.2016 15:08 10,7 C 75 % 1019,3 hPa 0,0 l/m 0,6 km/h (0 Bft) O-NO 61 2 min 0,000 mm 0,0 UV-I 203 W/m 6,5 C 10,7 C 1,6 km/h (1 Bft) 100,00 %
01.11.2016 15:10 10,7 C 76 % 1019,2 hPa 0,0 l/m 1,1 km/h (1 Bft) O-NO 61 2 min 0,000 mm 0,0 UV-I 190 W/m 6,6 C 10,7 C 3,2 km/h (1 Bft) 100,00 %
01.11.2016 15:12 10,7 C 77 % 1019,2 hPa 0,0 l/m 1,6 km/h (1 Bft) O-NO 61 2 min 0,000 mm 0,0 UV-I 187 W/m 6,8 C 10,7 C 3,2 km/h (1 Bft) 100,00 %
01.11.2016 15:14 10,7 C 77 % 1019,1 hPa 0,0 l/m 0,2 km/h (0 Bft) O-NO 61 2 min 0,000 mm 0,0 UV-I 189 W/m 6,8 C 10,7 C 1,6 km/h (1 Bft) 100,00 %
01.11.2016 15:16 10,7 C 77 % 1019,2 hPa 0,0 l/m 0,8 km/h (0 Bft) O-NO 61 2 min 0,000 mm 0,0 UV-I 186 W/m 6,8 C 10,7 C 1,6 km/h (1 Bft) 100,00 %
01.11.2016 15:18 10,7 C 77 % 1019,1 hPa 0,0 l/m 0,5 km/h (0 Bft) O-NO 61 2 min 0,000 mm 0,0 UV-I 179 W/m 6,8 C 10,7 C 1,6 km/h (1 Bft) 100,00 %
01.11.2016 15:20 10,7 C 77 % 1019,1 hPa 0,0 l/m 0,3 km/h (0 Bft) O-NO 61 2 min 0,000 mm 0,0 UV-I 175 W/m 6,8 C 10,7 C 1,6 km/h (1 Bft) 100,00 %
01.11.2016 15:22 10,6 C 78 % 1019,0 hPa 0,0 l/m 1,4 km/h (1 Bft) O-NO 61 2 min 0,000 mm 0,0 UV-I 168 W/m 6,9 C 10,6 C 3,2 km/h (1 Bft) 98,21 %
01.11.2016 15:24 10,6 C 77 % 1019,0 hPa 0,0 l/m 1,7 km/h (1 Bft) O-NO 61 2 min 0,000 mm 0,0 UV-I 160 W/m 6,7 C 10,6 C 3,2 km/h (1 Bft) 100,00 %
01.11.2016 15:26 10,6 C 77 % 1019,0 hPa 0,0 l/m 1,6 km/h (1 Bft) O-NO 61 2 min 0,000 mm 0,0 UV-I 159 W/m 6,7 C 10,6 C 3,2 km/h (1 Bft) 97,37 %
01.11.2016 15:28 10,6 C 78 % 1019,0 hPa 0,0 l/m 1,2 km/h (1 Bft) O-NO 61 2 min 0,000 mm 0,0 UV-I 158 W/m 6,9 C 10,6 C 3,2 km/h (1 Bft) 100,00 %
01.11.2016 15:30 10,6 C 76 % 1018,9 hPa 0,0 l/m 1,5 km/h (1 Bft) O-NO 61 2 min 0,000 mm 0,0 UV-I 153 W/m 6,5 C 10,6 C 3,2 km/h (1 Bft) 100,00 %
01.11.2016 15:32 10,6 C 77 % 1018,9 hPa 0,0 l/m 2,3 km/h (1 Bft) O-NO 61 2 min 0,000 mm 0,0 UV-I 142 W/m 6,7 C 10,6 C 3,2 km/h (1 Bft) 100,00 %
01.11.2016 15:34 10,6 C 76 % 1018,8 hPa 0,0 l/m 2,3 km/h (1 Bft) O-NO 61 2 min 0,000 mm 0,0 UV-I 145 W/m 6,5 C 10,6 C 3,2 km/h (1 Bft) 100,00 %
01.11.2016 15:36 10,6 C 77 % 1018,8 hPa 0,0 l/m 2,0 km/h (1 Bft) O-NO 61 2 min 0,000 mm 0,0 UV-I 143 W/m 6,7 C 10,6 C 4,8 km/h (1 Bft) 98,00 %
01.11.2016 15:38 10,6 C 76 % 1018,8 hPa 0,0 l/m 2,2 km/h (1 Bft) O-NO 61 2 min 0,000 mm 0,0 UV-I 137 W/m 6,5 C 10,6 C 3,2 km/h (1 Bft) 100,00 %
01.11.2016 15:40 10,6 C 77 % 1018,7 hPa 0,0 l/m 2,2 km/h (1 Bft) O-NO 61 2 min 0,000 mm 0,0 UV-I 132 W/m 6,7 C 10,6 C 3,2 km/h (1 Bft) 100,00 %
01.11.2016 15:42 10,6 C 78 % 1018,7 hPa 0,0 l/m 1,8 km/h (1 Bft) O-NO 61 2 min 0,000 mm 0,0 UV-I 128 W/m 6,9 C 10,6 C 3,2 km/h (1 Bft) 100,00 %
01.11.2016 15:44 10,5 C 78 % 1018,7 hPa 0,0 l/m 1,0 km/h (0 Bft) O-NO 61 2 min 0,000 mm 0,0 UV-I 116 W/m 6,8 C 10,5 C 3,2 km/h (1 Bft) 100,00 %
01.11.2016 15:46 10,5 C 78 % 1018,7 hPa 0,0 l/m 0,0 km/h (0 Bft) O-NO 61 2 min 0,000 mm 0,0 UV-I 115 W/m 6,8 C 10,5 C 0,0 km/h (0 Bft) 100,00 %
01.11.2016 15:48 10,4 C 78 % 1018,7 hPa 0,0 l/m 0,0 km/h (0 Bft) O-NO 61 2 min 0,000 mm 0,0 UV-I 110 W/m 6,7 C 10,4 C 1,6 km/h (1 Bft) 98,18 %
01.11.2016 15:50 10,4 C 78 % 1018,7 hPa 0,0 l/m 0,0 km/h (0 Bft) O-NO 61 2 min 0,000 mm 0,0 UV-I 102 W/m 6,7 C 10,4 C 0,0 km/h (0 Bft) 100,00 %
01.11.2016 15:52 10,4 C 78 % 1018,7 hPa 0,0 l/m 0,5 km/h (0 Bft) O-NO 61 2 min 0,000 mm 0,0 UV-I 99 W/m 6,7 C 10,4 C 1,6 km/h (1 Bft) 100,00 %
01.11.2016 15:54 10,4 C 78 % 1018,7 hPa 0,0 l/m 1,0 km/h (0 Bft) O-NO 61 2 min 0,000 mm 0,0 UV-I 103 W/m 6,7 C 10,4 C 3,2 km/h (1 Bft) 100,00 %
01.11.2016 15:56 10,4 C 78 % 1018,6 hPa 0,0 l/m 2,0 km/h (1 Bft) O-NO 61 2 min 0,000 mm 0,0 UV-I 98 W/m 6,7 C 10,4 C 3,2 km/h (1 Bft) 100,00 %
01.11.2016 15:58 10,4 C 80 % 1018,5 hPa 0,0 l/m 1,8 km/h (1 Bft) O-NO 61 2 min 0,000 mm 0,0 UV-I 78 W/m 7,1 C 10,4 C 3,2 km/h (1 Bft) 100,00 %
01.11.2016 16:00 10,3 C 82 % 1018,5 hPa 0,0 l/m 1,9 km/h (1 Bft) O-NO 61 2 min 0,000 mm 0,0 UV-I 82 W/m 7,4 C 10,3 C 3,2 km/h (1 Bft) 100,00 %
01.11.2016 16:02 10,2 C 83 % 1018,5 hPa 0,0 l/m 1,3 km/h (1 Bft) O-NO 61 2 min 0,076 mm 0,0 UV-I 91 W/m 7,4 C 10,2 C 3,2 km/h (1 Bft) 96,00 %
01.11.2016 16:04 10,1 C 82 % 1018,5 hPa 0,0 l/m 1,1 km/h (1 Bft) O-NO 61 2 min 0,000 mm 0,0 UV-I 90 W/m 7,2 C 10,1 C 1,6 km/h (1 Bft) 100,00 %
01.11.2016 16:06 10,0 C 82 % 1018,5 hPa 0,0 l/m 0,3 km/h (0 Bft) O-NO 61 2 min 0,000 mm 0,0 UV-I 84 W/m 7,1 C 10,0 C 1,6 km/h (1 Bft) 97,73 %
01.11.2016 16:08 10,0 C 79 % 1018,5 hPa 0,0 l/m 0,1 km/h (0 Bft) O-NO 61 2 min 0,000 mm 0,0 UV-I 82 W/m 6,5 C 10,0 C 1,6 km/h (1 Bft) 100,00 %
01.11.2016 16:10 10,1 C 79 % 1018,5 hPa 0,0 l/m 0,0 km/h (0 Bft) O-NO 61 2 min 0,000 mm 0,0 UV-I 71 W/m 6,6 C 10,1 C 0,0 km/h (0 Bft) 97,87 %
01.11.2016 16:12 10,1 C 79 % 1018,5 hPa 0,0 l/m 0,0 km/h (0 Bft) O-NO 61 2 min 0,000 mm 0,0 UV-I 73 W/m 6,6 C 10,1 C 0,0 km/h (0 Bft) 100,00 %
01.11.2016 16:14 10,1 C 79 % 1018,5 hPa 0,0 l/m 0,0 km/h (0 Bft) O-NO 61 2 min 0,000 mm 0,0 UV-I 70 W/m 6,6 C 10,1 C 0,0 km/h (0 Bft) 100,00 %
01.11.2016 16:16 10,1 C 80 % 1018,4 hPa 0,0 l/m 0,0 km/h (0 Bft) O-NO 61 2 min 0,000 mm 0,0 UV-I 65 W/m 6,8 C 10,1 C 0,0 km/h (0 Bft) 96,00 %
01.11.2016 16:18 10,0 C 82 % 1018,4 hPa 0,0 l/m 0,0 km/h (0 Bft) O-NO 61 2 min 0,000 mm 0,0 UV-I 54 W/m 7,1 C 10,0 C 0,0 km/h (0 Bft) 100,00 %
01.11.2016 16:20 9,9 C 83 % 1018,4 hPa 0,0 l/m 0,0 km/h (0 Bft) O-NO 61 2 min 0,000 mm 0,0 UV-I 46 W/m 7,2 C 9,9 C 0,0 km/h (0 Bft) 97,37 %
01.11.2016 16:22 9,7 C 84 % 1018,3 hPa 0,0 l/m 1,2 km/h (1 Bft) O-NO 61 2 min 0,000 mm 0,0 UV-I 43 W/m 7,1 C 9,7 C 3,2 km/h (1 Bft) 100,00 %
01.11.2016 16:24 9,5 C 85 % 1018,3 hPa 0,0 l/m 2,2 km/h (1 Bft) O-NO 61 2 min 0,000 mm 0,0 UV-I 39 W/m 7,1 C 9,5 C 3,2 km/h (1 Bft) 100,00 %
01.11.2016 16:26 9,4 C 85 % 1018,3 hPa 0,0 l/m 2,7 km/h (1 Bft) O-NO 61 2 min 0,000 mm 0,0 UV-I 33 W/m 7,0 C 9,4 C 4,8 km/h (1 Bft) 100,00 %
01.11.2016 16:28 9,4 C 83 % 1018,3 hPa 0,0 l/m 0,6 km/h (0 Bft) O-NO 61 2 min 0,000 mm 0,0 UV-I 31 W/m 6,7 C 9,4 C 1,6 km/h (1 Bft) 98,11 %
01.11.2016 16:30 9,4 C 83 % 1018,3 hPa 0,0 l/m 0,0 km/h (0 Bft) O-NO 61 2 min 0,000 mm 0,0 UV-I 27 W/m 6,7 C 9,4 C 1,6 km/h (1 Bft) 100,00 %
01.11.2016 16:32 9,4 C 83 % 1018,3 hPa 0,0 l/m 0,0 km/h (0 Bft) O-NO 61 2 min 0,000 mm 0,0 UV-I 24 W/m 6,7 C 9,4 C 1,6 km/h (1 Bft) 100,00 %
01.11.2016 16:34 9,4 C 82 % 1018,3 hPa 0,0 l/m 0,0 km/h (0 Bft) O-NO 61 0 min 0,000 mm 0,0 UV-I 20 W/m 6,5 C 9,4 C 0,0 km/h (0 Bft) 100,00 %
01.11.2016 16:36 9,3 C 82 % 1018,2 hPa 0,0 l/m 0,0 km/h (0 Bft) O-NO 61 0 min 0,000 mm 0,0 UV-I 17 W/m 6,4 C 9,3 C 0,0 km/h (0 Bft) 100,00 %
01.11.2016 16:38 9,3 C 82 % 1018,3 hPa 0,0 l/m 0,0 km/h (0 Bft) O-NO 61 0 min 0,000 mm 0,0 UV-I 13 W/m 6,4 C 9,3 C 0,0 km/h (0 Bft) 97,87 %
01.11.2016 16:40 9,2 C 82 % 1018,2 hPa 0,0 l/m 0,1 km/h (0 Bft) O-NO 61 0 min 0,000 mm 0,0 UV-I 12 W/m 6,3 C 9,2 C 1,6 km/h (1 Bft) 98,00 %
01.11.2016 16:42 9,2 C 82 % 1018,2 hPa 0,0 l/m 0,0 km/h (0 Bft) O-NO 61 0 min 0,000 mm 0,0 UV-I 11 W/m 6,3 C 9,2 C 0,0 km/h (0 Bft) 97,87 %
01.11.2016 16:44 9,1 C 84 % 1018,2 hPa 0,0 l/m 0,0 km/h (0 Bft) O-NO 61 0 min 0,000 mm 0,0 UV-I 8 W/m 6,5 C 9,1 C 0,0 km/h (0 Bft) 94,74 %
01.11.2016 16:46 8,8 C 84 % 1018,2 hPa 0,0 l/m 0,0 km/h (0 Bft) O-NO 61 0 min 0,000 mm 0,0 UV-I 7 W/m 6,2 C 8,8 C 0,0 km/h (0 Bft) 98,00 %
01.11.2016 16:48 8,6 C 85 % 1018,2 hPa 0,0 l/m 0,0 km/h (0 Bft) O-NO 61 0 min 0,000 mm 0,0 UV-I 7 W/m 6,2 C 8,6 C 0,0 km/h (0 Bft) 97,73 %
01.11.2016 16:50 8,4 C 86 % 1018,1 hPa 0,0 l/m 0,0 km/h (0 Bft) O-NO 61 0 min 0,000 mm 0,0 UV-I 6 W/m 6,2 C 8,4 C 0,0 km/h (0 Bft) 96,23 %
01.11.2016 16:52 8,2 C 87 % 1018,1 hPa 0,0 l/m 0,0 km/h (0 Bft) O-NO 61 0 min 0,000 mm 0,0 UV-I 5 W/m 6,2 C 8,2 C 0,0 km/h (0 Bft) 95,74 %
01.11.2016 16:54 8,1 C 87 % 1018,2 hPa 0,0 l/m 0,4 km/h (0 Bft) O-NO 61 0 min 0,000 mm 0,0 UV-I 5 W/m 6,1 C 8,1 C 3,2 km/h (1 Bft) 94,74 %
01.11.2016 16:56 8,0 C 88 % 1018,2 hPa 0,0 l/m 2,0 km/h (1 Bft) O-NO 61 0 min 0,000 mm 0,0 UV-I 6 W/m 6,1 C 8,0 C 3,2 km/h (1 Bft) 96,00 %
01.11.2016 16:58 8,1 C 88 % 1018,2 hPa 0,0 l/m 1,1 km/h (1 Bft) O-NO 61 0 min 0,000 mm 0,0 UV-I 7 W/m 6,2 C 8,1 C 1,6 km/h (1 Bft) 98,00 %
01.11.2016 17:00 8,0 C 88 % 1018,2 hPa 0,0 l/m 0,4 km/h (0 Bft) O-NO 61 0 min 0,026 mm 0,0 UV-I 0 W/m 6,1 C 8,0 C 1,6 km/h (1 Bft) 97,73 %
01.11.2016 17:02 7,7 C 87 % 1018,0 hPa 0,0 l/m 0,0 km/h (0 Bft) O-NO 61 0 min 0,000 mm 0,0 UV-I 5 W/m 5,7 C 7,7 C 0,0 km/h (0 Bft) 98,00 %
01.11.2016 17:04 7,6 C 88 % 1018,0 hPa 0,0 l/m 0,0 km/h (0 Bft) O-NO 61 0 min 0,000 mm 0,0 UV-I 5 W/m 5,7 C 7,6 C 0,0 km/h (0 Bft) 98,00 %
01.11.2016 17:06 7,4 C 89 % 1018,0 hPa 0,0 l/m 0,1 km/h (0 Bft) O-NO 61 0 min 0,000 mm 0,0 UV-I 0 W/m 5,7 C 7,4 C 1,6 km/h (1 Bft) 97,22 %
01.11.2016 17:08 7,4 C 89 % 1018,0 hPa 0,0 l/m 0,5 km/h (0 Bft) O-NO 61 0 min 0,000 mm 0,0 UV-I 0 W/m 5,7 C 7,4 C 1,6 km/h (1 Bft) 98,11 %
01.11.2016 17:10 7,3 C 89 % 1018,1 hPa 0,0 l/m 0,0 km/h (0 Bft) O-NO 61 0 min 0,000 mm 0,0 UV-I 0 W/m 5,6 C 7,3 C 0,0 km/h (0 Bft) 93,62 %
01.11.2016 17:12 7,3 C 89 % 1018,1 hPa 0,0 l/m 0,0 km/h (0 Bft) O-NO 61 0 min 0,000 mm 0,0 UV-I 0 W/m 5,6 C 7,3 C 1,6 km/h (1 Bft) 98,00 %
01.11.2016 17:14 7,2 C 89 % 1018,1 hPa 0,0 l/m 0,0 km/h (0 Bft) O-NO 61 0 min 0,000 mm 0,0 UV-I 0 W/m 5,5 C 7,2 C 0,0 km/h (0 Bft) 98,00 %
01.11.2016 17:16 7,2 C 90 % 1018,1 hPa 0,0 l/m 0,0 km/h (0 Bft) O-NO 61 0 min 0,000 mm 0,0 UV-I 0 W/m 5,7 C 7,2 C 0,0 km/h (0 Bft) 95,74 %
01.11.2016 17:18 7,1 C 90 % 1018,1 hPa 0,0 l/m 0,9 km/h (0 Bft) O-NO 61 0 min 0,000 mm 0,0 UV-I 0 W/m 5,6 C 7,1 C 3,2 km/h (1 Bft) 97,87 %
01.11.2016 17:20 7,0 C 90 % 1018,1 hPa 0,0 l/m 0,7 km/h (0 Bft) O-NO 61 0 min 0,000 mm 0,0 UV-I 0 W/m 5,5 C 7,0 C 1,6 km/h (1 Bft) 97,56 %
01.11.2016 17:22 6,9 C 90 % 1018,0 hPa 0,0 l/m 0,8 km/h (0 Bft) O-NO 61 0 min 0,000 mm 0,0 UV-I 0 W/m 5,4 C 6,9 C 1,6 km/h (1 Bft) 98,00 %
01.11.2016 17:24 6,8 C 90 % 1018,0 hPa 0,0 l/m 1,4 km/h (1 Bft) O-NO 61 0 min 0,000 mm 0,0 UV-I 0 W/m 5,3 C 6,8 C 1,6 km/h (1 Bft) 95,74 %
01.11.2016 17:26 6,7 C 91 % 1018,0 hPa 0,0 l/m 1,4 km/h (1 Bft) O-NO 61 0 min 0,000 mm 0,0 UV-I 0 W/m 5,3 C 6,7 C 1,6 km/h (1 Bft) 98,00 %
01.11.2016 17:28 6,7 C 91 % 1018,0 hPa 0,0 l/m 1,6 km/h (1 Bft) O-NO 61 0 min 0,000 mm 0,0 UV-I 0 W/m 5,3 C 6,7 C 3,2 km/h (1 Bft) 97,87 %
01.11.2016 17:30 6,7 C 91 % 1018,0 hPa 0,0 l/m 1,5 km/h (1 Bft) O-NO 61 0 min 0,000 mm 0,0 UV-I 0 W/m 5,3 C 6,7 C 3,2 km/h (1 Bft) 95,74 %
01.11.2016 17:32 6,6 C 91 % 1018,0 hPa 0,0 l/m 1,1 km/h (1 Bft) O-NO 61 0 min 0,000 mm 0,0 UV-I 0 W/m 5,2 C 6,6 C 3,2 km/h (1 Bft) 97,37 %
01.11.2016 17:34 6,7 C 92 % 1018,0 hPa 0,0 l/m 1,3 km/h (1 Bft) O-NO 61 0 min 0,000 mm 0,0 UV-I 0 W/m 5,5 C 6,7 C 3,2 km/h (1 Bft) 97,37 %
01.11.2016 17:36 6,6 C 91 % 1018,1 hPa 0,0 l/m 0,3 km/h (0 Bft) O-NO 61 0 min 0,000 mm 0,0 UV-I 0 W/m 5,2 C 6,6 C 1,6 km/h (1 Bft) 94,74 %
01.11.2016 17:38 6,6 C 91 % 1018,1 hPa 0,0 l/m 0,0 km/h (0 Bft) O-NO 61 0 min 0,000 mm 0,0 UV-I 0 W/m 5,2 C 6,6 C 1,6 km/h (1 Bft) 100,00 %
01.11.2016 17:40 6,4 C 90 % 1018,0 hPa 0,0 l/m 0,3 km/h (0 Bft) O-NO 61 0 min 0,000 mm 0,0 UV-I 0 W/m 4,9 C 6,4 C 1,6 km/h (1 Bft) 95,74 %
01.11.2016 17:42 6,3 C 91 % 1018,0 hPa 0,0 l/m 0,1 km/h (0 Bft) O-NO 61 0 min 0,000 mm 0,0 UV-I 0 W/m 4,9 C 6,3 C 1,6 km/h (1 Bft) 98,00 %
01.11.2016 17:44 6,2 C 92 % 1018,0 hPa 0,0 l/m 0,4 km/h (0 Bft) O-NO 61 0 min 0,000 mm 0,0 UV-I 0 W/m 5,0 C 6,2 C 1,6 km/h (1 Bft) 100,00 %
01.11.2016 17:46 6,2 C 92 % 1018,0 hPa 0,0 l/m 0,9 km/h (0 Bft) O-NO 61 0 min 0,000 mm 0,0 UV-I 0 W/m 5,0 C 6,2 C 3,2 km/h (1 Bft) 100,00 %
01.11.2016 17:48 6,2 C 92 % 1018,0 hPa 0,0 l/m 1,5 km/h (1 Bft) O-NO 61 0 min 0,000 mm 0,0 UV-I 0 W/m 5,0 C 6,2 C 3,2 km/h (1 Bft) 100,00 %
01.11.2016 17:50 6,3 C 92 % 1018,0 hPa 0,0 l/m 2,0 km/h (1 Bft) O-NO 61 0 min 0,000 mm 0,0 UV-I 0 W/m 5,1 C 6,3 C 3,2 km/h (1 Bft) 98,00 %
01.11.2016 17:52 6,4 C 92 % 1018,0 hPa 0,0 l/m 0,7 km/h (0 Bft) O-NO 61 0 min 0,000 mm 0,0 UV-I 0 W/m 5,2 C 6,4 C 1,6 km/h (1 Bft) 100,00 %
01.11.2016 17:54 6,5 C 92 % 1017,9 hPa 0,0 l/m 0,8 km/h (0 Bft) O-NO 61 0 min 0,000 mm 0,0 UV-I 0 W/m 5,3 C 6,5 C 1,6 km/h (1 Bft) 100,00 %
01.11.2016 17:56 6,5 C 91 % 1017,9 hPa 0,0 l/m 0,8 km/h (0 Bft) O-NO 61 0 min 0,000 mm 0,0 UV-I 0 W/m 5,1 C 6,5 C 1,6 km/h (1 Bft) 100,00 %
01.11.2016 17:58 6,4 C 91 % 1017,9 hPa 0,0 l/m 1,6 km/h (1 Bft) O-NO 61 0 min 0,000 mm 0,0 UV-I 0 W/m 5,0 C 6,4 C 3,2 km/h (1 Bft) 100,00 %
01.11.2016 18:00 6,2 C 91 % 1017,9 hPa 0,0 l/m 1,6 km/h (1 Bft) O-NO 61 0 min 0,000 mm 0,0 UV-I 0 W/m 4,8 C 6,2 C 3,2 km/h (1 Bft) 100,00 %
01.11.2016 18:02 6,1 C 91 % 1018,0 hPa 0,0 l/m 1,8 km/h (1 Bft) O-NO 61 0 min 0,000 mm 0,0 UV-I 0 W/m 4,7 C 6,1 C 3,2 km/h (1 Bft) 97,87 %
01.11.2016 18:04 6,0 C 92 % 1017,9 hPa 0,0 l/m 1,7 km/h (1 Bft) O-NO 61 0 min 0,000 mm 0,0 UV-I 0 W/m 4,8 C 6,0 C 3,2 km/h (1 Bft) 98,11 %
01.11.2016 18:06 5,9 C 92 % 1017,9 hPa 0,0 l/m 1,0 km/h (0 Bft) O-NO 61 0 min 0,000 mm 0,0 UV-I 0 W/m 4,7 C 5,9 C 3,2 km/h (1 Bft) 100,00 %
01.11.2016 18:08 6,0 C 93 % 1017,9 hPa 0,0 l/m 1,4 km/h (1 Bft) O-NO 61 0 min 0,000 mm 0,0 UV-I 0 W/m 5,0 C 6,0 C 3,2 km/h (1 Bft) 100,00 %
01.11.2016 18:10 6,1 C 93 % 1017,9 hPa 0,0 l/m 1,8 km/h (1 Bft) O-NO 61 0 min 0,000 mm 0,0 UV-I 0 W/m 5,1 C 6,1 C 3,2 km/h (1 Bft) 100,00 %
01.11.2016 18:12 6,0 C 92 % 1017,9 hPa 0,0 l/m 1,1 km/h (1 Bft) O-NO 61 0 min 0,000 mm 0,0 UV-I 0 W/m 4,8 C 6,0 C 1,6 km/h (1 Bft) 100,00 %
01.11.2016 18:14 5,9 C 92 % 1017,8 hPa 0,0 l/m 1,1 km/h (1 Bft) O-NO 61 0 min 0,000 mm 0,0 UV-I 0 W/m 4,7 C 5,9 C 3,2 km/h (1 Bft) 100,00 %
01.11.2016 18:16 5,8 C 92 % 1017,8 hPa 0,0 l/m 0,4 km/h (0 Bft) O-NO 61 0 min 0,000 mm 0,0 UV-I 0 W/m 4,6 C 5,8 C 1,6 km/h (1 Bft) 100,00 %
01.11.2016 18:18 5,8 C 92 % 1017,8 hPa 0,0 l/m 0,9 km/h (0 Bft) O-NO 61 0 min 0,000 mm 0,0 UV-I 0 W/m 4,6 C 5,8 C 1,6 km/h (1 Bft) 100,00 %
01.11.2016 18:20 5,9 C 93 % 1017,8 hPa 0,0 l/m 0,1 km/h (0 Bft) O-NO 61 0 min 0,000 mm 0,0 UV-I 0 W/m 4,9 C 5,9 C 1,6 km/h (1 Bft) 100,00 %
01.11.2016 18:22 6,0 C 93 % 1017,8 hPa 0,0 l/m 0,9 km/h (0 Bft) O-NO 61 0 min 0,000 mm 0,0 UV-I 0 W/m 5,0 C 6,0 C 1,6 km/h (1 Bft) 97,56 %
01.11.2016 18:24 6,1 C 93 % 1017,8 hPa 0,0 l/m 1,1 km/h (1 Bft) O-NO 61 0 min 0,000 mm 0,0 UV-I 0 W/m 5,1 C 6,1 C 1,6 km/h (1 Bft) 100,00 %
01.11.2016 18:26 5,9 C 92 % 1017,8 hPa 0,0 l/m 1,1 km/h (1 Bft) O 86 0 min 0,000 mm 0,0 UV-I 0 W/m 4,7 C 5,9 C 1,6 km/h (1 Bft) 100,00 %
01.11.2016 18:28 5,8 C 92 % 1017,7 hPa 0,0 l/m 1,4 km/h (1 Bft) O-SO 109 0 min 0,000 mm 0,0 UV-I 0 W/m 4,6 C 5,8 C 3,2 km/h (1 Bft) 100,00 %
01.11.2016 18:30 5,7 C 92 % 1017,7 hPa 0,0 l/m 2,0 km/h (1 Bft) O-SO 113 0 min 0,000 mm 0,0 UV-I 0 W/m 4,5 C 5,7 C 3,2 km/h (1 Bft) 98,00 %
01.11.2016 18:32 5,8 C 93 % 1017,7 hPa 0,0 l/m 2,8 km/h (1 Bft) O-SO 121 0 min 0,000 mm 0,0 UV-I 0 W/m 4,8 C 5,8 C 3,2 km/h (1 Bft) 100,00 %
01.11.2016 18:34 5,8 C 93 % 1017,7 hPa 0,0 l/m 2,1 km/h (1 Bft) SO 124 0 min 0,000 mm 0,0 UV-I 0 W/m 4,8 C 5,8 C 3,2 km/h (1 Bft) 98,00 %
01.11.2016 18:36 5,8 C 93 % 1017,7 hPa 0,0 l/m 2,4 km/h (1 Bft) SO 125 0 min 0,000 mm 0,0 UV-I 0 W/m 4,8 C 5,8 C 4,8 km/h (1 Bft) 100,00 %
01.11.2016 18:38 5,9 C 93 % 1017,6 hPa 0,0 l/m 1,7 km/h (1 Bft) SO 125 0 min 0,000 mm 0,0 UV-I 0 W/m 4,9 C 5,9 C 3,2 km/h (1 Bft) 100,00 %
01.11.2016 18:40 6,0 C 93 % 1017,7 hPa 0,0 l/m 1,7 km/h (1 Bft) SO 125 0 min 0,000 mm 0,0 UV-I 0 W/m 5,0 C 6,0 C 3,2 km/h (1 Bft) 97,87 %
01.11.2016 18:42 6,0 C 93 % 1017,6 hPa 0,0 l/m 2,4 km/h (1 Bft) SO 125 0 min 0,000 mm 0,0 UV-I 0 W/m 5,0 C 6,0 C 3,2 km/h (1 Bft) 100,00 %
01.11.2016 18:44 5,9 C 92 % 1017,6 hPa 0,0 l/m 2,2 km/h (1 Bft) SO 125 0 min 0,000 mm 0,0 UV-I 0 W/m 4,7 C 5,9 C 3,2 km/h (1 Bft) 100,00 %
01.11.2016 18:46 5,8 C 92 % 1017,7 hPa 0,0 l/m 2,4 km/h (1 Bft) SO 125 0 min 0,000 mm 0,0 UV-I 0 W/m 4,6 C 5,8 C 3,2 km/h (1 Bft) 100,00 %
01.11.2016 18:48 5,8 C 93 % 1017,7 hPa 0,0 l/m 2,4 km/h (1 Bft) SO 125 0 min 0,000 mm 0,0 UV-I 0 W/m 4,8 C 5,8 C 3,2 km/h (1 Bft) 98,21 %
01.11.2016 18:50 5,8 C 93 % 1017,7 hPa 0,0 l/m 2,6 km/h (1 Bft) SO 125 0 min 0,000 mm 0,0 UV-I 0 W/m 4,8 C 5,8 C 3,2 km/h (1 Bft) 100,00 %
01.11.2016 18:52 5,7 C 93 % 1017,6 hPa 0,0 l/m 3,4 km/h (1 Bft) SO 128 0 min 0,000 mm 0,0 UV-I 0 W/m 4,7 C 5,7 C 4,8 km/h (1 Bft) 100,00 %
01.11.2016 18:54 5,6 C 93 % 1017,6 hPa 0,0 l/m 3,4 km/h (1 Bft) SO 128 0 min 0,000 mm 0,0 UV-I 0 W/m 4,6 C 5,6 C 4,8 km/h (1 Bft) 97,87 %
01.11.2016 18:56 5,6 C 93 % 1017,6 hPa 0,0 l/m 2,8 km/h (1 Bft) SO 139 0 min 0,000 mm 0,0 UV-I 0 W/m 4,6 C 5,6 C 6,4 km/h (2 Bft) 97,87 %
01.11.2016 18:58 5,5 C 93 % 1017,6 hPa 0,0 l/m 1,8 km/h (1 Bft) SO 139 0 min 0,000 mm 0,0 UV-I 0 W/m 4,5 C 5,5 C 3,2 km/h (1 Bft) 98,11 %
01.11.2016 19:00 5,5 C 94 % 1017,5 hPa 0,0 l/m 1,7 km/h (1 Bft) SO 139 0 min 0,000 mm 0,0 UV-I 0 W/m 4,6 C 5,5 C 3,2 km/h (1 Bft) 97,56 %
01.11.2016 19:02 5,5 C 93 % 1017,5 hPa 0,0 l/m 1,4 km/h (1 Bft) SO 139 0 min 0,000 mm 0,0 UV-I 0 W/m 4,5 C 5,5 C 3,2 km/h (1 Bft) 100,00 %
01.11.2016 19:04 5,5 C 93 % 1017,5 hPa 0,0 l/m 1,8 km/h (1 Bft) SO 139 0 min 0,000 mm 0,0 UV-I 0 W/m 4,5 C 5,5 C 3,2 km/h (1 Bft) 100,00 %
01.11.2016 19:06 5,5 C 94 % 1017,5 hPa 0,0 l/m 2,3 km/h (1 Bft) SO 139 0 min 0,000 mm 0,0 UV-I 0 W/m 4,6 C 5,5 C 3,2 km/h (1 Bft) 100,00 %
01.11.2016 19:08 5,6 C 94 % 1017,4 hPa 0,0 l/m 2,5 km/h (1 Bft) SO 139 0 min 0,000 mm 0,0 UV-I 0 W/m 4,7 C 5,6 C 3,2 km/h (1 Bft) 100,00 %
01.11.2016 19:10 5,6 C 94 % 1017,4 hPa 0,0 l/m 2,8 km/h (1 Bft) SO 139 0 min 0,000 mm 0,0 UV-I 0 W/m 4,7 C 5,6 C 3,2 km/h (1 Bft) 98,00 %
01.11.2016 19:12 5,5 C 94 % 1017,5 hPa 0,0 l/m 3,1 km/h (1 Bft) SO 139 0 min 0,000 mm 0,0 UV-I 0 W/m 4,6 C 5,5 C 3,2 km/h (1 Bft) 100,00 %
01.11.2016 19:14 5,4 C 94 % 1017,4 hPa 0,0 l/m 3,2 km/h (1 Bft) SO 139 0 min 0,000 mm 0,0 UV-I 0 W/m 4,5 C 5,4 C 4,8 km/h (1 Bft) 100,00 %
01.11.2016 19:16 5,3 C 94 % 1017,4 hPa 0,0 l/m 3,0 km/h (1 Bft) SO 139 0 min 0,000 mm 0,0 UV-I 0 W/m 4,4 C 5,3 C 4,8 km/h (1 Bft) 100,00 %
01.11.2016 19:18 5,3 C 94 % 1017,4 hPa 0,0 l/m 3,7 km/h (1 Bft) SO 140 0 min 0,000 mm 0,0 UV-I 0 W/m 4,4 C 5,3 C 4,8 km/h (1 Bft) 100,00 %
01.11.2016 19:20 5,2 C 94 % 1017,4 hPa 0,0 l/m 3,4 km/h (1 Bft) SO 140 0 min 0,000 mm 0,0 UV-I 0 W/m 4,3 C 5,2 C 4,8 km/h (1 Bft) 100,00 %
01.11.2016 19:22 5,2 C 94 % 1017,4 hPa 0,0 l/m 3,5 km/h (1 Bft) SO 140 0 min 0,000 mm 0,0 UV-I 0 W/m 4,3 C 5,2 C 4,8 km/h (1 Bft) 95,74 %
01.11.2016 19:24 5,3 C 95 % 1017,5 hPa 0,0 l/m 4,2 km/h (1 Bft) S-SO 148 0 min 0,000 mm 0,0 UV-I 0 W/m 4,6 C 5,3 C 6,4 km/h (2 Bft) 98,00 %
01.11.2016 19:26 5,3 C 95 % 1017,5 hPa 0,0 l/m 4,1 km/h (1 Bft) S-SO 151 0 min 0,000 mm 0,0 UV-I 0 W/m 4,6 C 5,3 C 4,8 km/h (1 Bft) 97,37 %
01.11.2016 19:28 5,4 C 95 % 1017,4 hPa 0,0 l/m 3,1 km/h (1 Bft) S-SO 151 0 min 0,000 mm 0,0 UV-I 0 W/m 4,7 C 5,4 C 4,8 km/h (1 Bft) 94,34 %
01.11.2016 19:30 5,4 C 95 % 1017,4 hPa 0,0 l/m 3,2 km/h (1 Bft) S-SO 151 0 min 0,000 mm 0,0 UV-I 0 W/m 4,7 C 5,4 C 4,8 km/h (1 Bft) 97,87 %
01.11.2016 19:32 5,3 C 94 % 1017,4 hPa 0,0 l/m 3,7 km/h (1 Bft) S-SO 151 0 min 0,000 mm 0,0 UV-I 0 W/m 4,4 C 5,3 C 4,8 km/h (1 Bft) 96,00 %
01.11.2016 19:34 5,3 C 95 % 1017,4 hPa 0,0 l/m 3,1 km/h (1 Bft) S-SO 151 0 min 0,000 mm 0,0 UV-I 0 W/m 4,6 C 5,3 C 4,8 km/h (1 Bft) 97,56 %
01.11.2016 19:36 5,4 C 95 % 1017,3 hPa 0,0 l/m 2,6 km/h (1 Bft) S-SO 151 0 min 0,000 mm 0,0 UV-I 0 W/m 4,7 C 5,4 C 3,2 km/h (1 Bft) 97,87 %
01.11.2016 19:38 5,4 C 95 % 1017,3 hPa 0,0 l/m 2,8 km/h (1 Bft) S-SO 151 0 min 0,000 mm 0,0 UV-I 0 W/m 4,7 C 5,4 C 3,2 km/h (1 Bft) 91,49 %
01.11.2016 19:40 5,5 C 95 % 1017,3 hPa 0,0 l/m 3,1 km/h (1 Bft) S-SO 151 0 min 0,000 mm 0,0 UV-I 0 W/m 4,8 C 5,5 C 3,2 km/h (1 Bft) 98,00 %
01.11.2016 19:42 5,6 C 95 % 1017,3 hPa 0,0 l/m 3,1 km/h (1 Bft) S-SO 151 0 min 0,000 mm 0,0 UV-I 0 W/m 4,9 C 5,6 C 4,8 km/h (1 Bft) 97,44 %
01.11.2016 19:44 5,6 C 95 % 1017,1 hPa 0,0 l/m 2,2 km/h (1 Bft) S-SO 151 0 min 0,000 mm 0,0 UV-I 0 W/m 4,9 C 5,6 C 4,8 km/h (1 Bft) 98,08 %
01.11.2016 19:46 5,5 C 95 % 1017,2 hPa 0,0 l/m 1,4 km/h (1 Bft) S-SO 151 0 min 0,000 mm 0,0 UV-I 0 W/m 4,8 C 5,5 C 3,2 km/h (1 Bft) 94,34 %
01.11.2016 19:48 5,4 C 94 % 1017,2 hPa 0,0 l/m 1,6 km/h (1 Bft) S-SO 151 0 min 0,000 mm 0,0 UV-I 0 W/m 4,5 C 5,4 C 3,2 km/h (1 Bft) 97,44 %
01.11.2016 19:50 5,3 C 94 % 1017,1 hPa 0,0 l/m 3,2 km/h (1 Bft) S-SO 152 0 min 0,000 mm 0,0 UV-I 0 W/m 4,4 C 5,3 C 4,8 km/h (1 Bft) 97,87 %
01.11.2016 19:52 5,3 C 94 % 1017,1 hPa 0,0 l/m 3,2 km/h (1 Bft) S-SO 152 0 min 0,000 mm 0,0 UV-I 0 W/m 4,4 C 5,3 C 4,8 km/h (1 Bft) 98,00 %
01.11.2016 19:54 5,3 C 95 % 1017,1 hPa 0,0 l/m 2,7 km/h (1 Bft) S-SO 152 0 min 0,000 mm 0,0 UV-I 0 W/m 4,6 C 5,3 C 3,2 km/h (1 Bft) 98,00 %
01.11.2016 19:56 5,4 C 95 % 1017,1 hPa 0,0 l/m 2,8 km/h (1 Bft) S-SO 152 0 min 0,000 mm 0,0 UV-I 0 W/m 4,7 C 5,4 C 4,8 km/h (1 Bft) 97,37 %
01.11.2016 19:58 5,4 C 95 % 1017,1 hPa 0,0 l/m 2,2 km/h (1 Bft) S-SO 152 0 min 0,000 mm 0,0 UV-I 0 W/m 4,7 C 5,4 C 3,2 km/h (1 Bft) 98,00 %
01.11.2016 20:00 5,4 C 95 % 1017,1 hPa 0,0 l/m 2,0 km/h (1 Bft) S-SO 152 0 min 0,000 mm 0,0 UV-I 0 W/m 4,7 C 5,4 C 3,2 km/h (1 Bft) 94,34 %
01.11.2016 20:02 5,4 C 95 % 1017,0 hPa 0,0 l/m 2,7 km/h (1 Bft) S-SO 152 0 min 0,000 mm 0,0 UV-I 0 W/m 4,7 C 5,4 C 3,2 km/h (1 Bft) 97,37 %
01.11.2016 20:04 5,3 C 95 % 1017,0 hPa 0,0 l/m 2,5 km/h (1 Bft) S-SO 152 0 min 0,000 mm 0,0 UV-I 0 W/m 4,6 C 5,3 C 3,2 km/h (1 Bft) 98,11 %
01.11.2016 20:06 5,3 C 95 % 1017,0 hPa 0,0 l/m 3,0 km/h (1 Bft) S-SO 152 0 min 0,000 mm 0,0 UV-I 0 W/m 4,6 C 5,3 C 4,8 km/h (1 Bft) 100,00 %
01.11.2016 20:08 5,3 C 95 % 1017,0 hPa 0,0 l/m 3,0 km/h (1 Bft) S-SO 152 0 min 0,000 mm 0,0 UV-I 0 W/m 4,6 C 5,3 C 4,8 km/h (1 Bft) 100,00 %
01.11.2016 20:10 5,3 C 95 % 1017,1 hPa 0,0 l/m 2,6 km/h (1 Bft) S-SO 152 0 min 0,000 mm 0,0 UV-I 0 W/m 4,6 C 5,3 C 4,8 km/h (1 Bft) 97,14 %
01.11.2016 20:12 5,3 C 95 % 1017,0 hPa 0,0 l/m 2,0 km/h (1 Bft) S-SO 152 0 min 0,000 mm 0,0 UV-I 0 W/m 4,6 C 5,3 C 3,2 km/h (1 Bft) 100,00 %
01.11.2016 20:14 5,4 C 96 % 1017,0 hPa 0,0 l/m 2,3 km/h (1 Bft) S-SO 152 0 min 0,000 mm 0,0 UV-I 0 W/m 4,8 C 5,4 C 3,2 km/h (1 Bft) 94,74 %
01.11.2016 20:16 5,6 C 96 % 1017,0 hPa 0,0 l/m 2,9 km/h (1 Bft) S-SO 152 0 min 0,000 mm 0,0 UV-I 0 W/m 5,0 C 5,6 C 4,8 km/h (1 Bft) 100,00 %
01.11.2016 20:18 5,6 C 95 % 1017,0 hPa 0,0 l/m 2,2 km/h (1 Bft) S-SO 153 0 min 0,000 mm 0,0 UV-I 0 W/m 4,9 C 5,6 C 4,8 km/h (1 Bft) 100,00 %
01.11.2016 20:20 5,7 C 95 % 1017,0 hPa 0,0 l/m 2,5 km/h (1 Bft) S-SO 153 0 min 0,000 mm 0,0 UV-I 0 W/m 5,0 C 5,7 C 4,8 km/h (1 Bft) 98,00 %
01.11.2016 20:22 5,7 C 95 % 1017,0 hPa 0,0 l/m 2,5 km/h (1 Bft) S-SO 153 0 min 0,000 mm 0,0 UV-I 0 W/m 5,0 C 5,7 C 4,8 km/h (1 Bft) 97,22 %
01.11.2016 20:24 5,7 C 95 % 1017,0 hPa 0,0 l/m 1,6 km/h (1 Bft) S-SO 153 0 min 0,000 mm 0,0 UV-I 0 W/m 5,0 C 5,7 C 3,2 km/h (1 Bft) 100,00 %
01.11.2016 20:26 5,7 C 95 % 1017,0 hPa 0,0 l/m 2,0 km/h (1 Bft) S-SO 153 0 min 0,000 mm 0,0 UV-I 0 W/m 5,0 C 5,7 C 3,2 km/h (1 Bft) 100,00 %
01.11.2016 20:28 5,6 C 95 % 1017,0 hPa 0,0 l/m 2,1 km/h (1 Bft) S-SO 153 0 min 0,000 mm 0,0 UV-I 0 W/m 4,9 C 5,6 C 3,2 km/h (1 Bft) 100,00 %
01.11.2016 20:30 5,4 C 95 % 1017,0 hPa 0,0 l/m 1,1 km/h (1 Bft) S-SO 153 0 min 0,000 mm 0,0 UV-I 0 W/m 4,7 C 5,4 C 3,2 km/h (1 Bft) 100,00 %
01.11.2016 20:32 5,4 C 95 % 1017,0 hPa 0,0 l/m 1,5 km/h (1 Bft) S-SO 153 0 min 0,000 mm 0,0 UV-I 0 W/m 4,7 C 5,4 C 3,2 km/h (1 Bft) 100,00 %
01.11.2016 20:34 5,3 C 95 % 1017,0 hPa 0,0 l/m 2,9 km/h (1 Bft) S-SO 153 0 min 0,000 mm 0,0 UV-I 0 W/m 4,6 C 5,3 C 4,8 km/h (1 Bft) 100,00 %
01.11.2016 20:36 5,3 C 95 % 1017,0 hPa 0,0 l/m 2,6 km/h (1 Bft) S-SO 153 0 min 0,000 mm 0,0 UV-I 0 W/m 4,6 C 5,3 C 4,8 km/h (1 Bft) 100,00 %
01.11.2016 20:38 5,3 C 95 % 1017,1 hPa 0,0 l/m 3,0 km/h (1 Bft) S-SO 153 0 min 0,000 mm 0,0 UV-I 0 W/m 4,6 C 5,3 C 3,2 km/h (1 Bft) 97,87 %
01.11.2016 20:40 5,3 C 95 % 1017,0 hPa 0,0 l/m 3,2 km/h (1 Bft) S-SO 153 0 min 0,000 mm 0,0 UV-I 0 W/m 4,6 C 5,3 C 4,8 km/h (1 Bft) 100,00 %
01.11.2016 20:42 5,3 C 95 % 1017,1 hPa 0,0 l/m 3,3 km/h (1 Bft) S-SO 155 0 min 0,000 mm 0,0 UV-I 0 W/m 4,6 C 5,3 C 4,8 km/h (1 Bft) 100,00 %
01.11.2016 20:44 5,3 C 95 % 1017,0 hPa 0,0 l/m 2,9 km/h (1 Bft) S-SO 155 0 min 0,000 mm 0,0 UV-I 0 W/m 4,6 C 5,3 C 4,8 km/h (1 Bft) 100,00 %
01.11.2016 20:46 5,3 C 95 % 1017,0 hPa 0,0 l/m 1,6 km/h (1 Bft) S-SO 155 0 min 0,000 mm 0,0 UV-I 0 W/m 4,6 C 5,3 C 3,2 km/h (1 Bft) 100,00 %
01.11.2016 20:48 5,2 C 95 % 1017,0 hPa 0,0 l/m 1,2 km/h (1 Bft) S-SO 156 0 min 0,000 mm 0,0 UV-I 0 W/m 4,5 C 5,2 C 3,2 km/h (1 Bft) 98,11 %
01.11.2016 20:50 5,2 C 95 % 1017,0 hPa 0,0 l/m 1,8 km/h (1 Bft) S-SO 156 0 min 0,000 mm 0,0 UV-I 0 W/m 4,5 C 5,2 C 4,8 km/h (1 Bft) 97,37 %
01.11.2016 20:52 5,2 C 95 % 1017,0 hPa 0,0 l/m 2,9 km/h (1 Bft) S-SO 156 0 min 0,000 mm 0,0 UV-I 0 W/m 4,5 C 5,2 C 4,8 km/h (1 Bft) 95,74 %
01.11.2016 20:54 5,3 C 96 % 1017,0 hPa 0,0 l/m 1,8 km/h (1 Bft) S-SO 156 0 min 0,000 mm 0,0 UV-I 0 W/m 4,7 C 5,3 C 3,2 km/h (1 Bft) 100,00 %
01.11.2016 20:56 5,3 C 96 % 1017,0 hPa 0,0 l/m 3,3 km/h (1 Bft) S-SO 159 0 min 0,000 mm 0,0 UV-I 0 W/m 4,7 C 5,3 C 6,4 km/h (2 Bft) 100,00 %
01.11.2016 20:58 5,3 C 96 % 1016,9 hPa 0,0 l/m 2,9 km/h (1 Bft) S-SO 159 0 min 0,000 mm 0,0 UV-I 0 W/m 4,7 C 5,3 C 6,4 km/h (2 Bft) 97,87 %
01.11.2016 21:00 5,2 C 96 % 1017,0 hPa 0,0 l/m 4,1 km/h (1 Bft) S-SO 159 0 min 0,000 mm 0,0 UV-I 0 W/m 4,6 C 5,2 C 6,4 km/h (2 Bft) 100,00 %
01.11.2016 21:02 5,2 C 96 % 1016,9 hPa 0,0 l/m 2,7 km/h (1 Bft) S-SO 159 0 min 0,000 mm 0,0 UV-I 0 W/m 4,6 C 5,2 C 6,4 km/h (2 Bft) 97,87 %
01.11.2016 21:04 5,1 C 95 % 1017,0 hPa 0,0 l/m 1,0 km/h (0 Bft) S-SO 159 0 min 0,000 mm 0,0 UV-I 0 W/m 4,4 C 5,1 C 1,6 km/h (1 Bft) 100,00 %
01.11.2016 21:06 5,1 C 96 % 1017,0 hPa 0,0 l/m 0,4 km/h (0 Bft) S-SO 159 0 min 0,000 mm 0,0 UV-I 0 W/m 4,5 C 5,1 C 1,6 km/h (1 Bft) 100,00 %
01.11.2016 21:08 5,1 C 96 % 1017,0 hPa 0,0 l/m 0,4 km/h (0 Bft) S-SO 159 0 min 0,000 mm 0,0 UV-I 0 W/m 4,5 C 5,1 C 1,6 km/h (1 Bft) 100,00 %
01.11.2016 21:10 5,1 C 96 % 1016,9 hPa 0,0 l/m 0,6 km/h (0 Bft) S-SO 159 0 min 0,000 mm 0,0 UV-I 0 W/m 4,5 C 5,1 C 3,2 km/h (1 Bft) 97,87 %
01.11.2016 21:12 5,1 C 96 % 1017,0 hPa 0,0 l/m 1,3 km/h (1 Bft) S-SO 159 0 min 0,000 mm 0,0 UV-I 0 W/m 4,5 C 5,1 C 3,2 km/h (1 Bft) 100,00 %
01.11.2016 21:14 5,0 C 96 % 1016,9 hPa 0,0 l/m 1,7 km/h (1 Bft) S-SO 159 0 min 0,000 mm 0,0 UV-I 0 W/m 4,4 C 5,0 C 3,2 km/h (1 Bft) 98,21 %
01.11.2016 21:16 4,9 C 96 % 1016,9 hPa 0,0 l/m 0,4 km/h (0 Bft) S-SO 159 0 min 0,000 mm 0,0 UV-I 0 W/m 4,3 C 4,9 C 1,6 km/h (1 Bft) 100,00 %
01.11.2016 21:18 4,9 C 96 % 1017,0 hPa 0,0 l/m 0,3 km/h (0 Bft) S-SO 159 0 min 0,000 mm 0,0 UV-I 0 W/m 4,3 C 4,9 C 1,6 km/h (1 Bft) 100,00 %
01.11.2016 21:20 5,0 C 96 % 1016,9 hPa 0,0 l/m 1,0 km/h (0 Bft) S-SO 159 0 min 0,000 mm 0,0 UV-I 0 W/m 4,4 C 5,0 C 3,2 km/h (1 Bft) 100,00 %
01.11.2016 21:22 5,0 C 96 % 1017,0 hPa 0,0 l/m 1,7 km/h (1 Bft) S-SO 159 0 min 0,000 mm 0,0 UV-I 0 W/m 4,4 C 5,0 C 3,2 km/h (1 Bft) 96,00 %
01.11.2016 21:24 5,1 C 96 % 1017,0 hPa 0,0 l/m 0,5 km/h (0 Bft) S-SO 159 0 min 0,000 mm 0,0 UV-I 0 W/m 4,5 C 5,1 C 1,6 km/h (1 Bft) 98,11 %
01.11.2016 21:26 5,2 C 97 % 1017,0 hPa 0,0 l/m 1,8 km/h (1 Bft) S-SO 159 0 min 0,000 mm 0,0 UV-I 0 W/m 4,8 C 5,2 C 3,2 km/h (1 Bft) 100,00 %
01.11.2016 21:28 5,2 C 96 % 1016,9 hPa 0,0 l/m 1,5 km/h (1 Bft) S-SO 159 0 min 0,000 mm 0,0 UV-I 0 W/m 4,6 C 5,2 C 3,2 km/h (1 Bft) 100,00 %
01.11.2016 21:30 5,2 C 96 % 1016,9 hPa 0,0 l/m 1,7 km/h (1 Bft) S-SO 159 0 min 0,000 mm 0,0 UV-I 0 W/m 4,6 C 5,2 C 6,4 km/h (2 Bft) 100,00 %
01.11.2016 21:32 5,2 C 96 % 1016,9 hPa 0,0 l/m 1,8 km/h (1 Bft) S-SO 159 0 min 0,000 mm 0,0 UV-I 0 W/m 4,6 C 5,2 C 3,2 km/h (1 Bft) 94,34 %
01.11.2016 21:34 5,2 C 96 % 1016,9 hPa 0,0 l/m 2,3 km/h (1 Bft) S-SO 159 0 min 0,000 mm 0,0 UV-I 0 W/m 4,6 C 5,2 C 6,4 km/h (2 Bft) 97,87 %
01.11.2016 21:36 5,1 C 96 % 1016,9 hPa 0,0 l/m 2,8 km/h (1 Bft) S-SO 161 0 min 0,000 mm 0,0 UV-I 0 W/m 4,5 C 5,1 C 6,4 km/h (2 Bft) 97,87 %
01.11.2016 21:38 5,1 C 96 % 1016,8 hPa 0,0 l/m 2,2 km/h (1 Bft) S-SO 161 0 min 0,000 mm 0,0 UV-I 0 W/m 4,5 C 5,1 C 3,2 km/h (1 Bft) 100,00 %
01.11.2016 21:40 5,1 C 97 % 1016,8 hPa 0,0 l/m 2,3 km/h (1 Bft) S-SO 161 0 min 0,000 mm 0,0 UV-I 0 W/m 4,7 C 5,1 C 3,2 km/h (1 Bft) 100,00 %
01.11.2016 21:42 5,1 C 96 % 1016,8 hPa 0,0 l/m 2,4 km/h (1 Bft) S-SO 161 0 min 0,000 mm 0,0 UV-I 0 W/m 4,5 C 5,1 C 6,4 km/h (2 Bft) 97,44 %
01.11.2016 21:44 5,0 C 96 % 1016,9 hPa 0,0 l/m 4,0 km/h (1 Bft) S-SO 161 0 min 0,000 mm 0,0 UV-I 0 W/m 4,4 C 5,0 C 6,4 km/h (2 Bft) 98,28 %
01.11.2016 21:46 5,0 C 96 % 1016,8 hPa 0,0 l/m 3,0 km/h (1 Bft) S-SO 161 0 min 0,000 mm 0,0 UV-I 0 W/m 4,4 C 5,0 C 6,4 km/h (2 Bft) 100,00 %
01.11.2016 21:48 5,0 C 96 % 1016,8 hPa 0,0 l/m 4,6 km/h (1 Bft) S 173 0 min 0,000 mm 0,0 UV-I 0 W/m 4,4 C 5,0 C 8,0 km/h (2 Bft) 96,23 %
01.11.2016 21:50 5,1 C 97 % 1016,9 hPa 0,0 l/m 4,3 km/h (1 Bft) S 190 0 min 0,000 mm 0,0 UV-I 0 W/m 4,7 C 5,1 C 8,0 km/h (2 Bft) 97,87 %
01.11.2016 21:52 5,0 C 96 % 1016,8 hPa 0,0 l/m 2,1 km/h (1 Bft) S 190 0 min 0,000 mm 0,0 UV-I 0 W/m 4,4 C 5,0 C 4,8 km/h (1 Bft) 98,00 %
01.11.2016 21:54 5,0 C 96 % 1016,8 hPa 0,0 l/m 2,0 km/h (1 Bft) S 190 0 min 0,000 mm 0,0 UV-I 0 W/m 4,4 C 5,0 C 3,2 km/h (1 Bft) 97,87 %
01.11.2016 21:56 5,0 C 96 % 1016,8 hPa 0,0 l/m 2,7 km/h (1 Bft) S 175 0 min 0,000 mm 0,0 UV-I 0 W/m 4,4 C 5,0 C 4,8 km/h (1 Bft) 98,00 %
01.11.2016 21:58 4,9 C 96 % 1016,8 hPa 0,0 l/m 3,3 km/h (1 Bft) S 186 0 min 0,000 mm 0,0 UV-I 0 W/m 4,3 C 4,9 C 6,4 km/h (2 Bft) 97,56 %
01.11.2016 22:00 4,8 C 96 % 1016,8 hPa 0,0 l/m 3,4 km/h (1 Bft) S 178 0 min 0,000 mm 0,0 UV-I 0 W/m 4,2 C 4,8 C 6,4 km/h (2 Bft) 95,74 %
01.11.2016 22:02 4,8 C 96 % 1016,8 hPa 0,0 l/m 3,3 km/h (1 Bft) S 181 0 min 0,000 mm 0,0 UV-I 0 W/m 4,2 C 4,8 C 6,4 km/h (2 Bft) 96,23 %
01.11.2016 22:04 4,8 C 96 % 1016,7 hPa 0,0 l/m 2,9 km/h (1 Bft) S 185 0 min 0,000 mm 0,0 UV-I 0 W/m 4,2 C 4,8 C 4,8 km/h (1 Bft) 97,56 %
01.11.2016 22:06 4,8 C 96 % 1016,7 hPa 0,0 l/m 2,7 km/h (1 Bft) S 182 0 min 0,000 mm 0,0 UV-I 0 W/m 4,2 C 4,8 C 4,8 km/h (1 Bft) 96,23 %
01.11.2016 22:08 4,8 C 97 % 1016,7 hPa 0,0 l/m 1,9 km/h (1 Bft) S 180 0 min 0,000 mm 0,0 UV-I 0 W/m 4,4 C 4,8 C 3,2 km/h (1 Bft) 95,74 %
01.11.2016 22:10 4,8 C 97 % 1016,7 hPa 0,0 l/m 1,5 km/h (1 Bft) S 180 0 min 0,000 mm 0,0 UV-I 0 W/m 4,4 C 4,8 C 4,8 km/h (1 Bft) 97,56 %
01.11.2016 22:12 4,8 C 96 % 1016,7 hPa 0,0 l/m 1,5 km/h (1 Bft) S 180 0 min 0,000 mm 0,0 UV-I 0 W/m 4,2 C 4,8 C 3,2 km/h (1 Bft) 95,12 %
01.11.2016 22:14 4,8 C 96 % 1016,7 hPa 0,0 l/m 2,2 km/h (1 Bft) S 180 0 min 0,000 mm 0,0 UV-I 0 W/m 4,2 C 4,8 C 4,8 km/h (1 Bft) 98,00 %
01.11.2016 22:16 4,8 C 97 % 1016,7 hPa 0,0 l/m 1,9 km/h (1 Bft) S 180 0 min 0,000 mm 0,0 UV-I 0 W/m 4,4 C 4,8 C 4,8 km/h (1 Bft) 98,00 %
01.11.2016 22:18 4,8 C 97 % 1016,7 hPa 0,0 l/m 1,8 km/h (1 Bft) S 180 0 min 0,000 mm 0,0 UV-I 0 W/m 4,4 C 4,8 C 3,2 km/h (1 Bft) 98,00 %
01.11.2016 22:20 4,8 C 97 % 1016,7 hPa 0,0 l/m 1,9 km/h (1 Bft) S 180 0 min 0,000 mm 0,0 UV-I 0 W/m 4,4 C 4,8 C 3,2 km/h (1 Bft) 100,00 %
01.11.2016 22:22 4,9 C 97 % 1016,7 hPa 0,0 l/m 1,8 km/h (1 Bft) S 180 0 min 0,000 mm 0,0 UV-I 0 W/m 4,5 C 4,9 C 3,2 km/h (1 Bft) 96,00 %
01.11.2016 22:24 4,9 C 97 % 1016,7 hPa 0,0 l/m 1,7 km/h (1 Bft) S 180 0 min 0,000 mm 0,0 UV-I 0 W/m 4,5 C 4,9 C 3,2 km/h (1 Bft) 100,00 %
01.11.2016 22:26 4,9 C 97 % 1016,7 hPa 0,0 l/m 2,0 km/h (1 Bft) S 180 0 min 0,000 mm 0,0 UV-I 0 W/m 4,5 C 4,9 C 3,2 km/h (1 Bft) 98,08 %
01.11.2016 22:28 4,9 C 97 % 1016,7 hPa 0,0 l/m 1,1 km/h (1 Bft) S 180 0 min 0,000 mm 0,0 UV-I 0 W/m 4,5 C 4,9 C 3,2 km/h (1 Bft) 97,44 %
01.11.2016 22:30 4,8 C 96 % 1016,7 hPa 0,0 l/m 2,1 km/h (1 Bft) S 180 0 min 0,000 mm 0,0 UV-I 0 W/m 4,2 C 4,8 C 4,8 km/h (1 Bft) 98,21 %
01.11.2016 22:32 4,8 C 96 % 1016,7 hPa 0,0 l/m 1,2 km/h (1 Bft) S 180 0 min 0,000 mm 0,0 UV-I 0 W/m 4,2 C 4,8 C 3,2 km/h (1 Bft) 95,74 %
01.11.2016 22:34 4,8 C 97 % 1016,7 hPa 0,0 l/m 1,5 km/h (1 Bft) S 180 0 min 0,000 mm 0,0 UV-I 0 W/m 4,4 C 4,8 C 3,2 km/h (1 Bft) 100,00 %
01.11.2016 22:36 4,8 C 97 % 1016,7 hPa 0,0 l/m 1,5 km/h (1 Bft) S 180 0 min 0,000 mm 0,0 UV-I 0 W/m 4,4 C 4,8 C 3,2 km/h (1 Bft) 100,00 %
01.11.2016 22:38 4,8 C 97 % 1016,7 hPa 0,0 l/m 2,3 km/h (1 Bft) S 180 0 min 0,000 mm 0,0 UV-I 0 W/m 4,4 C 4,8 C 4,8 km/h (1 Bft) 97,37 %
01.11.2016 22:40 4,8 C 97 % 1016,7 hPa 0,0 l/m 2,6 km/h (1 Bft) S 180 0 min 0,000 mm 0,0 UV-I 0 W/m 4,4 C 4,8 C 4,8 km/h (1 Bft) 100,00 %
01.11.2016 22:42 4,8 C 97 % 1016,6 hPa 0,0 l/m 2,0 km/h (1 Bft) S 180 0 min 0,000 mm 0,0 UV-I 0 W/m 4,4 C 4,8 C 3,2 km/h (1 Bft) 100,00 %
01.11.2016 22:44 4,8 C 97 % 1016,6 hPa 0,0 l/m 1,9 km/h (1 Bft) S 180 0 min 0,000 mm 0,0 UV-I 0 W/m 4,4 C 4,8 C 3,2 km/h (1 Bft) 95,74 %
01.11.2016 22:46 4,8 C 97 % 1016,6 hPa 0,0 l/m 2,1 km/h (1 Bft) S 180 0 min 0,000 mm 0,0 UV-I 0 W/m 4,4 C 4,8 C 3,2 km/h (1 Bft) 98,11 %
01.11.2016 22:48 4,8 C 97 % 1016,6 hPa 0,0 l/m 1,5 km/h (1 Bft) S 180 0 min 0,000 mm 0,0 UV-I 0 W/m 4,4 C 4,8 C 3,2 km/h (1 Bft) 97,87 %
01.11.2016 22:50 4,7 C 96 % 1016,6 hPa 0,0 l/m 2,0 km/h (1 Bft) S 180 0 min 0,000 mm 0,0 UV-I 0 W/m 4,1 C 4,7 C 4,8 km/h (1 Bft) 100,00 %
01.11.2016 22:52 4,7 C 97 % 1016,6 hPa 0,0 l/m 1,2 km/h (1 Bft) S 180 0 min 0,000 mm 0,0 UV-I 0 W/m 4,3 C 4,7 C 3,2 km/h (1 Bft) 98,00 %
01.11.2016 22:54 4,6 C 96 % 1016,6 hPa 0,0 l/m 2,7 km/h (1 Bft) S 180 0 min 0,000 mm 0,0 UV-I 0 W/m 4,0 C 4,6 C 6,4 km/h (2 Bft) 97,56 %
01.11.2016 22:56 4,6 C 97 % 1016,7 hPa 0,0 l/m 2,2 km/h (1 Bft) S 180 0 min 0,000 mm 0,0 UV-I 0 W/m 4,2 C 4,6 C 4,8 km/h (1 Bft) 97,87 %
01.11.2016 22:58 4,6 C 97 % 1016,6 hPa 0,0 l/m 2,3 km/h (1 Bft) S 180 0 min 0,000 mm 0,0 UV-I 0 W/m 4,2 C 4,6 C 4,8 km/h (1 Bft) 100,00 %
01.11.2016 23:00 4,6 C 97 % 1016,6 hPa 0,0 l/m 1,1 km/h (1 Bft) S 180 0 min 0,000 mm 0,0 UV-I 0 W/m 4,2 C 4,6 C 3,2 km/h (1 Bft) 100,00 %
01.11.2016 23:02 4,6 C 97 % 1016,6 hPa 0,0 l/m 1,0 km/h (0 Bft) S 180 0 min 0,000 mm 0,0 UV-I 0 W/m 4,2 C 4,6 C 3,2 km/h (1 Bft) 100,00 %
01.11.2016 23:04 4,5 C 97 % 1016,6 hPa 0,0 l/m 1,1 km/h (1 Bft) S 180 0 min 0,000 mm 0,0 UV-I 0 W/m 4,1 C 4,5 C 3,2 km/h (1 Bft) 96,00 %
01.11.2016 23:06 4,6 C 97 % 1016,6 hPa 0,0 l/m 1,8 km/h (1 Bft) S 180 0 min 0,000 mm 0,0 UV-I 0 W/m 4,2 C 4,6 C 3,2 km/h (1 Bft) 98,00 %
01.11.2016 23:08 4,6 C 97 % 1016,6 hPa 0,0 l/m 1,9 km/h (1 Bft) S 180 0 min 0,000 mm 0,0 UV-I 0 W/m 4,2 C 4,6 C 3,2 km/h (1 Bft) 100,00 %
01.11.2016 23:10 4,6 C 97 % 1016,6 hPa 0,0 l/m 2,1 km/h (1 Bft) S 180 0 min 0,000 mm 0,0 UV-I 0 W/m 4,2 C 4,6 C 3,2 km/h (1 Bft) 100,00 %
01.11.2016 23:12 4,6 C 97 % 1016,6 hPa 0,0 l/m 1,8 km/h (1 Bft) S 180 0 min 0,000 mm 0,0 UV-I 0 W/m 4,2 C 4,6 C 3,2 km/h (1 Bft) 97,56 %
01.11.2016 23:14 4,5 C 97 % 1016,6 hPa 0,0 l/m 1,5 km/h (1 Bft) S 180 0 min 0,000 mm 0,0 UV-I 0 W/m 4,1 C 4,5 C 3,2 km/h (1 Bft) 98,28 %
01.11.2016 23:16 4,5 C 97 % 1016,6 hPa 0,0 l/m 1,6 km/h (1 Bft) S 180 0 min 0,000 mm 0,0 UV-I 0 W/m 4,1 C 4,5 C 3,2 km/h (1 Bft) 100,00 %
01.11.2016 23:18 4,5 C 97 % 1016,6 hPa 0,0 l/m 2,9 km/h (1 Bft) S 180 0 min 0,000 mm 0,0 UV-I 0 W/m 4,1 C 4,5 C 4,8 km/h (1 Bft) 97,37 %
01.11.2016 23:20 4,4 C 97 % 1016,6 hPa 0,0 l/m 2,4 km/h (1 Bft) S 180 0 min 0,000 mm 0,0 UV-I 0 W/m 4,0 C 4,4 C 4,8 km/h (1 Bft) 97,87 %
01.11.2016 23:22 4,4 C 97 % 1016,6 hPa 0,0 l/m 1,9 km/h (1 Bft) S 180 0 min 0,000 mm 0,0 UV-I 0 W/m 4,0 C 4,4 C 3,2 km/h (1 Bft) 100,00 %
01.11.2016 23:24 4,4 C 97 % 1016,5 hPa 0,0 l/m 1,2 km/h (1 Bft) S 180 0 min 0,000 mm 0,0 UV-I 0 W/m 4,0 C 4,4 C 3,2 km/h (1 Bft) 98,21 %
01.11.2016 23:26 4,3 C 97 % 1016,4 hPa 0,0 l/m 1,5 km/h (1 Bft) S 180 0 min 0,000 mm 0,0 UV-I 0 W/m 3,9 C 4,3 C 3,2 km/h (1 Bft) 95,74 %
01.11.2016 23:28 4,3 C 97 % 1016,5 hPa 0,0 l/m 1,9 km/h (1 Bft) S 180 0 min 0,000 mm 0,0 UV-I 0 W/m 3,9 C 4,3 C 3,2 km/h (1 Bft) 100,00 %
01.11.2016 23:30 4,3 C 97 % 1016,4 hPa 0,0 l/m 1,3 km/h (1 Bft) S 180 0 min 0,000 mm 0,0 UV-I 0 W/m 3,9 C 4,3 C 3,2 km/h (1 Bft) 98,44 %
01.11.2016 23:32 4,2 C 97 % 1016,4 hPa 0,0 l/m 2,5 km/h (1 Bft) S 180 0 min 0,000 mm 0,0 UV-I 0 W/m 3,8 C 4,2 C 4,8 km/h (1 Bft) 96,00 %
01.11.2016 23:34 4,2 C 97 % 1016,4 hPa 0,0 l/m 1,8 km/h (1 Bft) S 180 0 min 0,000 mm 0,0 UV-I 0 W/m 3,8 C 4,2 C 3,2 km/h (1 Bft) 100,00 %
01.11.2016 23:36 4,1 C 97 % 1016,4 hPa 0,0 l/m 2,8 km/h (1 Bft) S 181 0 min 0,000 mm 0,0 UV-I 0 W/m 3,7 C 4,1 C 4,8 km/h (1 Bft) 100,00 %
01.11.2016 23:38 4,2 C 97 % 1016,4 hPa 0,0 l/m 3,5 km/h (1 Bft) S 181 0 min 0,000 mm 0,0 UV-I 0 W/m 3,8 C 4,2 C 4,8 km/h (1 Bft) 98,11 %
01.11.2016 23:40 4,2 C 97 % 1016,4 hPa 0,0 l/m 2,6 km/h (1 Bft) S 181 0 min 0,000 mm 0,0 UV-I 0 W/m 3,8 C 4,2 C 4,8 km/h (1 Bft) 97,44 %
01.11.2016 23:42 4,1 C 97 % 1016,2 hPa 0,0 l/m 2,7 km/h (1 Bft) S 181 0 min 0,000 mm 0,0 UV-I 0 W/m 3,7 C 4,1 C 4,8 km/h (1 Bft) 100,00 %
01.11.2016 23:44 4,1 C 97 % 1016,2 hPa 0,0 l/m 2,7 km/h (1 Bft) S 181 0 min 0,000 mm 0,0 UV-I 0 W/m 3,7 C 4,1 C 4,8 km/h (1 Bft) 94,74 %
01.11.2016 23:46 4,1 C 97 % 1016,2 hPa 0,0 l/m 3,8 km/h (1 Bft) S 183 0 min 0,000 mm 0,0 UV-I 0 W/m 3,7 C 4,1 C 4,8 km/h (1 Bft) 98,11 %
01.11.2016 23:48 4,2 C 97 % 1016,2 hPa 0,0 l/m 2,8 km/h (1 Bft) S 185 0 min 0,000 mm 0,0 UV-I 0 W/m 3,8 C 4,2 C 4,8 km/h (1 Bft) 97,87 %
01.11.2016 23:50 4,2 C 97 % 1016,2 hPa 0,0 l/m 3,8 km/h (1 Bft) S-SW 196 0 min 0,000 mm 0,0 UV-I 0 W/m 3,8 C 4,2 C 6,4 km/h (2 Bft) 100,00 %
01.11.2016 23:52 4,3 C 97 % 1016,2 hPa 0,0 l/m 4,1 km/h (1 Bft) S-SW 206 0 min 0,000 mm 0,0 UV-I 0 W/m 3,9 C 4,3 C 4,8 km/h (1 Bft) 100,00 %
01.11.2016 23:54 4,4 C 97 % 1016,2 hPa 0,0 l/m 3,7 km/h (1 Bft) SW 215 0 min 0,000 mm 0,0 UV-I 0 W/m 4,0 C 4,4 C 6,4 km/h (2 Bft) 100,00 %
01.11.2016 23:56 4,4 C 97 % 1016,1 hPa 0,0 l/m 3,7 km/h (1 Bft) SW 215 0 min 0,000 mm 0,0 UV-I 0 W/m 4,0 C 4,4 C 4,8 km/h (1 Bft) 100,00 %
01.11.2016 23:58 4,3 C 97 % 1016,1 hPa 0,0 l/m 4,0 km/h (1 Bft) SW 225 0 min 0,000 mm 0,0 UV-I 0 W/m 3,9 C 4,3 C 6,4 km/h (2 Bft) 96,43 %
_ Min-Zeit 07:12 14:58 23:56 - 01:16 - - - - - - 07:12 07:12 01:22 00:02
Minimum _ 0,2 C 74 % 1016,1 hPa - 0,0 km/h (0 Bft) - - - - - - -0,1 C 0,2 C 0,0 km/h (0 Bft) 12,50 %
_ Max-Zeit 14:08 03:32 00:00 10:10 10:40 - - 11:12 13:00 11:28 12:22 13:36 14:08 10:30 00:00
Maximum _ 10,8 C 98 % 1027,1 hPa 0,2 l/m 7,1 km/h
N-NO (2 Bft)
- - 6 min 0,178 mm 1,4 UV-I 478 W/m 7,9 C 10,8 C 9,7 km/h
NO (2 Bft)
100,00 %
Durchschnitt _ 4,9 C 93 % 1021,6 hPa #0,2 l/m 1,5 km/h (1 Bft) O-SO - #8:26 h #1,118 mm 1,0 UV-I 247 W/m 3,8 C 4,9 C 2,9 km/h (1 Bft) 98,54 %